     2              OBSERVATION DATA                        RINEX VERSION / TYPE
DAT2RIN 1.00 KK 14SEP94 21:32:57 GMT                        PGM / RUN BY / DATE
KK GFA                                                      OBSERVER / AGENCY
2855 TRIMBLE 4000SSE Nav 5.71 Sig 1.26                      REC # / TYPE / VERS
23607 4000ST L1/L2 GEOD                                     ANT # / TYPE
1001                                                        MARKER NAME
1001                                                        MARKER NUMBER
   895555.5934  -267914.1299  6288166.3395                  APPROX POSITION XYZ
        0.1288        0.0000        0.0000                  ANTENNA: DELTA H/E/N
----------------------------------------------------------- COMMENT
Note: The above offsets are CORRECTED.                      COMMENT
Raw Offsets: H= 0.3000 E= 0.0000 N= 0.0000                  COMMENT
Note: The above height is to the antenna base.              COMMENT
----------------------------------------------------------- COMMENT
     1     1     0                                          WAVELENGTH FACT L1/2
     4    L1    C1    L2    P2                              # / TYPES OF OBSERV
    15                                                      INTERVAL
  1994     6    23    17     4   15.000000                  TIME OF FIRST OBS
  1994     6    23    20    48   45.000000                  TIME OF LAST OBS
    15                                                      # OF SATELLITES
           1   719   719   719   719                        PRN / # OF OBS
           2   296   296   296   296                        PRN / # OF OBS
           4   425   426   421   421                        PRN / # OF OBS
           5   627   628   624   624                        PRN / # OF OBS
           7   836   836   836   836                        PRN / # OF OBS
           9   477   477   477   477                        PRN / # OF OBS
          14   723   724   720   720                        PRN / # OF OBS
          15   660   660   660   660                        PRN / # OF OBS
          18     6     6     3     3                        PRN / # OF OBS
          20   379   379   375   375                        PRN / # OF OBS
          21   239   239   239   239                        PRN / # OF OBS
          24   149   149   144   144                        PRN / # OF OBS
          25   377   377   374   374                        PRN / # OF OBS
          29   230   230   227   227                        PRN / # OF OBS
          31    31    31    31    31                        PRN / # OF OBS
                                                            END OF HEADER
 94  6 23 17  4 15.0000000  0  7  1  2  7  9 15 21 31
  -1138809.98810  23463257.70300   -545032.79950  23463258.62940
   -292282.45110  22074481.13300   -184611.84450  22074481.41440
  -1233230.00610  23268946.57000   -755745.39650  23268947.09840
   -768855.68910  22683353.10200   -493757.50350  22683353.17240
   -902063.47510  21295477.30500   -576730.37650  21295477.65640
   -115115.51210  22097055.35200    -72169.05850  22097055.56340
    211783.85710  24041470.36700    116481.83450  24041470.78940
 94  6 23 17  4 30.0000000  0  7  1  2  7  9 15 21 31
  -1213987.00500  23448951.72700   -603612.25040  23448952.68840
   -310136.62000  22071083.61700   -198524.15340  22071084.12140
  -1314934.94800  23253399.00800   -819411.58640  23253399.34840
   -818700.11100  22673868.41400   -532597.29740  22673868.66040
   -960928.24600  21284275.63300   -622599.01640  21284276.04340
   -121075.12800  22095921.50000    -76812.90340  22095921.73440
    235107.51300  24045908.89100    134656.09840  24045910.56640
 94  6 23 17  4 45.0000000  0  7  1  2  7  9 15 21 31
  -1289013.73600  23434674.75000   -662074.61840  23434675.51240
   -327787.60200  22067724.69500   -212278.13440  22067725.19940
  -1396503.03200  23237876.39100   -882971.08540  23237877.01240
   -868334.25400  22664422.78900   -571273.22240  22664422.85940
  -1019586.68300  21273113.70300   -668306.88540  21273113.87940
   -126833.33200  22094825.39800    -81299.79740  22094825.63340
    258541.45900  24050368.34400    152916.34140  24050368.43840
 94  6 23 17  5  0.0000000  0  7  1  2  7  9 15 21 31
  -1363892.56000  23420425.57800   -720421.72940  23420426.78540
   -345241.08200  22064403.60200   -225878.26340  22064404.09440
  -1477939.68100  23222379.82000   -946428.17440  23222380.19540
   -917764.03500  22655016.85200   -609789.91640  22655017.01640
  -1078043.33500  21261989.64100   -713857.49840  21261989.85240
   -132392.99800  22093767.57800    -85631.99740  22093767.83640
    282084.53400  24054848.53100    171261.58640  24054849.38740
 94  6 23 17  5 15.0000000  0  7  1  2  7  9 15 21 31
  -1438620.84700  23406205.98400   -778651.53640  23406206.40640
   -362491.08800  22061120.79700   -239319.80940  22061120.99640
  -1559242.97100  23206907.94500  -1009781.36240  23206907.94540
   -966985.48700  22645650.47700   -648144.27540  22645650.66440
  -1136295.80200  21250904.25000   -759249.00340  21250904.53140
   -137752.16500  22092747.90600    -89807.97440  22092748.15240
    305739.35600  24059349.55500    189693.91640  24059349.74240
 94  6 23 17  5 30.0000000  0  7  1  2  7  9 15 21 31
  -1513210.03500  23392011.33600   -836772.96540  23392011.85240
   -379547.28900  22057874.84400   -252610.33240  22057875.05540
  -1640430.77600  23191458.16400  -1073044.54040  23191458.28140
  -1016016.15600  22636319.83600   -686349.99040  22636319.69540
  -1194359.39500  21239854.71100   -804493.34340  21239854.98040
   -142926.80000  22091762.83600    -93840.13540  22091762.93040
    329487.21800  24063867.97700    208198.73540  24063868.59840
 94  6 23 17  5 45.0000000  0  7  1  2  7  9 15 21 31
  -1587660.53500  23377844.08600   -894786.27140  23377844.67240
   -396410.06300  22054666.66400   -265750.09040  22054667.41440
  -1721504.86900  23176030.87500  -1136219.06140  23176032.78540
  -1064859.65000  22627025.00000   -724409.79740  22627024.73040
  -1252236.08200  21228841.21100   -849592.00640  21228841.79740
   -147921.70200  22090812.60200    -97732.18540  22090812.88340
    353325.70200  24068403.73400    226774.18840  24068405.76240
 94  6 23 17  6  0.0000000  0  7  1  2  7  9 15 21 31
  -1661960.89200  23363705.30500   -952682.61740  23363705.63340
   -413068.44900  22051496.92200   -278730.67540  22051497.41440
  -1802449.50700  23160627.60200  -1199292.81440  23160629.27740
  -1113507.65800  22617767.52300   -762317.32040  22617767.69940
  -1309914.48900  21217865.24200   -894536.20340  21217865.85240
   -152728.38500  22089898.02300   -101477.66340  22089898.43440
    377266.14900  24072960.16400    245429.06540  24072960.49240
 94  6 23 17  6 15.0000000  0  7  1  2  7  9 15 21 31
  -1736116.14100  23349594.14100  -1010465.91340  23349594.69140
   -429526.88900  22048365.13300   -291555.44840  22048365.39140
  -1883268.01800  23145248.75000  -1262268.24640  23145250.10940
  -1161966.99100  22608545.96100   -800077.83340  22608546.05540
  -1367402.26700  21206925.75000   -939331.87440  21206926.40640
   -157356.02800  22089017.07000   -105083.61340  22089017.42240
    401298.11600  24077533.54700    264155.27640  24077534.25040
 94  6 23 17  6 29.9990000  0  7  1  2  7  9 15 21 31
  -1810137.83600  23335508.22200  -1068145.13140  23335508.44440
   -445801.90500  22045267.59700   -304237.27140  22045267.74940
  -1963972.35000  23129890.56500  -1325154.69840  23129892.21840
  -1210253.85500  22599357.35500   -837703.94140  22599357.56540
  -1424713.61200  21196019.94800   -983990.03740  21196020.58140
   -161820.53500  22088167.55000   -108562.43540  22088167.99540
    425402.88600  24082120.66700    282938.20940  24082121.25340
 94  6 23 17  6 44.9990000  0  7  1  2  7  9 15 21 31
  -1884024.77300  23321447.81500  -1125719.34940  23321448.67140
   -461888.03400  22042206.53400   -316771.92540  22042207.01540
  -2044563.69900  23114554.83900  -1387953.15440  23114555.90540
  -1258363.45200  22590202.54200   -875191.93140  22590202.71840
  -1481846.25200  21185147.95600  -1028508.96640  21185148.50740
   -166111.68200  22087351.16700   -111906.19540  22087351.61240
    449592.79100  24086724.08100    301787.45840  24086724.21040
 94  6 23 17  6 59.9990000  0  7  1  2  7  9 15 21 31
  -1957762.93800  23307416.12000  -1183177.63640  23307416.78840
   -477776.41100  22039182.98000   -329152.48140  22039183.40140
  -2125032.78600  23099242.45600  -1450656.29440  23099243.62840
  -1306285.56500  22581083.47200   -912533.83640  22581083.88240
  -1538789.23400  21174311.95600  -1072880.10140  21174312.58940
   -170219.25900  22086569.37000   -115106.92040  22086570.14440
    473871.52000  24091344.95600    320705.95540  24091346.32740
 94  6 23 17  7 14.9990000  0  7  1  2  7  9 15 21 31
  -2031358.50100  23293411.53400  -1240524.80140  23293412.15540
   -493470.42300  22036196.72200   -341381.55640  22036197.27240
  -2205386.78600  23083951.06500  -1513269.80040  23083952.31940
  -1354025.33000  22571998.68300   -949733.65140  22571998.54240
  -1595548.42300  21163511.12800  -1117108.02140  21163511.63240
   -174151.91200  22085820.98700   -118171.33640  22085821.22240
    498231.27300  24095979.37800    339687.58740  24095979.98740
 94  6 23 17  7 29.9990000  0  7  1  2  7  9 15 21 31
  -2104809.80400  23279434.02600  -1297759.60540  23279434.71840
   -508968.94700  22033247.26100   -353458.30240  22033247.84740
  -2285623.52200  23068682.62800  -1575791.90040  23068684.32740
  -1401583.81000  22562948.73700   -986792.20540  22562948.60840
  -1652122.48500  21152745.42500  -1161191.68240  21152745.90540
   -177908.19100  22085106.44000   -121098.30840  22085106.46440
    522671.02600  24100629.34700    358731.54740  24100630.77640
 94  6 23 17  7 44.9990000  0  7  1  2  7  9 15 21 31
  -2178123.15300  23265482.94000  -1354886.94840  23265483.59740
   -524281.82500  22030333.37000   -365390.40440  22030334.03840
  -2365747.01700  23053435.12000  -1638225.76640  23053436.03440
  -1448966.04500  22553932.23700  -1023713.42740  22553932.37840
  -1708516.29400  21142013.62800  -1205134.88740  21142014.07340
   -181493.94200  22084423.85500   -123892.38540  22084423.84340
    547188.44700  24105295.40900    377836.00540  24105295.83140
 94  6 23 17  7 59.9990000  0  7  1  2  7  9 15 21 31
  -2251303.07300  23251557.02600  -1411910.27640  23251557.63640
   -539418.58300  22027453.01900   -377185.28940  22027453.40540
  -2445759.68800  23038209.62800  -1700573.26540  23038210.80040
  -1496172.51100  22544948.81500  -1060497.68140  22544948.76940
  -1764733.61500  21131316.25300  -1248940.57540  21131316.69840
   -184911.03300  22083773.51900   -126555.03540  22083773.95240
    571781.48200  24109975.81500    396999.37940  24109976.58940
 94  6 23 17  8 14.9990000  0  7  1  2  7  9 15 21 31
  -2324352.64200  23237656.42500  -1468831.99540  23237656.97640
   -554382.02500  22024605.63600   -388845.11340  22024606.08140
  -2525667.45500  23023003.49500  -1762839.04940  23023005.18340
  -1543202.21500  22535999.73700  -1097144.18940  22535999.52640
  -1820777.17400  21120651.30800  -1292610.85340  21120651.58940
   -188159.99300  22083155.23700   -129086.69240  22083155.58940
    596446.40200  24114669.00300    416218.76340  24114669.73040
 94  6 23 17  8 29.9990000  0  7  1  2  7  9 15 21 31
  -2397280.01400  23223778.90900  -1525658.53140  23223779.58940
   -569180.90000  22021789.80800   -400376.70540  22021790.20640
  -2605483.02100  23007815.18300  -1825032.98540  23007816.34340
  -1590059.39600  22527083.04200  -1133656.27140  22527082.94840
  -1876652.96400  21110018.70600  -1336150.41140  21110019.08140
   -191243.43700  22082568.55800   -131489.36440  22082568.93340
    621179.22400  24119376.12800    435491.05140  24119375.63640
 94  6 23 17  8 44.9990000  0  7  1  2  7  9 15 21 31
  -2470082.71100  23209924.64400  -1582387.84440  23209925.05440
   -583816.42400  22019004.50300   -411781.01940  22019004.98340
  -2685206.78200  22992644.88600  -1887155.37240  22992645.97640
  -1636741.51700  22518199.34700  -1170031.94340  22518199.21840
  -1932358.41700  21099418.12800  -1379557.23340  21099418.45640
   -194159.70000  22082013.85500   -133761.75840  22082014.21840
    645981.36600  24124095.25300    454817.39040  24124096.16740
 94  6 23 17  8 59.9990000  0  7  1  2  7  9 15 21 31
  -2542764.48400  23196094.09700  -1639022.95340  23196094.56540
   -598294.33900  22016249.34700   -423062.52040  22016249.71040
  -2764846.09300  22977489.14400  -1949211.96440  22977490.55040
  -1683253.56400  22509348.41700  -1206275.07140  22509348.81540
  -1987897.93400  21088849.28400  -1422834.76340  21088849.55440
   -196916.97300  22081489.15900   -135910.26040  22081489.44040
    670846.14400  24128827.81500    474192.51140  24128828.03840
 94  6 23 17  9 14.9990000  0  7  1  2  7  9 15 21 31
  -2615322.64000  23182286.82300  -1695561.75640  23182287.36240
   -612612.53000  22013524.92500   -434219.55840  22013525.35840
  -2844397.09100  22962351.59700  -2011199.72240  22962352.75740
  -1729594.63300  22500530.39400  -1242384.97540  22500530.46440
  -2043269.11200  21078312.67500  -1465981.11840  21078313.05040
   -199516.76200  22080994.28400   -137936.04140  22080994.41340
    695773.75700  24133572.12800    493616.64640  24133573.00740
 94  6 23 17  9 29.9990000  0  7  1  2  7  9 15 21 31
  -2687760.50100  23168502.12800  -1752006.84740  23168502.50340
   -626774.21900  22010829.76900   -445254.65540  22010830.24940
  -2923854.61800  22947230.90900  -2073114.66040  22947231.76540
  -1775763.32100  22491744.15900  -1278360.56840  22491744.23040
  -2098470.78100  21067808.09700  -1508995.38040  21067808.37840
   -201958.44600  22080529.38600   -139838.64440  22080529.90140
    720765.42000  24138326.91700    513090.65840  24138327.67940
 94  6 23 17  9 44.9990000  0  7  1  2  7  9 15 21 31
  -2760084.37300  23154739.32300  -1808363.09940  23154739.89740
   -640784.50300  22008163.99500   -456171.76740  22008164.37040
  -3003220.09400  22932128.92500  -2134957.87640  22932130.13240
  -1821764.70400  22482990.92500  -1314205.78740  22482991.04240
  -2153506.16800  21057335.24500  -1551880.07440  21057335.58540
   -204245.64300  22080094.28400   -141620.88140  22080094.85840
    745816.97100  24143093.76900    532611.32440  24143094.40140
 94  6 23 17  9 59.9990000  0  7  1  2  7  9 15 21 31
  -2832302.25800  23140996.57300  -1864636.75140  23140996.94840
   -654648.20900  22005525.83100   -466974.66940  22005526.31240
  -3082499.57400  22917041.97200  -2196734.08440  22917043.42540
  -1867602.67600  22474268.26100  -1349923.67240  22474268.27240
  -2208380.93600  21046893.12000  -1594639.61240  21046893.41340
   -206386.40300  22079687.06500   -143288.99540  22079687.42940
    770919.53900  24147871.04200    552171.73540  24147872.27240
 94  6 23 17 10 14.9990000  0  7  1  2  7  9 15 21 31
  -2904407.53500  23127275.64400  -1920822.65440  23127276.10140
   -668358.75300  22002917.00300   -477658.22240  22002917.39040
  -3161687.87600  22901973.14400  -2258439.22740  22901974.09340
  -1913274.72800  22465577.11200  -1385512.28740  22465576.92540
  -2263091.74800  21036481.72200  -1637271.39340  21036481.98040
   -208377.99800  22079307.60500   -144840.87940  22079307.88640
    796072.35400  24152657.47200    571771.30640  24152658.58540
 94  6 23 17 10 29.9990000  0  7  1  2  7  9 15 21 31
  -2976401.56600  23113575.52600  -1976921.87940  23113576.04240
   -681915.49800  22000336.79200   -488221.92140  22000337.26140
  -3240785.47000  22886921.83900  -2320073.71340  22886923.26940
  -1958785.43400  22456916.05000  -1420975.16940  22456915.99140
  -2317640.04900  21026101.83100  -1679776.55040  21026101.96040
   -210224.66800  22078956.55800   -146279.84140  22078956.72240
    821271.22500  24157452.19000    591406.78540  24157452.41340
 94  6 23 17 10 44.9990000  0  7  1  2  7  9 15 21 31
  -3048281.48300  23099897.19800  -2032932.19740  23099897.81940
   -695317.64800  21997786.74500   -498665.15440  21997787.19040
  -3319787.18800  22871887.65900  -2381633.47140  22871889.19440
  -2004137.88400  22448286.37000  -1456314.72940  22448286.04240
  -2372024.80300  21015752.53400  -1722154.26540  21015752.78040
   -211927.37300  22078632.48000   -147606.61540  22078632.65540
    846512.53700  24162254.62000    611075.28040  24162255.58140
 94  6 23 17 10 59.9990000  0  7  1  2  7  9 15 21 31
  -3120043.09300  23086241.90900  -2088850.33940  23086241.90940
   -708562.27200  21995265.98000   -508985.63840  21995266.54240
  -3398689.16200  22856873.72200  -2443115.53140  22856875.50340
  -2049334.89800  22439685.76900  -1491533.17040  22439685.59340
  -2426246.56100  21005434.62800  -1764404.96940  21005434.89740
   -213489.47600  22078335.30800   -148823.83440  22078335.63640
    871795.50900  24167065.73700    630776.25440  24167066.89740
 94  6 23 17 11 14.9990000  0  7  1  2  7  9 15 21 31
  -3191690.11600  23072607.89400  -2144679.21240  23072608.06940
   -721648.41400  21992776.02600   -519182.64440  21992776.31940
  -3477490.76600  22841877.48700  -2504519.35840  22841878.97640
  -2094378.57300  22431114.04200  -1526632.12740  22431113.92540
  -2480307.26200  20995147.18300  -1806530.17240  20995147.45240
   -214912.19900  22078064.59700   -149932.45040  22078064.92540
    897119.99500  24171885.26100    650509.55840  24171886.06940
 94  6 23 17 11 29.9990000  0  7  1  2  7  9 15 21 31
  -3263222.15600  23058995.67500  -2200418.44740  23058995.93340
   -734573.25000  21990316.47200   -529253.95140  21990316.76540
  -3556185.26200  22826902.73000  -2565839.71340  22826904.08940
  -2139265.58900  22422572.55800  -1561609.00940  22422572.59340
  -2534204.78000  20984890.78400  -1848528.22240  20984890.98340
   -216193.26200  22077820.78400   -150930.66440  22077821.12440
    922489.45800  24176713.69000    670277.93140  24176714.46440
 94  6 23 17 11 44.9990000  0  7  1  2  7  9 15 21 31
  -3334640.04500  23045404.55800  -2256068.74040  23045404.95640
   -747338.71700  21987887.47200   -539201.07240  21987887.76540
  -3634776.25600  22811947.05800  -2627079.45040  22811948.44040
  -2183999.18800  22414060.16700  -1596466.35340  22414060.23740
  -2587942.36900  20974664.71400  -1890401.65440  20974664.96040
   -217334.67400  22077603.34700   -151820.06440  22077603.90940
    947900.03700  24181549.31500    690078.30740  24181550.00740
 94  6 23 17 11 59.9990000  0  6  1  2  7  9 15 21
  -3405933.99100  23031838.60500  -2311622.41040  23031838.98040
   -759941.29700  21985489.42500   -549021.26940  21985489.70640
  -3713264.69400  22797011.08100  -2688239.26040  22797012.40540
  -2228575.69300  22405577.42500  -1631201.28140  22405577.51940
  -2641517.59700  20964469.90900  -1932148.57140  20964470.16740
   -218335.21900  22077412.93300   -152599.69740  22077413.49540
 94  6 23 17 12 14.9990000  0  6  1  2  7  9 15 21
  -3477101.94800  23018295.73000  -2367077.99340  23018295.76540
   -772386.54000  21983121.07300   -558718.86640  21983121.70640
  -3791654.40200  22782094.41700  -2749322.14040  22782095.63640
  -2272995.48100  22397124.27600  -1665814.10340  22397124.42940
  -2694933.05300  20954305.01100  -1973770.98940  20954305.17540
   -219196.51100  22077249.06500   -153270.83040  22077249.46440
 94  6 23 17 12 29.9990000  0  6  1  2  7  9 15 21
  -3548138.98000  23004777.47200  -2422431.51640  23004777.49540
   -784669.73000  21980783.44000   -568290.18840  21980783.99140
  -3869939.54200  22767197.23700  -2810323.52440  22767198.83140
  -2317253.15600  22388702.26100  -1700300.59340  22388702.37840
  -2748183.19000  20944171.83900  -2015264.59240  20944172.06240
   -219913.23500  22077113.14400   -153829.31640  22077113.30840
 94  6 23 17 12 44.9990000  0  6  1  2  7  9 15 21
  -3619050.97500  22991283.30800  -2477687.59140  22991284.12840
   -796798.10200  21978475.53400   -577740.87940  21978476.01540
  -3948124.87700  22752319.30800  -2871247.14740  22752320.77240
  -2361350.64400  22380311.37800  -1734662.27040  22380311.27240
  -2801271.94700  20934069.72200  -2056632.44140  20934069.98040
   -220488.67100  22077003.40900   -154277.73640  22077003.81940
 94  6 23 17 12 59.9990000  0  6  1  2  7  9 15 21
  -3689835.97100  22977813.85500  -2532844.72340  22977814.26540
   -808770.71900  21976196.90100   -587070.19540  21976197.33540
  -4026208.27900  22737459.88600  -2932091.34540  22737460.73040
  -2405281.98800  22371951.24500  -1768894.47840  22371951.12840
  -2854197.72500  20923998.00300  -2097873.29340  20923998.26140
   -220920.89200  22076921.79200   -154614.56540  22076921.87440
 94  6 23 17 13 14.9990000  0  6  1  2  7  9 15 21
  -3760498.87200  22964366.39400  -2587906.69540  22964366.48740
   -820591.59500  21973947.95600   -596281.28240  21973948.44840
  -4104195.52400  22722619.45600  -2992860.60540  22722620.41740
  -2449045.44800  22363623.24500  -1802995.86740  22363622.90540
  -2906963.43200  20913956.80000  -2138989.41640  20913956.95240
   -221211.83800  22076865.70600   -154841.30940  22076865.76540
 94  6 23 17 13 29.9990000  0  6  1  2  7  9 15 21
  -3831043.57800  22950942.41700  -2642876.57440  22950942.99140
   -832265.99400  21971726.51100   -605378.22240  21971727.10840
  -4182086.02100  22707797.19800  -3053554.48340  22707798.48740
  -2492639.53400  22355327.77600  -1836965.28040  22355327.41340
  -2959569.61000  20903946.55000  -2179981.23040  20903946.67940
   -221360.69500  22076837.50300   -154957.35240  22076837.76140
 94  6 23 17 13 44.9990000  0  6  1  2  7  9 15 21
  -3901469.01500  22937541.02600  -2697753.47940  22937541.71840
   -843798.91600  21969531.63600   -614364.93340  21969532.04640
  -4259884.34300  22692993.12000  -3114176.57540  22692994.60840
  -2536064.65200  22347064.18300  -1870803.03540  22347064.08940
  -3012017.22300  20893965.94000  -2220849.48440  20893966.03440
   -221368.14700  22076836.10500   -154963.19740  22076836.83140
 94  6 23 17 13 59.9990000  0  6  1  2  7  9 15 21
  -3971771.74600  22924163.01100  -2752534.77040  22924163.57340
   -855189.94400  21967363.85500   -623241.07540  21967364.38240
  -4337593.38900  22678205.20600  -3174729.09340  22678206.53040
  -2579319.91500  22338832.87800  -1904508.42740  22338832.81940
  -3064304.68800  20884015.97200  -2261592.94840  20884016.06540
   -221233.10600  22076861.84700   -154858.04440  22076862.31540
 94  6 23 17 14 14.9990000  0  6  1  2  7  9 15 21
  -4041955.72300  22910807.03400  -2807223.58440  22910807.79640
   -866438.64600  21965223.41700   -632006.30440  21965223.72240
  -4415212.37600  22663435.08900  -3235211.39440  22663436.23740
  -2622402.48600  22330634.50300  -1938079.26440  22330634.35140
  -3116431.26700  20874096.66700  -2302211.05040  20874096.81940
   -220955.84800  22076914.56500   -154642.04640  22076914.91740
 94  6 23 17 14 29.9990000  0  6  1  2  7  9 15 21
  -4112025.56800  22897473.87000  -2861823.46840  22897474.38640
   -877543.13800  21963110.48700   -640659.17140  21963111.01540
  -4492738.76600  22648682.82300  -3295621.55140  22648684.28840
  -2665313.79500  22322468.92500  -1971516.65540  22322468.76140
  -3168397.11000  20864207.78400  -2342703.90440  20864207.90140
   -220539.04400  22076993.90900   -154317.31540  22076994.27240
 94  6 23 17 14 44.9990000  0  6  1  2  7  9 15 21
  -4181982.83600  22884160.72200  -2916335.59340  22884161.14440
   -888503.41400  21961024.76900   -649199.66240  21961025.26140
  -4570172.72500  22633947.61200  -3355959.68640  22633948.81940
  -2708053.60800  22314335.59700  -2004820.40040  22314335.62040
  -3220202.23100  20854349.59700  -2383071.52040  20854349.72640
   -219982.66200  22077099.98000   -153883.80440  22077100.35540
 94  6 23 17 14 59.9990000  0  6  1  2  7  9 15 21
  -4251826.60500  22870870.17500  -2970759.29640  22870870.67940
   -899324.25800  21958965.05800   -657631.50140  21958965.57340
  -4647518.95500  22619228.60500  -3416229.44740  22619229.92940
  -2750626.34900  22306234.17500  -2037993.95340  22306234.31540
  -3271849.71300  20844521.21400  -2423316.30340  20844521.47240
   -219288.99500  22077231.77600   -153343.31440  22077232.29240
 94  6 23 17 15 14.9990000  0  6  1  2  7  9 15 21
  -4321554.52700  22857601.23000  -3025092.73440  22857601.39440
   -910001.97700  21956933.57300   -665951.81240  21956934.06540
  -4724777.38500  22604527.08100  -3476430.80540  22604528.03040
  -2793032.11100  22298164.73700  -2071037.40540  22298164.50340
  -3323337.39700  20834723.44800  -2463436.57340  20834723.75340
   -218457.63500  22077390.08900   -152695.54240  22077390.80440
 94  6 23 17 15 29.9990000  0  6  1  2  7  9 15 21
  -4391167.35400  22844354.67500  -3079336.50540  22844354.90940
   -920535.41800  21954929.38600   -674159.71340  21954929.98340
  -4801948.47700  22589842.02600  -3536564.08440  22589843.25740
  -2835274.76500  22290126.21400  -2103953.75540  22290125.99140
  -3374664.92200  20824956.26900  -2503432.04040  20824956.53840
   -217491.01300  22077574.37800   -151942.35140  22077574.63640
 94  6 23 17 15 44.9990000  0  6  1  2  7  9 15 21
  -4460663.72700  22831129.73700  -3133489.50940  22831129.99540
   -930924.16100  21952952.46400   -682254.85140  21952952.92140
  -4879034.10400  22575172.47200  -3596630.77540  22575173.71440
  -2877355.99700  22282118.58100  -2136744.32240  22282118.48740
  -3425833.47900  20815219.35500  -2543303.64240  20815219.50740
   -216392.15900  22077783.33100   -151086.10540  22077783.67140
 94  6 23 17 15 59.9990000  0  6  1  2  7  9 15 21
  -4530045.26900  22817926.55800  -3187553.02040  22817926.86240
   -941164.92200  21951003.57300   -690234.68640  21951004.15940
  -4956035.60500  22560519.65900  -3656631.93940  22560521.23040
  -2919277.23500  22274141.07300  -2169410.21540  22274141.27240
  -3476843.01100  20805512.58100  -2583051.32040  20805512.68740
   -215162.95300  22078017.22200   -150128.30540  22078018.03040
 94  6 23 17 16 14.9990000  0  6  1  2  7  9 15 21
  -4599314.32400  22804745.35500  -3241528.88340  22804745.56540
   -951256.55300  21949083.23700   -698098.30840  21949083.95240
  -5032949.91200  22545883.47200  -3716565.14740  22545884.46840
  -2961039.77800  22266194.19000  -2201952.45540  22266194.27240
  -3527694.49100  20795835.78400  -2622675.84040  20795835.90140
   -213805.98100  22078275.45600   -149070.99940  22078275.99540
 94  6 23 17 16 29.9990000  0  6  1  2  7  9 15 21
  -4668467.78100  22791585.85500  -3295414.65440  22791586.27640
   -961196.33000  21947191.97200   -705843.60440  21947192.52240
  -5109771.32300  22531264.72200  -3776425.96240  22531265.91740
  -3002641.93100  22258277.05000  -2234369.72240  22258277.07340
  -3578385.28400  20786189.70600  -2662175.15340  20786189.82340
   -212316.89700  22078558.69000   -147910.70140  22078559.37040
 94  6 23 17 16 44.9990000  0  6  1  2  7  9 15 21
  -4737505.84000  22778448.19000  -3349210.55140  22778448.48340
   -970987.42400  21945328.38600   -713473.04640  21945328.96040
  -5186503.04800  22516663.36200  -3836216.89640  22516664.48740
  -3044087.09300  22250390.40900  -2266664.65340  22250390.53840
  -3628915.94400  20776573.79200  -2701549.68640  20776573.90940
   -210694.74200  22078867.60500   -146646.69640  22078868.05040
 94  6 23 17 16 59.9990000  0  6  1  2  7  9 15 21
  -4806423.35900  22765334.10500  -3402912.55840  22765334.30440
   -980628.43900  21943493.89400   -720985.53040  21943494.25740
  -5263144.89300  22502078.63600  -3895937.78940  22502079.72640
  -3085374.53600  22242533.78400  -2298836.67940  22242533.81940
  -3679285.05100  20766988.76900  -2740798.33540  20766988.99140
   -208935.94900  22079202.45600   -145276.14540  22079203.03040
 94  6 23 17 17 14.9990000  0  6  1  2  7  9 15 21
  -4875224.33700  22752241.79200  -3456523.73240  22752241.82740
   -990118.25300  21941687.75300   -728380.19540  21941688.08140
  -5339696.29200  22487511.47200  -3955588.20540  22487512.42140
  -3126506.24400  22234707.34700  -2330887.35040  22234707.23040
  -3729494.29100  20757434.34700  -2779922.41340  20757434.52240
   -207044.09300  22079562.24500   -143801.99240  22079562.62040
 94  6 23 17 17 29.9990000  0  6  1  2  7  9 15 21
  -4943911.98300  22739170.65100  -3510046.56940  22739170.59340
   -999455.59100  21939911.19800   -735656.04940  21939911.70240
  -5416155.94600  22472961.90100  -4015167.13340  22472962.96840
  -3167481.22500  22226909.59700  -2362815.90440  22226909.56240
  -3779544.22500  20747910.06500  -2818922.35240  20747910.33540
   -205021.55200  22079946.83900   -142225.95840  22079947.20240
 94  6 23 17 17 44.9990000  0  6  1  2  7  9 15 21
  -5012483.90500  22726121.89400  -3563479.17140  22726121.82340
  -1008640.42500  21938163.43300   -742813.06740  21938164.01940
  -5492520.43900  22458430.30800  -4074671.90940  22458431.37440
  -3208297.91200  22219142.06500  -2394621.10640  22219142.27640
  -3829432.93700  20738416.82300  -2857796.67140  20738417.09340
   -202866.43500  22080357.17500   -140546.54740  22080357.66740
 94  6 23 17 17 59.9990000  0  6  1  2  7  9 15 21
  -5080941.53700  22713094.84700  -3616822.73540  22713094.91740
  -1017677.89500  21936443.60500   -749855.26040  21936444.40140
  -5568789.33300  22443917.01100  -4134102.18640  22443918.20640
  -3248956.74400  22211405.13600  -2426303.30740  22211405.13640
  -3879161.58000  20728953.83900  -2896546.26140  20728954.00340
   -200577.78300  22080792.50300   -138763.13940  22080793.11240
 94  6 23 17 18 14.9990000  0  6  1  2  7  9 15 21
  -5149285.41300  22700089.04200  -3670077.64540  22700089.46440
  -1026567.73100  21934751.80800   -756782.41440  21934752.51140
  -5644959.46600  22429421.73700  -4193455.51940  22429423.13240
  -3289458.05400  22203698.33100  -2457862.77340  22203698.31940
  -3928728.91000  20719521.50300  -2935170.14740  20719521.69040
   -198154.19300  22081253.54200   -136874.58940  22081254.05840
 94  6 23 17 18 29.9990000  0  6  1  2  7  9 15 21
  -5217512.90600  22687106.15900  -3723241.87440  22687106.17140
  -1035312.52600  21933087.65900   -763596.54440  21933088.48040
  -5721032.21600  22414945.51100  -4252732.94140  22414946.62440
  -3329801.79200  22196020.98700  -2489299.44640  22196020.88240
  -3978135.80400  20710119.64400  -2973669.03040  20710119.80840
   -195597.13500  22081740.15900   -134882.04740  22081740.94440
 94  6 23 17 18 44.9980000  0  6  1  2  7  9 15 21
  -5285616.69600  22674146.13900  -3776309.69040  22674145.92840
  -1043910.95200  21931451.56800   -770296.61640  21931452.50640
  -5797003.71100  22400488.50600  -4311931.47040  22400489.50240
  -3369984.64600  22188374.60000  -2520610.75640  22188374.62340
  -4027377.47500  20700749.50600  -3012039.15440  20700749.49440
   -192905.65000  22082252.86500   -132784.82140  22082253.52240
 94  6 23 17 18 59.9980000  0  6  1  2  7  9 15 21
  -5353604.38800  22661208.75600  -3829287.06240  22661209.03740
  -1052365.05800  21929842.81100   -776884.23240  21929843.65440
  -5872883.40600  22386049.39700  -4371058.48140  22386050.83840
  -3410011.98300  22180757.20100  -2551800.88540  22180756.93240
  -4076461.55700  20691408.78700  -3050286.48140  20691408.86940
   -190083.22400  22082789.63900   -130585.61240  22082790.43640
 94  6 23 17 19 14.9980000  0  6  1  2  7  9 15 21
  -5421473.59600  22648293.13100  -3882172.08740  22648293.28340
  -1060674.54400  21928261.01400   -783359.16640  21928262.04540
  -5948665.49400  22371628.28700  -4430109.42140  22371629.43640
  -3449881.97200  22173170.28700  -2582868.40840  22173170.18240
  -4125386.20800  20682098.86500  -3088409.58140  20682098.90040
   -187133.27700  22083351.22500   -128287.02040  22083351.82240
 94  6 23 17 19 29.9980000  0  6  1  2  7  9 15 21
  -5489229.91200  22635399.73200  -3934969.18840  22635399.76840
  -1068843.23100  21926707.01400   -789724.37540  21926707.77540
  -6024351.26000  22357225.74800  -4489085.32940  22357226.93240
  -3489596.85900  22165613.11500  -2613815.07140  22165613.11540
  -4174153.07600  20672819.02200  -3126409.73240  20672819.10440
   -184058.52600  22083936.49800   -125891.16840  22083936.79140
 94  6 23 17 19 44.9980000  0  6  1  2  7  9 15 21
  -5556867.65800  22622528.55300  -3987673.90940  22622528.70540
  -1076870.92100  21925179.88100   -795979.73040  21925180.63140
  -6099939.43100  22342842.02900  -4547985.19140  22342843.15440
  -3529157.92000  22158084.63100  -2644641.87340  22158084.64340
  -4222759.84300  20663569.16200  -3164285.13040  20663569.19740
   -180856.76400  22084545.52200   -123396.34240  22084545.72140
 94  6 23 17 19 59.9980000  0  6  1  2  7  9 15 21
  -5624384.87700  22609680.52200  -4040284.69440  22609681.07240
  -1084759.42100  21923678.53700   -802126.62340  21923679.24040
  -6175427.96200  22328477.36500  -4606807.41540  22328478.42040
  -3568564.27600  22150585.94300  -2675348.12840  22150585.73240
  -4271205.64100  20654350.31800  -3202035.10940  20654350.33040
   -177524.28000  22085179.77900   -120799.59140  22085180.47140
 94  6 23 17 20 14.9980000  0  6  1  2  7  9 15 21
  -5691785.24900  22596854.81800  -4092804.43540  22596855.41640
  -1092509.92400  21922203.29500   -808165.99540  21922204.37340
  -6250819.85000  22314130.36500  -4665554.32540  22314131.45540
  -3607819.05700  22143116.02900  -2705936.26840  22143116.02940
  -4319494.03500  20645161.19300  -3239662.42240  20645161.32240
   -174064.01800  22085838.25600   -118103.27440  22085838.87740
 94  6 23 17 20 29.9980000  0  6  1  2  7  9 15 21
  -5759064.67000  22584051.49800  -4145229.94740  22584051.73240
  -1100119.57800  21920755.63100   -814095.59840  21920756.41640
  -6326114.31100  22299802.55300  -4724225.31640  22299803.54940
  -3646919.94400  22135675.69300  -2736404.47640  22135675.81140
  -4367623.60300  20636002.47500  -3277165.98840  20636002.55740
   -170474.82200  22086521.08400   -115306.48440  22086521.62340
 94  6 23 17 20 44.9980000  0  6  1  2  7  9 15 21
  -5826218.24100  22571272.78700  -4197557.39240  22571273.22140
  -1107588.07900  21919334.43600   -819915.21740  21919335.26840
  -6401307.48200  22285493.85700  -4782817.40940  22285494.65440
  -3685865.36900  22128264.26400  -2766751.55340  22128264.11140
  -4415592.67500  20626874.28700  -3314544.49040  20626874.39340
   -166754.69600  22087228.94300   -112407.65340  22087229.61140
 94  6 23 17 20 59.9980000  0  6  1  2  7  9 15 21
  -5893245.42400  22558517.92000  -4249786.35940  22558518.57640
  -1114914.65100  21917940.11500   -825624.24940  21917940.67840
  -6476397.03500  22271204.55300  -4841328.72840  22271205.50240
  -3724653.25600  22120882.89700  -2796975.87940  22120882.67440
  -4463399.65000  20617776.73200  -3351796.67340  20617776.77940
   -162902.24200  22087962.35700   -109405.74940  22087962.76840
 94  6 23 17 21 14.9980000  0  6  1  2  7  9 15 21
  -5960151.73900  22545785.89700  -4301921.12540  22545786.02540
  -1122101.47700  21916572.71700   -831224.38140  21916573.40840
  -6551385.24300  22256934.60700  -4899761.08240  22256935.48640
  -3763283.61900  22113532.29500  -2827077.44840  22113532.10740
  -4511046.33600  20608710.06100  -3388923.96340  20608710.15440
   -158920.96700  22088719.60000   -106303.45240  22088720.17440
 94  6 23 17 21 29.9980000  0  6  1  2  7  9 15 21
  -6026938.82300  22533076.66200  -4353962.96440  22533076.93240
  -1129150.25000  21915231.30300   -836716.93240  21915232.28740
  -6626273.90900  22242683.72500  -4958115.86740  22242684.69740
  -3801756.20700  22106211.08400  -2857056.07840  22106211.18940
  -4558532.52900  20599673.88900  -3425926.19140  20599673.90040
   -154811.26600  22089501.87300   -103101.08240  22089502.64740
 94  6 23 17 21 44.9980000  0  6  1  2  7  9 15 21
  -6093603.10500  22520391.28700  -4405909.17740  22520391.83840
  -1136063.69600  21913915.94300   -842104.04840  21913916.63540
  -6701063.70200  22228451.55300  -5016393.60340  22228452.65440
  -3840072.59600  22098919.49800  -2886913.00840  22098919.34640
  -4605859.83700  20590667.66200  -3462804.62240  20590667.66240
   -150575.16900  22090307.83400    -99800.22440  22090308.76040
 94  6 23 17 21 59.9980000  0  6  1  2  7  9 15 21
  -6160130.72900  22507731.06100  -4457748.85140  22507731.14340
  -1142830.42100  21912628.08400   -847376.82740  21912628.65840
  -6775741.98300  22214240.90400  -5074584.45740  22214241.77240
  -3878218.32400  22091660.35700  -2916636.94540  22091660.19340
  -4653016.39600  20581694.15400  -3499549.99840  20581694.04940
   -146199.20200  22091140.96700    -96390.37240  22091141.41240
 94  6 23 17 22 14.9980000  0  6  1  2  7  9 15 21
  -6226532.38700  22495095.24800  -4509490.37540  22495095.49440
  -1149460.32500  21911366.23200   -852542.99440  21911367.04140
  -6850318.41700  22200049.74000  -5132695.94840  22200050.60740
  -3916198.47900  22084433.27900  -2946231.85740  22084433.17440
  -4700012.33800  20572751.00600  -3536170.21240  20572751.11140
   -141694.23500  22091998.00600    -92879.99940  22091998.33440
 94  6 23 17 22 29.9980000  0  6  1  2  7  9 15 21
  -6292809.42300  22482483.41200  -4561134.81140  22482483.67040
  -1155955.10300  21910130.23200   -857603.86540  21910131.07640
  -6924796.31900  22185876.99000  -5190730.64940  22185877.92840
  -3954015.05000  22077237.21700  -2975699.29740  22077237.12340
  -4746849.58700  20563838.19300  -3572666.77440  20563838.19340
   -137066.17400  22092878.74000    -89273.69140  22092879.38540
 94  6 23 17 22 44.9980000  0  6  1  2  7  9 15 21
  -6358960.94200  22469895.26400  -4612681.43140  22469895.54540
  -1162314.21300  21908920.49000   -862559.03240  21908921.22940
  -6999174.35100  22171723.49000  -5248687.54340  22171724.32240
  -3991666.26000  22070072.12300  -3005037.90040  22070072.19340
  -4793526.12200  20554955.77900  -3609038.09240  20554955.94340
   -132315.41900  22093782.84200    -85571.78140  22093783.48640
 94  6 23 17 22 59.9980000  0  6  1  2  7  9 15 21
  -6424990.30600  22457329.87300  -4664132.88740  22457330.22540
  -1168535.39600  21907736.53700   -867406.71540  21907737.46340
  -7073452.10300  22157588.95100  -5306566.30640  22157589.81840
  -4029151.76400  22062938.65400  -3034247.38240  22062938.68940
  -4840041.19600  20546104.49800  -3645283.58840  20546104.49840
   -127443.07600  22094709.75600    -81775.14740  22094710.27240
 94  6 23 17 23 14.9980000  0  6  1  2  7  9 15 21
  -6490903.66400  22444787.21700  -4715493.95940  22444787.35740
  -1174619.23700  21906579.11500   -872147.38040  21906580.12340
  -7147632.71000  22143472.82600  -5364369.35040  22143473.64740
  -4066473.48400  22055837.02900  -3063329.23340  22055837.04140
  -4886396.85800  20537283.33400  -3681404.87840  20537283.39340
   -122450.70400  22095659.97500    -77884.96940  22095660.16240
 94  6 23 17 23 29.9980000  0  6  1  2  7  9 15 21
  -6556696.19900  22432267.69300  -4766760.89140  22432267.91640
  -1180560.31800  21905448.33400   -876776.79540  21905449.27240
  -7221710.52400  22129376.45100  -5422092.31240  22129377.09640
  -4103628.54800  22048766.74000  -3092281.23240  22048766.69340
  -4932588.54500  20528493.14700  -3717398.39440  20528493.24040
   -117332.20500  22096633.88900    -73896.49440  22096634.58040
 94  6 23 17 23 44.9980000  0  6  1  2  7  9 15 21
  -6622365.66400  22419770.83400  -4817931.93040  22419771.15040
  -1186360.90800  21904343.99800   -881296.75240  21904345.06440
  -7295685.11000  22115299.25600  -5479734.84740  22115300.07640
  -4140621.71500  22041726.79500  -3121107.08340  22041726.80740
  -4978618.29300  20519734.29500  -3753265.72540  20519734.42440
   -112087.44900  22097631.91200    -69809.65840  22097632.33440
 94  6 23 17 23 59.9980000  0  6  1  2  7  9 15 21
  -6687913.43600  22407297.84200  -4869008.11740  22407297.98240
  -1192019.49100  21903267.97500   -885706.03440  21903268.79540
  -7369555.07600  22101242.23200  -5537295.83540  22101243.17040
  -4177454.37600  22034718.06800  -3149807.85240  22034718.09240
  -5024486.11800  20511005.65400  -3789006.87740  20511005.77240
   -106716.36300  22098654.16200    -65624.37940  22098654.77240
 94  6 23 17 24 14.9980000  0  6  1  2  7  9 15 21
  -6753341.22800  22394846.72500  -4919990.81440  22394847.05340
  -1197535.45100  21902217.69300   -890004.19240  21902218.37340
  -7443322.49900  22087204.45100  -5594776.93540  22087205.30740
  -4214125.58200  22027739.88900  -3178382.82740  22027739.83040
  -5070191.54900  20502308.41200  -3824621.50840  20502308.54140
   -101222.20400  22099699.47500    -61343.19840  22099700.04940
 94  6 23 17 24 29.9980000  0  6  1  2  7  9 15 21
  -6818652.97200  22382418.88900  -4970883.09240  22382419.07640
  -1202910.52000  21901194.98200   -894192.56440  21901195.99040
  -7516991.70000  22073185.55300  -5652181.49140  22073186.50240
  -4250640.34800  22020791.35000  -3206835.90140  22020790.99840
  -5115736.57800  20493641.59200  -3860111.15140  20493641.72140
    -95610.01200  22100767.27900    -56970.06340  22100767.79540
 94  6 23 17 24 44.9980000  0  6  1  2  7  9 15 21
  -6883847.99500  22370012.50600  -5021684.39940  22370013.02240
  -1208143.00900  21900199.60000   -898269.83940  21900200.44340
  -7590561.29700  22059185.82600  -5709508.42540  22059186.24840
  -4287000.89900  22013872.24800  -3235168.79240  22013872.18940
  -5161119.38900  20485005.37300  -3895474.38340  20485005.45540
    -89876.92200  22101858.42000    -52502.71840  22101858.99440
 94  6 23 17 24 59.9980000  0  6  1  2  7  9 15 21
  -6948921.36900  22357629.46700  -5072390.92740  22357630.07640
  -1213231.10500  21899231.14700   -902234.59640  21899231.96740
  -7664029.87200  22045205.42800  -5766756.65040  22045206.26040
  -4323207.20800  22006982.42800  -3263381.49740  22006982.28740
  -5206339.11600  20476400.34200  -3930710.55140  20476400.49440
    -84021.71700  22102972.38900    -47940.22240  22102972.85740
 94  6 23 17 25 14.9980000  0  6  1  2  7  9 15 21
  -7013870.78400  22345270.27900  -5123000.86840  22345270.54940
  -1218177.54200  21898290.07600   -906088.97540  21898290.89740
  -7737399.29400  22031244.05300  -5823927.59740  22031244.79140
  -4359260.21700  22000121.99800  -3291474.74940  22000121.50640
  -5251396.52800  20467826.33400  -3965820.25040  20467826.46340
    -78046.22500  22104109.85700    -43283.99640  22104110.17440
 94  6 23 17 25 29.9980000  0  6  1  2  7  9 15 21
  -7078690.35800  22332935.16200  -5173509.61140  22332935.50240
  -1222985.56100  21897375.59200   -909835.49340  21897376.33040
  -7810666.13000  22017301.63900  -5881018.62340  22017302.28340
  -4395159.66500  21993290.34200  -3319448.33840  21993289.93240
  -5296291.03800  20459282.99000  -4000803.00140  20459283.00240
    -71952.24100  22105269.57600    -38535.44540  22105269.83440
 94  6 23 17 25 44.9980000  0  6  1  2  7  9 15 21
  -7143369.75900  22320627.29500  -5223909.11540  22320627.61140
  -1227651.28100  21896487.47500   -913471.13540  21896487.97940
  -7883823.98600  22003380.37300  -5938024.74940  22003381.07640
  -4430898.70800  21986488.99800  -3347296.94040  21986488.62340
  -5341016.11100  20450772.20900  -4035653.72440  20450772.35040
    -65736.42100  22106452.46700    -33691.95540  22106452.64340
 94  6 23 17 25 59.9980000  0  6  1  2  7  9 15 21
  -7207915.31800  22308344.60000  -5274204.30940  22308344.91640
  -1232183.69400  21895625.11500   -917002.89240  21895626.06440
  -7956880.37400  21989477.96700  -5994951.77540  21989478.56440
  -4466485.06700  21979717.70100  -3375026.57740  21979717.50240
  -5385578.66600  20442292.31100  -4070377.79840  20442292.49840
    -59407.30300  22107656.60000    -28760.16340  22107656.82240
 94  6 23 17 26 14.9980000  0  6  1  2  7  9 15 21
  -7272329.76200  22296086.60700  -5324397.34640  22296087.10040
  -1236583.91900  21894787.61500   -920431.65140  21894788.35440
  -8029838.99400  21975594.41200  -6051802.60440  21975594.88140
  -4501917.25600  21972974.91200  -3402636.06640  21972974.86540
  -5429979.68900  20433843.27200  -4104975.99940  20433843.30740
    -52966.84000  22108882.39700    -23741.64040  22108882.84240
 94  6 23 17 26 29.9980000  0  6  1  2  7  9 15 21
  -7336611.27100  22283854.74800  -5374486.80440  22283855.24040
  -1240853.25900  21893975.02200   -923758.41840  21893975.51440
  -8102698.00900  21961729.70100  -6108575.84040  21961730.35740
  -4537192.91100  21966261.82600  -3430123.58240  21966261.60440
  -5474217.36100  20425424.87300  -4139446.93840  20425425.13140
    -46411.17400  22110129.74800    -18633.36440  22110130.22940
 94  6 23 17 26 44.9980000  0  6  1  2  7  9 15 21
  -7400759.98600  22271647.30300  -5424472.78640  22271647.50240
  -1244991.94500  21893187.48200   -926983.38040  21893188.15040
  -8175453.25100  21947884.81100  -6165268.22940  21947885.44340
  -4572313.07300  21959578.81800  -3457489.93040  21959578.46740
  -5518292.34900  20417037.67800  -4173791.08840  20417037.81840
    -39735.68600  22111400.00600    -13431.69340  22111400.61540
 94  6 23 17 26 59.9980000  0  6  1  2  7  9 15 21
  -7464772.36800  22259465.96700  -5474352.53140  22259466.15440
  -1249000.85400  21892424.85000   -930107.21240  21892425.16640
  -8248102.81000  21934060.33400  -6221878.26540  21934060.87340
  -4607275.60300  21952925.99000  -3484733.45640  21952925.82640
  -5562205.16600  20408681.29500  -4208008.84840  20408681.50640
    -32939.38000  22112693.70100     -8135.87140  22112694.36940
 94  6 23 17 27 14.9980000  0  6  1  2  7  9 15 21
  -7528650.09900  22247311.09200  -5524127.36740  22247311.01040
  -1252880.06500  21891686.48200   -933129.98540  21891687.15040
  -8320645.38300  21920255.68600  -6278404.95440  21920256.51840
  -4642079.97600  21946302.71700  -3511853.75440  21946302.41240
  -5605956.27000  20400355.92800  -4242100.62540  20400356.09240
    -26021.59800  22114009.95100     -2745.38640  22114010.45540
 94  6 23 17 27 29.9980000  0  6  1  2  7  9 15 21
  -7592400.63200  22235178.92800  -5573803.09940  22235179.23240
  -1256633.12800  21890971.69300   -936054.46340  21890972.29140
  -8393080.71900  21906471.56800  -6334848.05740  21906472.20140
  -4676728.63100  21939709.03700  -3538852.69940  21939708.92040
  -5649548.75000  20392060.49800  -4276068.79140  20392060.65040
    -18983.80300  22115348.70900      2738.63040  22115349.11940
 94  6 23 17 27 44.9980000  0  6  1  2  7  9 15 21
  -7656023.54900  22223072.27200  -5623379.37040  22223072.56440
  -1260256.44000  21890283.16200   -938877.82740  21890283.84240
  -8465404.71500  21892709.02200  -6391204.40640  21892709.60740
  -4711218.83500  21933146.31100  -3565728.18140  21933146.12340
  -5692979.56000  20383795.72500  -4309910.97440  20383795.86540
    -11818.22800  22116712.49000      8322.20640  22116712.88940
 94  6 23 17 27 59.9980000  0  6  1  2  7  9 15 21
  -7719521.25000  22210989.26400  -5672858.06040  22210989.20540
  -1263745.22500  21889619.56800   -941596.36740  21889620.21340
  -8537619.65700  21878966.89700  -6447475.76440  21878967.62340
  -4745549.65800  21926613.25600  -3592479.47340  21926613.09240
  -5736247.77200  20375562.12300  -4343626.46340  20375562.21740
     -4520.44300  22118101.27200     14008.78640  22118101.95140
 94  6 23 17 28 14.9980000  0  6  1  2  7  9 15 21
  -7782894.51000  22198929.91200  -5722239.80740  22198930.20540
  -1267095.40000  21888981.50600   -944206.89940  21888981.97540
  -8609725.17600  21865245.91200  -6503661.87040  21865246.51040
  -4779718.59800  21920111.02200  -3619104.61140  21920111.09240
  -5779351.85500  20367359.52200  -4377214.06140  20367359.72140
      2912.44700  22119515.92000     19800.61840  22119516.11940
 94  6 23 17 28 29.9980000  0  6  1  2  7  9 15 21
  -7846144.56500  22186893.34200  -5771525.55540  22186893.65840
  -1270307.14000  21888370.24000   -946709.56540  21888370.92040
  -8681722.62600  21851545.03700  -6559763.77240  21851546.02240
  -4813723.79800  21913640.24000  -3645602.17340  21913640.02940
  -5822293.39100  20359188.28700  -4410674.99340  20359188.49840
     10475.77500  22120955.05300     25694.09040  22120955.40440
 94  6 23 17 28 44.9980000  0  6  1  2  7  9 15 21
  -7909268.52400  22174881.66200  -5820713.05740  22174881.92040
  -1273381.69400  21887785.27900   -949105.32140  21887785.71340
  -8753609.46600  21837865.65400  -6615779.49340  21837866.18240
  -4847565.56000  21907200.15400  -3671972.39040  21907200.01440
  -5865072.33700  20351047.76400  -4444009.23840  20351047.92840
     18168.18700  22122419.17000     31688.16040  22122419.61540
 94  6 23 17 28 59.9980000  0  6  1  2  7  9 15 21
  -7972262.72200  22162893.86500  -5869799.42240  22162894.17040
  -1276316.38700  21887226.68600   -951392.08740  21887227.64740
  -8825386.04800  21824207.14700  -6671709.28540  21824207.77940
  -4881242.39500  21900791.97500  -3698214.07040  21900791.92840
  -5907687.02400  20342938.30300  -4477215.48840  20342938.43240
     25987.16100  22123906.70100     37780.85140  22123906.93640
 94  6 23 17 29 14.9980000  0  6  1  2  7  9 15 21
  -8035127.68900  22150931.18600  -5918785.08740  22150931.25640
  -1279116.01000  21886694.06800   -953573.63240  21886695.14740
  -8897056.61100  21810568.17000  -6727556.46540  21810568.87340
  -4914757.39100  21894414.23200  -3724329.65140  21894414.16240
  -5950138.04300  20334860.19300  -4510294.20440  20334860.22940
     33926.36700  22125417.75600     43967.21040  22125418.15440
 94  6 23 17 29 29.9980000  0  6  1  2  7  9 15 21
  -8097861.32600  22138993.07600  -5967668.40340  22138993.38140
  -1281778.03700  21886187.81800   -955647.94140  21886188.45140
  -8968619.66200  21796950.29500  -6783319.87640  21796950.96340
  -4948107.35900  21888067.78700  -3750316.63540  21888067.79940
  -5992421.28600  20326813.97500  -4543242.18440  20326814.05740
     41986.76400  22126951.36500     50248.03640  22126951.76440
 94  6 23 17 29 44.9980000  0  6  1  2  7  9 15 21
  -8160467.84000  22127079.89700  -6016452.66140  22127080.09640
  -1284309.78800  21885705.28700   -957620.73940  21885705.93240
  -9040083.56300  21783351.40400  -6839006.02540  21783352.18940
  -4981299.40400  21881751.56100  -3776180.56340  21881751.56140
  -6034542.16500  20318798.58400  -4576063.66340  20318798.78340
     50157.51400  22128506.47500     56614.84540  22128507.23640
 94  6 23 17 29 59.9980000  0  6  1  2  7  9 15 21
  -8222945.30800  22115190.38900  -6065136.34940  22115190.78740
  -1286710.03900  21885248.74800   -959491.06540  21885249.42840
  -9111453.78400  21769769.72500  -6894619.16840  21769770.08840
  -5014334.32000  21875465.09200  -3801922.05140  21875464.89340
  -6076500.32800  20310814.38900  -4608758.34740  20310814.47140
     58436.54900  22130081.85000     63066.04140  22130082.55340
 94  6 23 17 30 14.9980000  0  6  1  2  7  9 15 21
  -8285294.17600  22103325.70100  -6113719.83740  22103326.18240
  -1288975.86100  21884818.06100   -961256.64840  21884818.91640
  -9182726.47500  21756207.21700  -6950156.32040  21756207.90840
  -5047208.09100  21869209.49800  -3827537.97440  21869209.38140
  -6118293.54000  20302861.42800  -4641324.50740  20302861.48640
     66820.41200  22131677.42000     69598.92940  22131677.78340
 94  6 23 17 30 29.9980000  0  6  1  2  7  9 15 21
  -8347511.70800  22091486.24000  -6162200.98940  22091486.77940
  -1291109.53600  21884412.29500   -962919.26140  21884412.91640
  -9253898.42000  21742663.35700  -7005614.97640  21742663.87340
  -5079919.36200  21862984.56100  -3853027.27740  21862984.83040
  -6159921.04200  20294939.56800  -4673761.54040  20294939.59240
     75307.34900  22133291.90400     76212.11840  22133292.39740
 94  6 23 17 30 44.9980000  0  6  1  2  7  9 15 21
  -8409597.02800  22079671.48200  -6210579.09940  22079672.02240
  -1293116.25800  21884030.19300   -964482.94440  21884030.87340
  -9324968.22300  21729139.24000  -7060994.02640  21729139.77940
  -5112473.05700  21856789.88100  -3878393.78640  21856790.10440
  -6201383.88700  20287049.81100  -4706070.26140  20287049.83440
     83897.09800  22134927.02200     82905.40740  22134927.31440
 94  6 23 17 30 59.9970000  0  6  1  2  7  9 15 21
  -8471547.58000  22067882.86000  -6258852.22140  22067883.21240
  -1294995.97900  21883672.23500   -965947.66240  21883672.83340
  -9395929.55400  21715635.70400  -7116288.54840  21715636.56040
  -5144869.88700  21850625.14200  -3903638.06040  21850625.13040
  -6242678.66100  20279191.35300  -4738248.01940  20279191.41140
     92593.44300  22136581.61000     89681.74940  22136582.07940
 94  6 23 17 31 14.9970000  0  6  1  2  7  9 15 21
  -8533375.93800  22056117.03200  -6307030.12440  22056117.31440
  -1296747.87500  21883339.34500   -967312.78240  21883339.90740
  -9466792.63200  21702150.75900  -7171506.51140  21702151.33340
  -5177116.15100  21844488.59500  -3928765.01540  21844488.66540
  -6283811.68900  20271364.25100  -4770299.74340  20271364.22840
    101397.23800  22138256.82900     96541.82540  22138257.41540
 94  6 23 17 31 29.9970000  0  6  1  2  7  9 15 21
  -8595076.19900  22044376.18100  -6355108.22740  22044376.36840
  -1298367.28400  21883030.75900   -968574.66240  21883031.43940
  -9537547.21000  21688686.61000  -7226639.94740  21688687.33740
  -5209205.39200  21838382.39200  -3953769.61140  21838382.54440
  -6324776.64900  20263568.80600  -4802220.50640  20263568.98140
    110314.20300  22139953.75100    103490.10040  22139954.23140
 94  6 23 17 31 44.9970000  0  6  1  2  7  9 15 21
  -8656651.34500  22032658.72000  -6403088.83140  22032659.03640
  -1299851.75500  21882748.20400   -969731.38840  21882748.97840
  -9608190.72400  21675243.54800  -7281686.83440  21675244.14640
  -5241137.84300  21832305.61000  -3978652.04040  21832305.66940
  -6365576.13400  20255805.00900  -4834012.31240  20255805.09140
    119343.64500  22141672.35300    110525.98740  22141672.70440
 94  6 23 17 31 59.9970000  0  6  1  2  7  9 15 21
  -8718102.73700  22020965.01700  -6450973.01540  22020965.20440
  -1301202.42900  21882491.48500   -970783.86440  21882492.42340
  -9678719.39200  21661822.58700  -7336644.19940  21661823.25540
  -5272911.02400  21826259.72000  -4003410.36240  21826259.60340
  -6406210.83500  20248072.62600  -4865675.71040  20248072.61440
    128487.24700  22143412.09500    117650.85040  22143412.73940
 94  6 23 17 32 14.9970000  0  6  1  2  7  9 15 21
  -8779425.04900  22009295.64900  -6498756.62040  22009295.86040
  -1302415.42800  21882260.42300   -971729.05940  21882261.14940
  -9749124.11200  21648425.21200  -7391505.00240  21648425.81040
  -5304518.16700  21820244.86000  -4028039.29740  21820244.77840
  -6446676.86500  20240372.04800  -4897207.67540  20240372.00140
    137752.41600  22145175.05600    124870.45240  22145175.75940
 94  6 23 17 32 29.9970000  0  6  1  2  7  9 15 21
  -8840611.92600  21997652.17300  -6546434.69340  21997652.43140
  -1303490.84800  21882056.08700   -972567.05340  21882056.82540
  -9819398.70800  21635052.67300  -7446264.44840  21635053.06040
  -5335957.16700  21814262.24300  -4052537.21340  21814262.27840
  -6486971.97800  20232704.02400  -4928606.47740  20232704.09540
    147141.53600  22146962.04000    132186.63340  22146962.73140
 94  6 23 17 32 44.9970000  0  6  1  2  7  9 15 21
  -8901666.01500  21986034.11800  -6594009.30840  21986034.32940
  -1304435.51900  21881875.68900   -973303.17040  21881876.55640
  -9889548.33700  21621703.16500  -7500926.47140  21621703.41140
  -5367236.52500  21808309.80600  -4076910.73340  21808309.52440
  -6527101.48800  20225067.50900  -4959876.22240  20225067.62640
    156650.26200  22148771.42300    139596.01740  22148772.07940
 94  6 23 17 32 59.9970000  0  6  1  2  7  9 15 21
  -8962593.66600  21974440.07900  -6641485.40540  21974440.29040
  -1305252.87300  21881719.79800   -973940.07140  21881720.45440
  -9959578.21300  21608376.91500  -7555495.18240  21608377.31440
  -5398361.43000  21802386.91500  -4101163.90440  21802386.76340
  -6567070.61300  20217461.78200  -4991021.00440  20217461.78240
    166273.09200  22150602.34500    147094.31040  22150603.03640
 94  6 23 17 33 14.9970000  0  6  1  2  7  9 15 21
  -9023398.63900  21962869.28200  -6688865.90940  21962869.52840
  -1305945.97100  21881588.82900   -974480.14140  21881589.75540
 -10029495.26800  21595072.03200  -7609975.99440  21595072.52440
  -5429334.60800  21796492.98500  -4125298.84640  21796492.77440
  -6606885.12800  20209885.07100  -5022045.32140  20209885.08340
    176000.80000  22152454.06400    154674.32740  22152454.62640
 94  6 23 17 33 29.9970000  0  6  1  2  7  9 15 21
  -9084071.43600  21951323.54800  -6736143.40740  21951323.64240
  -1306510.77100  21881481.00900   -974920.25040  21881481.68940
 -10099293.97400  21581789.63400  -7664364.57340  21581790.13840
  -5460150.38100  21790628.97000  -4149311.13240  21790628.87640
  -6646539.42700  20202339.61800  -5052944.78640  20202339.66540
    185836.56700  22154325.18100    162338.55140  22154325.84940
 94  6 23 17 33 44.9970000  0  6  1  2  7  9 15 21
  -9144603.76300  21939804.74300  -6783311.46340  21939804.96640
  -1306942.44700  21881398.76700   -975256.62740  21881399.38840
 -10168969.96800  21568531.00900  -7718657.54940  21568531.61840
  -5490802.46600  21784796.21200  -4173195.86140  21784796.06040
  -6686028.20700  20194825.00900  -5083715.29340  20194824.99740
    195785.52900  22156218.39200    170090.95240  22156219.02440
 94  6 23 17 33 59.9970000  0  6  1  2  7  9 15 21
  -9204998.66300  21928311.89900  -6830372.42740  21928312.29840
  -1307249.03900  21881341.22800   -975495.53340  21881342.01340
 -10238530.54300  21555294.09500  -7772860.59440  21555294.70440
  -5521295.00100  21778993.40700  -4196956.28640  21778993.54840
  -6725356.30200  20187341.00900  -5114360.59340  20187340.95040
    205841.55400  22158132.22000    177926.80940  22158132.66540
 94  6 23 17 34 14.9970000  0  6  1  2  7  9 15 21
  -9265252.06400  21916845.85300  -6877323.13340  21916846.15740
  -1307430.55200  21881305.95400   -975636.98140  21881306.86840
 -10307976.58400  21542078.65700  -7826974.39440  21542079.30240
  -5551627.93500  21773221.53200  -4220592.33040  21773221.48540
  -6764520.88600  20179888.64200  -5144878.44740  20179888.58340
    216009.36600  22160067.04800    185849.77040  22160067.75140
 94  6 23 17 34 29.9970000  0  6  1  2  7  9 15 21
  -9325362.80600  21905407.16500  -6924162.67240  21905407.59940
  -1307488.34400  21881294.89900   -975682.01640  21881295.69640
 -10377312.25500  21528884.63400  -7881002.21740  21528885.47840
  -5581806.01200  21767478.74300  -4244107.70240  21767478.75540
  -6803523.23900  20172466.44600  -5175269.87940  20172466.49340
    226284.84100  22162022.54000    193856.62840  22162022.56440
 94  6 23 17 34 44.9970000  0  6  1  2  7  9 15 21
  -9385328.11700  21893996.39900  -6970888.89540  21893996.79840
  -1307418.96800  21881308.60300   -975627.96140  21881309.43540
 -10446536.05600  21515712.03200  -7934942.85040  21515712.91140
  -5611824.88000  21761766.42300  -4267499.03340  21761766.25940
  -6842358.05500  20165076.49300  -5205530.78440  20165076.57540
    236672.78500  22163999.09500    201951.13940  22163999.35340
 94  6 23 17 34 59.9970000  0  6  1  2  7  9 15 21
  -9445155.58000  21882611.34500  -7017507.70140  21882611.61440
  -1307231.84900  21881343.79800   -975482.17040  21881344.81740
 -10515657.60000  21502558.40700  -7988803.77340  21502559.06440
  -5641689.00100  21756083.18900  -4290769.77640  21756083.27140
  -6881032.57600  20157717.04800  -5235666.78240  20157717.10640
    247167.04000  22165996.32100    210128.46240  22165996.55640
 94  6 23 17 35 14.9970000  0  6  1  2  7  9 15 21
  -9504837.02400  21871254.82900  -7064012.70840  21871255.00540
  -1306919.14900  21881403.69600   -975238.51040  21881404.50540
 -10584670.81600  21489425.68100  -8042580.36940  21489426.52440
  -5671388.19400  21750431.47000  -4313911.99940  21750431.42340
  -6919538.17300  20150389.68100  -5265671.14340  20150389.64640
    257775.86000  22168015.00100    218395.04640  22168015.48140
 94  6 23 17 35 29.9970000  0  6  1  2  7  9 15 21
  -9564378.35900  21859923.91500  -7110408.53940  21859924.17340
  -1306490.13000  21881485.38400   -974904.22040  21881486.48540
 -10653583.22200  21476311.99300  -8096278.31340  21476312.57940
  -5700932.21600  21744810.01700  -4336933.32240  21744810.07540
  -6957881.80500  20143093.29000  -5295549.29140  20143093.71240
    268493.44500  22170054.47800    226746.37640  22170054.79440
 94  6 23 17 35 44.9970000  0  6  1  2  7  9 15 21
  -9623783.18200  21848619.64200  -7156697.99740  21848619.82940
  -1305943.30100  21881588.72000   -974478.12840  21881589.68140
 -10722393.49800  21463217.51700  -8149896.68040  21463218.11440
  -5730318.81300  21739217.52400  -4359831.95740  21739217.92340
  -6996062.23000  20135827.46200  -5325300.27640  20135827.53240
    279322.18000  22172115.31400    235184.28440  22172115.78240
 94  6 23 17 35 59.9970000  0  6  1  2  7  9 15 21
  -9683050.07000  21837341.61000  -7202879.99340  21837341.77440
  -1305276.14600  21881716.47000   -973958.27640  21881717.36040
 -10791098.43900  21450143.97800  -8203432.99240  21450144.41140
  -5759543.73300  21733656.51700  -4382604.62940  21733656.62240
  -7034075.41200  20128593.79800  -5354920.93540  20128593.82140
    290263.98800  22174197.71200    243710.35440  22174198.20440
 94  6 23 17 36 14.9970000  0  6  1  2  7  9 15 21
  -9742184.10600  21826088.64200  -7248958.45740  21826088.85340
  -1304493.11600  21881864.78200   -973348.12440  21881865.56740
 -10859700.00700  21437089.55600  -8256888.74040  21437090.03640
  -5788611.42200  21728125.32100  -4405254.78440  21728125.43940
  -7071924.73700  20121391.43100  -5384413.90840  20121391.46640
    301312.41100  22176299.86000    252319.50040  22176300.61040
 94  6 23 17 36 29.9970000  0  6  1  2  7  9 15 21
  -9801184.72600  21814861.22000  -7294932.93940  21814861.46640
  -1303590.01900  21882037.27400   -972644.42740  21882038.10640
 -10928197.70800  21424054.71200  -8310263.54940  21424055.18140
  -5817521.73600  21722623.44600  -4427782.30740  21722623.41140
  -7109608.64100  20114220.43100  -5413777.98140  20114220.56040
    312467.05700  22178422.24300    261011.41240  22178423.16940
 94  6 23 17 36 44.9970000  0  6  1  2  7  9 15 21
  -9860057.50700  21803658.43900  -7340807.82640  21803658.63840
  -1302570.45300  21882231.24300   -971849.97840  21882232.19240
 -10996594.18600  21411039.29000  -8363559.49340  21411039.63040
  -5846275.42000  21717151.95400  -4450187.78840  21717152.14240
  -7147130.74000  20107080.05600  -5443015.97340  20107079.99740
    323722.54600  22180563.95400    269781.90140  22180564.51740
 94  6 23 17 36 59.9970000  0  6  1  2  7  9 15 21
  -9918799.74600  21792479.97000  -7386580.99040  21792480.21640
  -1301430.90300  21882448.03200   -970962.02940  21882449.07540
 -11064884.91700  21398043.63400  -8416773.03040  21398044.11440
  -5874870.30900  21711710.13400  -4472469.52840  21711710.27440
  -7184488.38100  20099971.42300  -5472125.80640  20099971.27140
    335082.63600  22182725.98500    278633.92740  22182726.39640
 94  6 23 17 37 14.9970000  0  6  1  2  7  9 15 21
  -9977408.33800  21781327.19600  -7432249.99740  21781327.29040
  -1300163.32000  21882689.41500   -969974.30740  21882690.54040
 -11133063.69400  21385069.73500  -8469899.32240  21385070.36840
  -5903305.43100  21706299.49300  -4494626.77940  21706299.59940
  -7221678.25800  20092894.22000  -5501104.92640  20092894.19640
    346549.24500  22184908.11000    287568.94040  22184908.72040
 94  6 23 17 37 29.9970000  0  6  1  2  7  9 15 21
 -10035890.85000  21770198.34500  -7477820.77740  21770198.53240
  -1298770.17600  21882953.54000   -968888.76140  21882954.33740
 -11201131.51100  21372116.89900  -8522939.15740  21372117.52140
  -5931587.97700  21700917.11000  -4516665.12240  21700917.01740
  -7258704.97000  20085848.44600  -5529956.90340  20085848.35340
    358115.29600  22187108.83700    296581.41540  22187109.42340
 94  6 23 17 37 44.9970000  0  6  1  2  7  9 15 21
 -10094242.31600  21759094.09500  -7523289.45040  21759094.38840
  -1297243.76700  21883244.41500   -967699.36340  21883245.34140
 -11269079.10900  21359186.83700  -8575885.32440  21359187.61040
  -5959707.59600  21695566.24300  -4538576.51240  21695566.19640
  -7295560.98300  20078834.79800  -5558675.87940  20078834.81040
    369787.21400  22189330.14200    305676.39040  22189331.29040
 94  6 23 17 37 59.9970000  0  6  1  2  7  9 15 21
 -10152468.39700  21748014.30600  -7568660.42240  21748014.63440
  -1295590.44400  21883559.23500   -966411.08140  21883560.24340
 -11336912.55300  21346278.41500  -8628742.54040  21346278.86040
  -5987670.30000  21690245.50100  -4560365.63540  21690245.31440
  -7332253.28600  20071852.56400  -5587267.28840  20071852.47040
    381556.19500  22191569.81400    314847.01340  22191570.50540
 94  6 23 17 38 14.9970000  0  6  1  2  7  9 15 21
 -10210558.64400  21736959.76700  -7613925.54240  21736960.00140
  -1293802.63300  21883899.78200   -965017.99940  21883900.77840
 -11404622.24400  21333394.03200  -8681503.31840  21333394.58340
  -6015469.26200  21684955.56400  -4582027.15540  21684955.52840
  -7368774.50700  20064902.66500  -5615725.38640  20064902.56040
    393430.77100  22193829.39200    324099.91540  22193829.77840
 94  6 23 17 38 29.9970000  0  6  1  2  7  9 15 21
 -10268517.64500  21725930.63400  -7659088.39940  21725930.77440
  -1291886.22500  21884264.44600   -963524.71840  21884265.30240
 -11472212.15100  21320531.65700  -8734170.78540  21320532.30240
  -6043110.52900  21679695.29800  -4603565.79940  21679695.60340
  -7405131.77600  20057984.22800  -5644055.71540  20057984.19240
    405407.16200  22196108.53200    333432.16440  22196108.82540
 94  6 23 17 38 44.9970000  0  6  1  2  7  9 15 21
 -10326347.23800  21714926.15700  -7704150.41740  21714926.21640
  -1289843.16300  21884653.47000   -961932.73840  21884654.37240
 -11539682.56000  21307692.93100  -8786745.12240  21307693.34140
  -6070595.51600  21674465.23500  -4624982.67640  21674465.11840
  -7441327.69300  20051096.69600  -5672260.33640  20051096.70840
    417485.41200  22198406.75100    342843.77740  22198407.47840
 94  6 23 17 38 59.9970000  0  6  1  2  7  9 15 21
 -10384043.34200  21703946.61800  -7749108.40740  21703946.72440
  -1287671.04500  21885066.50100   -960240.19640  21885067.79040
 -11607026.53500  21294877.65700  -8839220.93940  21294878.04440
  -6097921.57800  21669265.36000  -4646275.71840  21669265.23140
  -7477358.53300  20044239.86800  -5700336.32140  20044239.86840
    429668.06600  22200725.39200    352336.73140  22200726.14240
 94  6 23 17 39 14.9970000  0  6  1  2  7  9 15 21
 -10441606.67800  21692993.11800  -7793962.97640  21692993.20040
  -1285368.49300  21885504.93100   -958446.02940  21885505.84540
 -11674243.30900  21282086.45400  -8891597.62240  21282086.88840
  -6125089.25200  21664095.49300  -4667445.34140  21664095.29440
  -7513223.99300  20037415.32100  -5728283.42440  20037415.25140
    441954.44400  22203063.43900    361910.51240  22203063.79040
 94  6 23 17 39 29.9970000  0  6  1  2  7  9 15 21
 -10499037.77100  21682064.04000  -7838714.46540  21682064.41540
  -1282939.77100  21885966.72000   -956553.54640  21885967.84540
 -11741333.66900  21269319.50900  -8943875.79640  21269319.84940
  -6152099.41000  21658955.60300  -4688492.22140  21658955.39240
  -7548926.07300  20030621.24300  -5756103.21540  20030621.11440
    454342.12100  22205420.00900    371563.23340  22205420.86440
 94  6 23 17 39 44.9970000  0  6  1  2  7  9 15 21
 -10556328.84400  21671161.93900  -7883356.85540  21671162.26740
  -1280382.77700  21886453.25900   -954561.11440  21886454.19640
 -11808294.11300  21256577.59500  -8996052.77240  21256578.19240
  -6178943.97800  21653847.44600  -4709410.06440  21653847.34140
  -7584459.36800  20023859.47000  -5783791.47140  20023859.38840
    466838.05700  22207798.27400    381300.29940  22207799.66940
 94  6 23 17 39 59.9970000  0  6  1  2  7  9 15 21
 -10613475.91000  21660287.44600  -7927887.03240  21660287.81040
  -1277696.97900  21886964.61000   -952468.31640  21886965.27840
 -11875126.08800  21243859.86000  -9048129.61640  21243860.30640
  -6205622.40200  21648770.53200  -4730198.44740  21648770.26340
  -7619824.09900  20017129.90700  -5811348.37740  20017129.79040
    479443.30300  22210196.83700    391122.56140  22210197.72840
 94  6 23 17 40 14.9970000  0  6  1  2  7  9 15 21
 -10670477.69800  21649440.16500  -7972303.99240  21649440.50540
  -1274885.99400  21887499.45400   -950277.98240  21887500.60340
 -11941831.68300  21231166.22000  -9100107.99140  21231166.79440
  -6232140.55400  21643724.23500  -4750861.94640  21643723.90740
  -7655023.75600  20010431.18100  -5838776.69040  20010431.02840
    492154.60200  22212616.04800    401027.44740  22212617.10340
 94  6 23 17 40 29.9970000  0  6  1  2  7  9 15 21
 -10727334.56100  21638620.82900  -8016608.04340  21638621.18140
  -1271951.39200  21888057.79000   -947991.32340  21888058.63440
 -12008409.88700  21218497.28200  -9151987.10540  21218497.93940
  -6258498.08800  21638708.46200  -4771400.28240  21638708.35640
  -7690057.58100  20003764.63400  -5866075.74740  20003764.51740
    504972.38100  22215054.98500    411015.31740  22215056.14640
 94  6 23 17 40 44.9970000  0  6  1  2  7  9 15 21
 -10784047.62000  21627828.87600  -8060800.02840  21627829.04040
  -1268895.31500  21888639.69600   -945609.99640  21888640.44640
 -12074866.23100  21205850.76700  -9203771.28140  21205851.04840
  -6284696.90300  21633722.66500  -4791814.95340  21633722.71240
  -7724926.34800  19997129.09500  -5893246.20040  19997128.89640
    517894.97900  22217514.39900    421084.86240  22217515.11440
 94  6 23 17 40 59.9970000  0  6  1  2  7  9 15 21
 -10840611.90300  21617064.82900  -8104876.08440  21617065.22840
  -1265715.17200  21889244.80600   -943131.99140  21889245.88440
 -12141200.55000  21193227.79800  -9255460.35140  21193228.24340
  -6310734.49700  21628768.18100  -4812103.98140  21628768.15740
  -7759625.65300  19990526.27400  -5920284.62340  19990526.14640
    530923.68000  22219993.82100    431237.06740  22219994.59540
 94  6 23 17 41 14.9970000  0  6  1  2  7  9 15 21
 -10897029.71000  21606329.10300  -8148838.01640  21606329.52440
  -1262416.99100  21889872.85300   -940561.98640  21889873.61440
 -12207419.72800  21180626.79000  -9307059.70240  21180627.24740
  -6336617.23600  21623842.86800  -4832272.35240  21623842.61040
  -7794159.67000  19983954.66500  -5947194.23340  19983954.53640
    544054.41900  22222492.29000    441468.79940  22222492.95840
 94  6 23 17 41 29.9970000  0  6  1  2  7  9 15 21
 -10953298.76200  21595621.35300  -8192684.03540  21595621.75140
  -1259001.73100  21890522.40700   -937900.76740  21890523.12240
 -12273523.27000  21168047.59500  -9358568.95440  21168048.11040
  -6362343.91900  21618947.05600  -4852319.12640  21618946.98540
  -7828527.58400  19977414.47000  -5973974.42540  19977414.23540
    557289.37700  22225010.50900    451781.73740  22225011.54040
 94  6 23 17 41 44.9970000  0  6  1  2  7  9 15 21
 -11009418.54700  21584941.86800  -8236413.73140  21584942.50140
  -1255471.50900  21891194.13400   -935149.94540  21891194.94240
 -12339514.11500  21155489.83700  -9409990.38840  21155490.30640
  -6387915.18800  21614081.36800  -4872244.80240  21614081.47440
  -7862730.64700  19970906.07100  -6000626.15140  19970905.86040
    570627.07800  22227549.08700    462174.70540  22227549.98940
 94  6 23 17 41 59.9970000  0  6  1  2  7  9 15 21
 -11065387.70700  21574291.58700  -8280026.07740  21574292.06740
  -1251823.41100  21891888.22000   -932307.27240  21891889.11040
 -12405390.35600  21142954.08700  -9461322.52940  21142954.73140
  -6413330.00000  21609245.34500  -4892048.57240  21609245.15740
  -7896766.66200  19964428.88400  -6027147.71940  19964428.79040
    584068.11500  22230106.48500    472648.24840  22230106.90740
 94  6 23 17 42 14.9970000  0  6  1  2  7  9 15 21
 -11121209.28100  21563668.68900  -8323523.42640  21563669.12240
  -1248058.80200  21892604.68900   -929373.82040  21892605.50940
 -12471152.26100  21130440.04800  -9512565.56840  21130440.50540
  -6438593.03400  21604437.64900  -4911734.04940  21604437.49740
  -7930637.20200  19957984.02400  -6053540.33940  19957983.84940
    597606.87400  22232683.18900    483197.93840  22232683.57540
 94  6 23 17 42 29.9970000  0  6  1  2  7  9 15 21
 -11176885.57200  21553073.90700  -8366907.55640  21553074.25940
  -1244176.30800  21893343.62600   -926348.50240  21893344.32940
 -12536796.51500  21117948.37600  -9563716.91740  21117948.96240
  -6463702.31300  21599659.49300  -4931299.73040  21599659.41140
  -7964339.93500  19951570.48500  -6079802.20140  19951570.41540
    611246.32900  22235278.37600    493826.06940  22235279.45440
 94  6 23 17 42 44.9970000  0  6  1  2  7  9 15 21
 -11232413.17100  21542507.48500  -8410175.81740  21542507.80240
  -1240169.19600  21894105.65700   -923226.08340  21894106.18540
 -12602317.43600  21105480.02400  -9614772.17540  21105480.35340
  -6488651.75200  21594911.55600  -4950740.85440  21594911.33340
  -7997869.11000  19945190.05600  -6105928.83740  19945189.99740
    624991.29200  22237894.39900    504536.40540  22237895.38440
 94  6 23 17 42 59.9970000  0  6  1  2  7  9 15 21
 -11287809.14700  21531966.19600  -8453341.50640  21531966.47840
  -1236054.99900  21894889.45400   -920020.22340  21894890.31040
 -12667732.44600  21093032.02400  -9665744.90040  21093032.47040
  -6513458.97800  21590191.48500  -4970071.15340  21590191.41540
  -8031242.41700  19938839.60300  -6131934.01140  19938839.42740
    638821.98000  22240525.93100    515313.57040  22240526.70440
 94  6 23 17 43 14.9960000  0  6  1  2  7  9 15 21
 -11343061.98700  21521451.69900  -8496395.66540  21521451.92240
  -1231824.65900  21895694.05100   -916723.85940  21895694.95340
 -12733022.19300  21080607.90200  -9716620.02540  21080608.32440
  -6538113.60400  21585499.67600  -4989282.55240  21585499.43040
  -8064448.91500  19932520.00400  -6157809.20440  19932519.89840
    652746.07500  22243175.59800    526163.49240  22243176.59440
 94  6 23 17 43 29.9960000  0  6  1  2  7  9 15 21
 -11398181.93800  21510962.71500  -8539346.28040  21510963.17240
  -1227476.99600  21896521.02000   -913336.07940  21896521.73440
 -12798192.43400  21068206.41000  -9767402.06240  21068207.03140
  -6562617.53100  21580836.55900  -5008376.52240  21580836.28940
  -8097494.35800  19926232.16800  -6183558.90140  19926232.14540
    666764.75200  22245843.25400    537087.09140  22245844.28540
 94  6 23 17 43 44.9960000  0  6  1  2  7  9 15 21
 -11453163.34500  21500499.90200  -8582188.94140  21500500.33640
  -1223006.81300  21897372.35600   -909852.82140  21897373.36340
 -12863234.07100  21055829.39500  -9818083.85140  21055829.78140
  -6586963.70700  21576203.52000  -5027347.57440  21576203.26240
  -8130372.88600  19919975.12900  -6209178.53340  19919975.12940
    680878.40700  22248528.86300    548084.71940  22248529.89540
 94  6 23 17 43 59.9960000  0  6  1  2  7  9 15 21
 -11508004.41000  21490064.11300  -8624922.24140  21490064.58240
  -1218412.57300  21898246.16800   -906272.90840  21898246.70740
 -12928146.63500  21043476.67600  -9868665.08840  21043477.36740
  -6611151.82900  21571600.59000  -5046195.47940  21571600.29740
  -8163083.39900  19913751.09800  -6234667.24240  19913750.95740
    695087.28500  22251233.48800    559156.58340  22251234.23840
 94  6 23 17 44 14.9960000  0  6  1  2  7  9 15 21
 -11562704.82600  21479655.20700  -8667545.94240  21479655.57040
  -1213693.24100  21899144.19100   -902595.50240  21899144.89540
 -12992928.37200  21031149.15200  -9919144.38040  21031149.72740
  -6635182.37300  21567027.92600  -5064920.57240  21567027.79740
  -8195625.82300  19907558.06600  -6260024.97040  19907557.87940
    709393.42200  22253955.50400    570304.20340  22253956.38340
 94  6 23 17 44 29.9960000  0  6  1  2  7  9 15 21
 -11617264.85500  21469272.80900  -8710060.26140  21469272.91440
  -1208849.41000  21900065.66800   -898821.09340  21900066.30140
 -13057578.42400  21018846.62100  -9969521.03240  21018846.86740
  -6659052.03100  21562485.64500  -5083520.29940  21562485.21140
  -8227999.04900  19901397.65200  -6285250.85640  19901397.54740
    723799.84300  22256696.63700    581529.92440  22256697.75040
 94  6 23 17 44 44.9960000  0  6  1  2  7  9 15 21
 -11671683.26200  21458917.43400  -8752464.21940  21458917.38740
  -1203885.35400  21901010.76200   -894953.00840  21901011.77040
 -13122098.58300  21006568.96500 -10019796.45440  21006569.62140
  -6682761.27200  21557973.89500  -5101995.03640  21557973.62540
  -8260204.64000  19895269.31600  -6310346.11540  19895269.31640
    738305.76400  22259457.33200    592833.22340  22259458.28140
 94  6 23 17 44 59.9960000  0  6  1  2  7  9 15 21
 -11725961.05700  21448588.71500  -8794758.59340  21448588.53940
  -1198806.44700  21901976.82400   -890995.43440  21901977.78540
 -13186494.56200  20994314.70700 -10069975.11940  20994315.19940
  -6706311.99800  21553492.46500  -5120346.24740  21553492.10240
  -8292244.97400  19889171.98100  -6335312.59440  19889171.92240
    752907.55000  22262236.03500    604211.24940  22262236.71540
 94  6 23 17 45 14.9960000  0  6  1  2  7  9 15 21
 -11780096.65400  21438286.68400  -8836942.17240  21438286.49640
  -1193612.64900  21902965.27000   -886948.32740  21902966.18440
 -13250767.23300  20982084.27700 -10120057.70140  20982084.71140
  -6729703.70000  21549041.08200  -5138573.52340  21549040.75440
  -8324120.04100  19883106.55900  -6360150.30240  19883106.58240
    767608.20500  22265033.28500    615666.31940  22265033.71940
 94  6 23 17 45 29.9960000  0  6  1  2  7  9 15 21
 -11834090.11100  21428012.19100  -8879015.00640  21428012.60240
  -1188301.22100  21903976.34000   -882809.56840  21903977.66440
 -13314915.84500  20969876.99600 -10170043.63940  20969877.33640
  -6752935.09500  21544620.26200  -5156675.90840  21544620.05140
  -8355828.75400  19877072.37100  -6384858.37440  19877072.43040
    782409.11600  22267849.95700    627199.45640  22267851.24640
 94  6 23 17 45 44.9960000  0  6  1  2  7  9 15 21
 -11887938.83800  21417765.34800  -8920975.05840  21417765.68840
  -1182871.74600  21905009.04300   -878578.82840  21905009.66440
 -13378943.62900  20957692.95700 -10219935.42840  20957693.44940
  -6776006.62500  21540230.01200  -5174653.72740  21540229.84840
  -8387370.23700  19871070.23800  -6409436.15240  19871070.29740
    797309.77300  22270685.21500    638810.35340  22270686.31640
 94  6 23 17 45 59.9960000  0  6  1  2  7  9 15 21
 -11941646.05100  21407544.74600  -8962824.83040  21407544.95740
  -1177329.16500  21906064.40200   -874259.94440  21906065.36340
 -13442853.31200  20945531.36300 -10269735.18940  20945531.80940
  -6798920.96100  21535869.69900  -5192509.04640  21535869.62940
  -8418746.05900  19865099.52700  -6433884.83440  19865099.57440
    812307.38800  22273539.23800    650496.77240  22273540.28140
 94  6 23 17 46 14.9960000  0  6  1  2  7  9 15 21
 -11995212.65300  21397352.04300  -9004565.04640  21397352.14840
  -1171675.98300  21907139.69100   -869854.89040  21907140.71140
 -13506645.21100  20933392.06600 -10319443.14440  20933392.45340
  -6821678.74300  21531538.95700  -5210242.37940  21531538.93440
  -8449956.47900  19859160.60600  -6458204.62940  19859160.66440
    827402.57200  22276411.49600    662259.23340  22276412.27040
 94  6 23 17 46 29.9960000  0  6  1  2  7  9 15 21
 -12048639.77800  21387184.81600  -9046196.57440  21387184.78140
  -1165913.08800  21908236.89500   -865364.34040  21908237.60940
 -13570316.88800  20921275.68400 -10369057.42140  20921276.11740
  -6844278.98200  21527238.16800  -5227852.94140  21527237.87540
  -8481000.50500  19853253.19900  -6482394.75740  19853253.25840
    842593.14800  22279302.45700    674096.00840  22279303.40640
 94  6 23 17 46 44.9960000  0  6  1  2  7  9 15 21
 -12101926.07300  21377044.72300  -9087718.35940  21377044.84040
  -1160040.47800  21909353.94100   -860788.28740  21909355.09040
 -13633866.29400  20909182.58200 -10418576.43340  20909182.92240
  -6866721.64600  21522967.38700  -5245340.73140  21522967.19940
  -8511877.61900  19847377.13700  -6506454.82340  19847377.25440
    857877.33600  22282211.13700    686005.76040  22282211.69940
 94  6 23 17 46 59.9960000  0  6  1  2  7  9 15 21
 -12155071.36600  21366931.85600  -9129130.27040  21366931.92640
  -1154057.61500  21910492.26200   -856126.33940  21910493.19940
 -13697294.21700  20897112.98100 -10468000.77140  20897113.44940
  -6889008.30900  21518726.41800  -5262706.94540  21518726.57040
  -8542588.27700  19841533.52000  -6530385.20340  19841533.56640
    873254.93400  22285137.35600    697988.29240  22285137.70740
 94  6 23 17 47 14.9960000  0  6  1  2  7  9 15 21
 -12208073.46300  21356845.39500  -9170430.59540  21356845.46540
  -1147960.85500  21911652.94900   -851375.63540  21911654.28540
 -13760598.85700  20885066.47300 -10517329.06040  20885066.96540
  -6911136.77200  21514515.46500  -5279949.89340  21514515.16040
  -8573131.38700  19835721.13700  -6554185.03140  19835721.09040
    888727.89800  22288081.69900    710045.09440  22288082.47340
 94  6 23 17 47 29.9960000  0  6  1  2  7  9 15 21
 -12260937.08300  21346785.97300  -9211623.00940  21346786.20740
  -1141750.88000  21912834.37900   -846536.71340  21912835.63340
 -13823779.46900  20873043.40200 -10566560.70340  20873043.90640
  -6933112.06700  21510333.59800  -5297073.50340  21510333.58640
  -8603510.33800  19829940.19900  -6577856.94240  19829940.19940
    904290.99400  22291042.81600    722172.15440  22291043.57840
 94  6 23 17 47 44.9960000  0  6  1  2  7  9 15 21
 -12313659.92100  21336753.18400  -9252705.74040  21336753.60640
  -1135428.87000  21914037.62100   -841610.48940  21914038.69940
 -13886835.40500  20861044.47300 -10615695.19240  20861045.01240
  -6954931.19300  21506181.76200  -5314075.41740  21506181.57440
  -8633722.66700  19824190.96500  -6601399.01440  19824190.90640
    919944.43000  22294022.01200    734369.60340  22294022.97340
 94  6 23 17 47 59.9960000  0  7  1  2  7  9 14 15 21
 -12366239.88800  21326747.55100  -9293677.16140  21326747.75040
  -1128997.06500  21915261.18400   -836598.70940  21915262.28540
 -13949765.95700  20849069.41000 -10664731.97040  20849069.90240
  -6976592.43800  21502059.69100  -5330954.30940  21502059.72740
                  23224059.11300
  -8663767.99500  19818473.31600  -6624810.96540  19818473.27040
    935690.01300  22297018.58200    746638.86540  22297019.43840
 94  6 23 17 48 14.9960000  0  7  1  2  7  9 14 15 21
 -12418675.86300  21316769.14500  -9334536.36940  21316769.32040
  -1122455.74300  21916506.70700   -831501.60040  21916507.31640
 -14012570.15600  20837118.09800 -10713670.29140  20837118.59040
  -6998096.06300  21497967.77700  -5347710.39640  21497968.56340
    -82398.56900  23207258.73800
  -8693646.98300  19812787.65200  -6648093.29340  19812787.61740
    951528.36000  22300032.40200    758980.41440  22300033.45740
 94  6 23 17 48 29.9960000  0  7  1  2  7  9 14 15 21
 -12470966.28900  21306818.81600  -9375282.16940  21306819.01640
  -1115801.02500  21917772.77700   -826316.11940  21917773.52740
 -14075247.21400  20825191.05900 -10762509.54140  20825191.60940
  -7019441.61800  21493905.68400  -5364343.31040  21493905.68440
   -170641.24700  23190465.90200
  -8723359.21900  19807133.53500  -6671245.68640  19807133.47740
    967459.73700  22303063.90200    771394.44940  22303065.05140
 94  6 23 17 48 44.9960000  0  7  1  2  7  9 14 15 21
 -12523109.66900  21296896.28500  -9415913.37340  21296896.07440
  -1109032.65800  21919060.63700   -821042.08640  21919061.23440
 -14137796.50300  20813288.35600 -10811249.22440  20813288.84840
  -7040628.16000  21489874.22300  -5380852.30840  21489874.38740
   -258835.03400  23173683.45700
  -8752905.15100  19801511.23800  -6694268.49340  19801511.13340
    983484.67500  22306113.38700    783881.38940  22306114.04340
 94  6 23 17 48 59.9960000  0  7  1  2  7  9 14 15 21
 -12575101.13000  21287002.51200  -9456426.19140  21287002.40640
  -1102149.23600  21920370.84800   -815678.39940  21920371.68040
 -14200218.95500  20801409.69900 -10859890.08340  20801410.22740
  -7061652.65200  21485873.42600  -5397235.03240  21485873.39140
   -346979.66800  23156909.56600    -59519.45950  23156909.95340
  -8782282.51300  19795920.80100  -6717159.94640  19795920.73140
    999608.54700  22309181.71500    796445.44240  22309182.38340
 94  6 23 17 49 14.9960000  0  7  1  2  7  9 14 15 21
 -12626931.33800  21277139.61300  -9496813.36640  21277139.57840
  -1095141.96100  21921703.77000   -810218.20140  21921704.87140
 -14262508.76100  20789555.99600 -10908427.58440  20789556.64140
  -7082505.69400  21481905.00400  -5413484.16240  21481905.15640
   -435066.10400  23140147.47300   -128158.22240  23140147.98840
  -8811482.87900  19790364.55100  -6739913.48640  19790364.44540
   1015840.39700  22312270.28500    809093.62040  22312271.83240
 94  6 23 17 49 29.9960000  0  7  1  2  7  9 14 15 21
 -12678611.53000  21267304.98100  -9537083.64840  21267305.67240
  -1088020.44000  21923059.23100   -804668.98240  21923060.27340
 -14324675.28900  20777726.30900 -10956869.02540  20777726.78940
  -7103198.96000  21477967.30100  -5429608.78740  21477967.38340
   -523103.42300  23123394.07400   -196758.70540  23123395.25840
  -8840515.91800  19784839.59000  -6762536.64040  19784839.59040
   1032165.91600  22315377.24600    821814.77240  22315378.20740
 94  6 23 17 49 44.9960000  0  7  1  2  7  9 14 15 21
 -12730143.13700  21257498.67600  -9577238.12640  21257498.91040
  -1080786.23500  21924435.75400   -799031.96040  21924436.83240
 -14386718.15800  20765920.04300 -11005214.11040  20765920.61740
  -7123734.74800  21474059.52700  -5445610.70140  21474059.66840
   -611088.96100  23106651.43400   -265318.82340  23106651.32840
  -8869381.79200  19779346.58200  -6785029.53040  19779346.46540
   1048585.43700  22318501.94100    834609.16940  22318502.99640
 94  6 23 17 49 59.9960000  0  7  1  2  7  9 14 15 21
 -12781525.27700  21247721.52700  -9617276.15640  21247721.63340
  -1073440.52900  21925833.55900   -793308.06940  21925834.59040
 -14448635.99000  20754137.23100 -11053461.76540  20754137.54740
  -7144113.04300  21470181.64500  -5461489.91140  21470181.51640
   -699019.38600  23089918.99600   -333835.99740  23089920.12140
  -8898080.66800  19773885.23800  -6807392.29240  19773885.07440
   1065100.08700  22321644.48800    847477.69740  22321645.21540
 94  6 23 17 50 14.9960000  0  7  1  2  7  9 14 15 21
 -12832758.76600  21237972.12100  -9657198.34140  21237972.16840
  -1065981.41800  21927253.25400   -787495.78740  21927254.47340
 -14510424.06700  20742379.39500 -11101608.31440  20742379.71140
  -7164336.24400  21466333.30900  -5477248.27340  21466333.44940
   -786895.10300  23073197.48800   -402310.54440  23073197.85240
  -8926614.35800  19768455.67600  -6829626.33940  19768455.54740
   1081706.70500  22324804.09800    860417.91940  22324805.49240
 94  6 23 17 50 29.9960000  0  7  1  2  7  9 14 15 21
 -12883843.23100  21228250.80900  -9697004.41940  21228250.83240
  -1058409.98100  21928693.49600   -781596.00240  21928694.62140
 -14572082.46500  20730646.34000 -11149653.81240  20730646.83240
  -7184406.60600  21462513.77700  -5492887.51640  21462513.71940
   -874716.39000  23056484.58200   -470742.67140  23056484.93440
  -8954982.87500  19763057.06600  -6851731.68340  19763057.04340
   1098403.01000  22327981.94900    873427.98240  22327983.03940
 94  6 23 17 50 44.9960000  0  7  1  2  7  9 14 15 21
 -12934781.07600  21218557.52000  -9736696.23840  21218557.66040
  -1050731.98500  21930154.83200   -775613.16740  21930156.48440
 -14633611.05000  20718937.65200 -11197598.15640  20718937.99240
  -7204325.77600  21458723.77000  -5508408.94540  21458723.82840
   -962489.72100  23039781.95700   -539137.43940  23039782.37940
  -8983188.34600  19757689.87100  -6873709.98440  19757689.84840
   1115186.22400  22331175.56600    886505.84440  22331176.76240
 94  6 23 17 50 59.9960000  0  7  1  2  7  9 14 15 21
 -12985567.55900  21208893.43400  -9776270.12240  21208893.70340
  -1042947.81500  21931635.73100   -769547.59540  21931637.46540
 -14695005.57400  20707254.58200 -11245438.03840  20707255.21540
  -7224092.96200  21454962.09800  -5523811.95940  21454962.16840
  -1050213.29200  23023088.47300   -607493.44040  23023089.00040
  -9011227.83900  19752354.10600  -6895558.95540  19752354.08240
   1132059.68200  22334386.45700    899653.91840  22334387.72340
 94  6 23 17 51 14.9960000  0  7  1  2  7  9 14 15 21
 -13036206.44200  21199256.94100  -9815728.98140  21199257.12940
  -1035058.24200  21933137.80900   -763399.89740  21933139.69540
 -14756267.32900  20695596.86300 -11293174.46940  20695597.41440
  -7243714.13700  21451228.14500  -5539101.19640  21451228.35640
  -1137887.09700  23006405.37100   -675810.63640  23006406.62540
  -9039104.37100  19747049.37900  -6917280.93440  19747049.47340
   1149017.86600  22337613.13700    912868.10740  22337613.68840
 94  6 23 17 51 29.9960000  0  7  1  2  7  9 14 15 21
 -13086695.16700  21189649.18400  -9855070.84140  21189649.58240
  -1027059.20800  21934659.47300   -757166.90240  21934660.76240
 -14817386.36000  20683966.32400 -11340799.67340  20683966.78140
  -7263186.11100  21447522.78500  -5554274.15640  21447523.02040
  -1225505.49000  22989731.62100   -744084.69140  22989732.32440
  -9066813.86000  19741776.27000  -6938872.75240  19741776.41040
   1166061.16100  22340856.76200    926148.55040  22340858.25040
 94  6 23 17 51 44.9960000  0  7  1  2  7  9 14 15 21
 -13137035.05900  21180070.03500  -9894296.73340  21180070.22340
  -1018952.81400  21936202.15200   -750850.24040  21936203.26640
 -14878362.17800  20672362.88700 -11388313.29540  20672363.39140
  -7282511.12500  21443845.37900  -5569332.60040  21443845.60240
  -1313071.24000  22973068.79300   -812317.69740  22973069.41440
  -9094357.32700  19736535.27000  -6960335.21640  19736535.23440
   1183188.95400  22344116.04300    939494.83540  22344117.14540
 94  6 23 17 51 59.9960000  0  7  1  2  7  9 14 15 21
 -13187227.01400  21170518.90200  -9933407.34340  21170519.05540
  -1010742.57800  21937764.50400   -744452.67540  21937765.65240
 -14939196.20900  20660786.70700 -11435716.44640  20660787.11740
  -7301687.22200  21440196.01200  -5584275.02640  21440196.04740
  -1400586.84800  22956414.77700   -880511.64640  22956415.82040
  -9121737.07700  19731324.66800  -6981670.09340  19731324.58640
   1200402.08000  22347391.59800    952907.67040  22347392.66440
 94  6 23 17 52 14.9960000  0  7  1  2  7  9 14 15 21
 -13237266.23500  21160996.60600  -9972398.95040  21160996.78140
  -1002424.69500  21939347.84000   -737971.22240  21939348.98840
 -14999885.42500  20649237.91800 -11483006.74840  20649238.32840
  -7320708.80600  21436576.71500  -5599097.06140  21436576.93840
  -1488051.51000  22939770.77700   -948665.88840  22939771.87940
  -9148950.22400  19726146.63700  -7002875.12740  19726146.67240
   1217700.79100  22350683.53500    966387.12340  22350683.92240
 94  6 23 17 52 29.9960000  0  7  1  2  7  9 14 15 21
 -13287155.52300  21151503.18400 -10011273.71940  21151503.41840
   -994000.16900  21940950.66000   -731406.66740  21940951.76240
 -15060434.77500  20637715.77700 -11530188.05740  20637716.32840
  -7339577.25800  21432986.12900  -5613799.75440  21432986.48140
  -1575466.92900  22923136.44100  -1016781.75440  22923136.86340
  -9175997.86300  19720999.27700  -7023951.20740  19720999.38340
   1235083.71900  22353991.86300    979932.25840  22353992.50840
 94  6 23 17 52 44.9960000  0  7  1  2  7  9 14 15 21
 -13336896.31400  21142037.58200 -10050032.76840  21142037.71140
   -985470.14900  21942574.01200   -724759.91340  21942575.41840
 -15120847.63900  20626219.67600 -11577263.00440  20626220.03940
  -7358291.68700  21429424.91800  -5628382.43640  21429425.23440
  -1662832.51400  22906510.16800  -1084858.79240  22906510.85940
  -9202879.76600  19715883.93400  -7044898.15340  19715883.91040
   1252552.27400  22357315.62900    993544.09440  22357315.84040
 94  6 23 17 52 59.9960000  0  7  1  2  7  9 14 15 21
 -13386491.28900  21132600.05900 -10088678.18940  21132600.35240
   -976831.52000  21944218.03500   -718028.51840  21944219.43040
 -15181123.73100  20614749.55900 -11624231.37040  20614750.15640
  -7376850.71000  21425893.55100  -5642844.01740  21425893.70340
  -1750144.31100  22889895.96500  -1152893.88840  22889897.11340
  -9229595.33400  19710800.34800  -7065715.48440  19710800.28940
   1270109.38000  22360656.63700   1007224.92440  22360657.38740
 94  6 23 17 53 14.9960000  0  7  1  2  7  9 14 15 21
 -13435943.16700  21123189.91800 -10127212.10840  21123190.11740
   -968080.14300  21945883.02000   -711209.27540  21945884.67240
 -15241268.06000  20603303.96500 -11671097.07340  20603304.39840
  -7395253.79700  21422391.30100  -5657184.09240  21422391.46540
  -1837398.28000  22873291.69100  -1220883.98240  22873293.53140
  -9256145.28100  19705747.89500  -7086403.75440  19705747.82440
   1287752.54000  22364014.18400   1020972.82340  22364015.03940
 94  6 23 17 53 29.9960000  0  7  1  2  7  9 14 15 21
 -13485255.80600  21113805.50400 -10165637.54040  21113805.78540
   -959217.57400  21947569.41800   -704303.39440  21947571.05940
 -15301284.44600  20591883.56600 -11717863.07540  20591883.96540
  -7413500.59900  21418919.05100  -5671402.38940  21418919.33240
  -1924597.96100  22856698.16800  -1288831.75140  22856699.10640
  -9282532.05000  19700726.92600  -7106964.87440  19700726.79740
   1305478.74200  22367387.30900   1034785.41940  22367388.27040
 94  6 23 17 53 44.9960000  0  7  1  2  7  9 14 15 21
 -13534426.07700  21104448.87100 -10203952.03540  21104449.18840
   -950241.03400  21949277.91000   -697308.72140  21949279.31640
 -15361171.70500  20580487.02700 -11764528.46040  20580487.43840
  -7431586.52300  21415477.47300  -5685495.31440  21415477.71940
  -2011741.95100  22840115.58200  -1356736.11940  22840116.23840
  -9308751.65700  19695737.36300  -7127395.72340  19695737.28140
   1323295.12800  22370777.45700   1048668.31840  22370778.71140
 94  6 23 17 53 59.9960000  0  7  1  2  7  9 14 15 21
 -13583456.70300  21095118.73800 -10242157.71540  21095118.98440
   -941154.81000  21951007.49600   -690228.54640  21951008.82040
 -15420936.76400  20569114.62100 -11811098.62140  20569115.04340
  -7449513.71000  21412065.76200  -5699464.57740  21412066.09040
  -2098832.98500  22823542.89500  -1424599.24640  22823543.32840
  -9334807.16000  19690779.07400  -7147698.69740  19690779.05140
   1341200.65900  22374184.98100   1062620.64240  22374186.03540
 94  6 23 17 54 14.9960000  0  7  1  2  7  9 14 15 21
 -13632346.22900  21085815.41800 -10280253.43940  21085815.64140
   -931959.01700  21952757.16800   -683063.02140  21952758.56340
 -15480578.03600  20557765.11300 -11857572.32340  20557765.54740
  -7467282.42800  21408684.84000  -5713310.34340  21408685.10940
  -2185869.32900  22806980.09800  -1492419.73840  22806980.42640
  -9360697.71300  19685852.02000  -7167873.13840  19685852.10240
   1359195.33400  22377609.50400   1076642.40740  22377609.91440
 94  6 23 17 54 29.9960000  0  7  1  2  7  9 14 15 21
 -13681093.45200  21076539.29300 -10318238.28940  21076539.38740
   -922653.25400  21954528.48800   -675811.78240  21954530.07040
 -15540096.13900  20546439.36300 -11903950.05040  20546439.77340
  -7484897.57800  21405332.49600  -5727036.44340  21405332.60240
  -2272851.36700  22790428.03500  -1560197.90440  22790429.73440
  -9386423.57000  19680956.53500  -7187919.23440  19680956.66440
   1377277.22600  22381050.21500   1090732.20440  22381050.91840
 94  6 23 17 54 44.9960000  0  7  1  2  7  9 14 15 21
 -13729697.97400  21067289.70700 -10356111.93940  21067289.96540
   -913240.65900  21956318.94100   -668477.31340  21956319.58640
 -15599493.59800  20535136.34800 -11950233.78040  20535136.62940
  -7502360.91700  21402009.36300  -5740644.24940  21402009.43440
  -2359779.07900  22773886.51200  -1627933.76240  22773887.47340
  -9411985.57900  19676092.39500  -7207837.67340  19676092.52340
   1395447.16200  22384507.48800   1104890.58540  22384508.29740
 94  6 23 17 54 59.9960000  0  7  1  2  7  9 14 15 21
 -13778158.63100  21058068.20700 -10393873.48440  21058068.47740
   -903724.26000  21958129.76200   -661061.93840  21958130.94540
 -15658768.09200  20523856.36300 -11996421.68840  20523856.77340
  -7519677.54400  21398714.19900  -5754137.75840  21398714.58640
  -2446653.09800  22757354.58200  -1695627.75340  22757354.95740
  -9437385.71700  19671259.03500  -7227629.98740  19671259.02340
   1413701.39600  22387981.47300   1119114.64740  22387982.35240
 94  6 23 17 55 14.9960000  0  7  1  2  7  9 14 15 21
 -13826478.07800  21048873.24600 -10431524.99240  21048873.32840
   -894109.78600  21959958.95700   -653570.16040  21959960.63340
 -15717924.44700  20512599.35600 -12042517.54240  20512599.59040
  -7536856.37800  21395445.08200  -5767523.90740  21395445.24640
  -2533478.34900  22740832.09800  -1763283.76840  22740832.85940
  -9462630.24300  19666455.01200  -7247301.03640  19666455.08240
   1432031.79600  22391469.65200   1133398.06040  22391470.62540
 94  6 23 17 55 29.9950000  0  7  1  2  7  9 14 15 21
 -13874642.49100  21039707.91300 -10469055.68940  21039708.13640
   -884393.07400  21961808.67100   -645998.71340  21961810.74540
 -15776949.50700  20501367.86600 -12088511.08240  20501368.26540
  -7553887.59200  21392203.98300  -5780794.97240  21392203.90140
  -2620243.14300  22724321.15500  -1830892.67940  22724321.85840
  -9487709.39800  19661682.67900  -7266843.23240  19661682.72640
   1450443.40000  22394973.07700   1147744.72440  22394974.33140
 94  6 23 17 55 44.9950000  0  7  1  2  7  9 14 15 21
 -13922653.15700  21030571.69400 -10506466.59840  21030571.80040
   -874575.94400  21963676.76500   -638349.02640  21963677.85540
 -15835844.83500  20490159.90500 -12134403.53040  20490160.21040
  -7570772.23500  21388991.31200  -5793951.85340  21388991.25340
  -2706958.06800  22707820.56900  -1898462.71740  22707821.37840
  -9512624.64700  19656941.25700  -7286257.70540  19656941.26940
   1468940.48900  22398493.49900   1162158.00340  22398494.58940
 94  6 23 17 55 59.9950000  0  7  1  2  7  9 14 15 21
 -13970504.24000  21021466.14800 -10543753.15240  21021466.49940
   -864662.83400  21965563.32700   -630624.53440  21965564.39440
 -15894604.59000  20478978.47600 -12180190.34640  20478978.88640
  -7587510.84300  21385805.75700  -5806994.94940  21385805.88640
  -2793616.39200  22691329.78000  -1965988.66940  22691330.70640
  -9537374.58100  19652231.73300  -7305543.36540  19652231.62840
   1487520.81200  22402029.25700   1176636.18540  22402030.23040
 94  6 23 17 56 14.9950000  0  7  1  2  7  9 14 15 21
 -14018191.84600  21012391.70200 -10580912.32440  21012391.93740
   -854652.81500  21967467.66300   -622824.54040  21967468.43740
 -15953225.28200  20467823.60100 -12225868.80540  20467823.95240
  -7604103.42000  21382648.41300  -5819924.27940  21382648.85840
  -2880218.37100  22674849.56200  -2033470.69940  22674850.33540
  -9561960.15000  19647553.06900  -7324700.96140  19647553.19840
   1506178.93600  22405579.78800   1191174.91340  22405580.87840
 94  6 23 17 56 29.9950000  0  7  1  2  7  9 14 15 21
 -14065715.72300  21003347.88200 -10617943.91540  21003348.17540
   -844542.96500  21969391.25700   -614946.75440  21969392.47640
 -16011704.27200  20456695.25700 -12271436.83940  20456695.59740
  -7620550.18900  21379519.15500  -5832740.00240  21379519.43740
  -2966765.30900  22658379.36600  -2100909.84440  22658380.53840
  -9586381.77600  19642905.92900  -7343730.81840  19642905.84740
   1524911.87400  22409144.39000   1205772.03540  22409144.65940
 94  6 23 17 56 44.9950000  0  7  1  2  7  9 14 15 21
 -14113076.29500  20994335.65500 -10654848.24740  20994335.76140
   -834333.36400  21971334.54600   -606991.24240  21971335.51940
 -16070040.88800  20445593.91300 -12316893.93240  20445594.23040
  -7636847.70700  21376417.88200  -5845439.38840  21376418.17540
  -3053256.46000  22641921.07700  -2168305.55040  22641921.73340
  -9610638.56900  19638290.14000  -7362632.21040  19638289.99940
   1543719.57900  22412723.42900   1220427.33540  22412724.02640
 94  6 23 17 56 59.9950000  0  7  1  2  7  9 14 15 21
 -14160277.73100  20985353.17100 -10691628.58240  20985353.21840
   -824028.03000  21973295.60800   -598961.12940  21973297.06240
 -16128233.37400  20434520.59300 -12362238.72040  20434520.82740
  -7652996.50300  21373344.51500  -5858022.91040  21373344.98340
  -3139690.77400  22625474.26500  -2235656.93740  22625474.83940
  -9634731.12900  19633705.35800  -7381405.62840  19633705.24140
   1562601.25100  22416316.16300   1235140.31540  22416316.84340
 94  6 23 17 57 14.9950000  0  7  1  2  7  9 14 15 21
 -14207319.51100  20976401.42900 -10728284.49240  20976401.65140
   -813625.51500  21975275.47600   -590855.28640  21975277.45640
 -16186278.41200  20423474.94400 -12407468.61740  20423475.28440
  -7668993.61800  21370300.40500  -5870488.18540  21370300.82740
  -3226066.47700  22609036.21000  -2302962.65240  22609037.13640
  -9658657.67500  19629152.14800  -7400049.68540  19629152.18340
   1581556.49000  22419923.20200   1249910.61140  22419924.10540
 94  6 23 17 57 29.9950000  0  7  1  2  7  9 14 15 21
 -14254207.87300  20967478.82700 -10764820.88140  20967478.93340
   -803128.86200  21977272.63200   -582676.11540  21977274.46040
 -16244181.33200  20412456.36600 -12452587.77740  20412456.65940
  -7684838.07400  21367285.53000  -5882834.52840  21367285.87040
  -3312388.55600  22592610.53800  -2370226.59040  22592611.20640
  -9682421.57200  19624630.15500  -7418567.01240  19624630.22640
   1600579.81100  22423543.61600   1264733.91140  22423544.76540
 94  6 23 17 57 44.9950000  0  7  1  2  7  9 14 15 21
 -14300945.31300  20958585.42100 -10801239.66740  20958585.67940
   -792540.64500  21979287.69400   -574425.58640  21979288.99540
 -16301941.98900  20401464.49100 -12497596.07640  20401464.80840
  -7700529.61900  21364299.42900  -5895061.74840  21364299.75740
  -3398659.10800  22576193.55400  -2437450.38940  22576194.99540
  -9706023.53200  19620138.43700  -7436958.14940  19620138.43740
   1619670.85900  22427176.45200   1279610.05740  22427177.58940
 94  6 23 17 57 59.9950000  0  7  1  2  7  9 14 15 21
 -14347531.24600  20949720.25700 -10837540.39940  20949720.33940
   -781856.48600  21981320.40500   -566100.30140  21981322.44440
 -16359559.29100  20390500.49100 -12542492.66040  20390500.85540
  -7716069.23600  21361342.33500  -5907170.54740  21361342.58140
  -3484874.61900  22559786.76500  -2504631.29140  22559787.72640
  -9729460.61400  19615679.03800  -7455220.81940  19615679.07340
   1638832.97700  22430822.71000   1294541.52040  22430824.15140
 94  6 23 17 58 14.9950000  0  7  1  2  7  9 14 15 21
 -14393970.03500  20940883.21000 -10873726.47140  20940883.36240
   -771074.02900  21983372.22600   -557698.40440  21983373.80840
 -16417037.65700  20379562.49100 -12587280.98140  20379562.90140
  -7731458.83600  21358413.91300  -5919162.43640  21358414.11240
  -3571036.33700  22543390.95200  -2571770.26940  22543391.81940
  -9752734.21200  19611249.99900  -7473356.09640  19611249.96440
   1658063.75000  22434482.28000   1309526.51440  22434483.71040
 94  6 23 17 58 29.9950000  0  7  1  2  7  9 14 15 21
 -14440265.34400  20932073.61600 -10909800.73740  20932073.76940
   -760191.37800  21985443.49100   -549218.44740  21985444.83940
 -16474378.83300  20368651.07700 -12631962.40540  20368651.53440
  -7746698.00700  21355513.46000  -5931037.09640  21355513.76540
  -3657142.48500  22527005.94400  -2638865.97040  22527006.99940
  -9775843.42200  19606852.32700  -7491363.27840  19606852.37440
   1677363.03000  22438155.21000   1324564.86540  22438156.04240
 94  6 23 17 58 44.9950000  0  7  1  2  7  9 14 15 21
 -14486420.96500  20923290.28800 -10945766.15240  20923290.53440
   -749213.40900  21987532.60800   -540664.21340  21987534.22640
 -16531586.35400  20357764.71000 -12676539.68440  20357765.03840
  -7761789.69000  21352641.71000  -5942796.81940  21352642.19040
  -3743190.23700  22510631.80400  -2705916.14040  22510633.21040
  -9798788.99300  19602486.65500  -7509242.96240  19602486.60840
   1696732.38900  22441841.32700   1339657.86140  22441841.66740
 94  6 23 17 58 59.9950000  0  7  1  2  7  9 14 15 21
 -14532435.57200  20914534.00700 -10981621.67240  20914534.38240
   -738140.85400  21989639.83500   -532036.32940  21989641.25340
 -16588659.60300  20346904.38200 -12721012.33340  20346904.68740
  -7776732.17600  21349798.29600  -5954440.31540  21349798.46040
  -3829174.22700  22494268.59300  -2772916.62940  22494269.99940
  -9821568.74700  19598151.32700  -7526993.42640  19598151.22240
   1716175.51100  22445540.96000   1354808.33540  22445541.42940
 94  6 23 17 59 14.9950000  0  7  1  2  7  9 14 15 21
 -14578308.23600  20905804.66300 -11017366.59840  20905804.87440
   -726971.85000  21991765.73300   -523333.25740  21991767.57340
 -16645601.75900  20336068.39000 -12765382.84340  20336068.87040
  -7791524.12000  21346983.71000  -5965966.51440  21346984.01540
  -3915092.52400  22477918.74900  -2839865.97540  22477919.76940
  -9844183.21300  19593848.04600  -7544615.09840  19593847.95240
   1735691.93800  22449254.61600   1370015.91640  22449255.73040
 94  6 23 17 59 29.9950000  0  7  1  2  7  9 14 15 21
 -14624036.54100  20897102.62400 -11052999.02940  20897102.92940
   -715704.38600  21993908.72600   -514553.45840  21993909.94440
 -16702416.55600  20325256.78000 -12809654.09940  20325257.07340
  -7806164.02900  21344198.13200  -5977374.20940  21344198.40140
  -4000948.72800  22461581.57700  -2906766.90040  22461582.22240
  -9866634.02500  19589575.59300  -7562109.24440  19589575.47640
   1755282.22700  22452982.60800   1385281.06540  22452983.58140
 94  6 23 17 59 44.9950000  0  7  1  2  7  9 14 15 21
 -14669622.34600  20888428.04600 -11088520.43640  20888428.35140
   -704341.08100  21996071.10800   -505698.96940  21996072.38640
 -16759108.34600  20314469.09300 -12853829.51040  20314469.36240
  -7820658.21200  21341439.89800  -5988668.37940  21341440.19040
  -4086746.81000  22445254.74100  -2973622.56640  22445256.26540
  -9888924.61600  19585333.62400  -7579478.54140  19585333.54240
   1774945.21500  22456724.34300   1400602.83640  22456725.70240
 94  6 23 17 59 59.9950000  0  7  1  2  7  9 14 15 21
 -14715060.35500  20879781.38200 -11123926.67140  20879781.68740
   -692878.48500  21998252.22600   -496767.12940  21998253.49140
 -16815672.69900  20303704.99900 -12897905.62240  20303705.43340
  -7835003.06700  21338710.05400  -5999846.17940  21338709.97240
  -4172480.59200  22428940.35100  -3040428.09040  22428941.88640
  -9911051.45900  19581123.47600  -7596720.25340  19581123.45240
   1794687.76100  22460480.68700   1415986.62740  22460482.28040
 94  6 23 18  0 14.9950000  0  7  1  2  7  9 14 15 21
 -14760350.08900  20871163.10800 -11159217.36540  20871163.40140
   -681316.38500  22000453.14000   -487757.73540  22000454.42940
 -16872110.31800  20292965.33500 -12941882.98440  20292965.67540
  -7849198.13900  21336009.05400  -6010907.22840  21336009.12440
  -4258149.96300  22412637.37400  -3107183.44340  22412638.89840
  -9933015.71600  19576943.43700  -7613835.25140  19576943.30840
   1814508.84900  22464252.70200   1431431.60340  22464253.98040
 94  6 23 18  0 29.9950000  0  7  1  2  7  9 14 15 21
 -14805487.02100  20862573.98300 -11194389.00240  20862574.30040
   -669650.69100  22002672.97600   -478667.64240  22002674.81540
 -16928415.16400  20282250.93700 -12985756.89740  20282251.35840
  -7863236.79900  21333336.94400  -6021846.41840  21333337.03840
  -4343751.71700  22396347.87400  -3173886.10640  22396348.39040
  -9954815.23500  19572795.48300  -7630821.89140  19572795.43740
   1834411.36900  22468040.19400   1446940.03340  22468040.86240
 94  6 23 18  0 44.9950000  0  7  1  2  7  9 14 15 21
 -14850469.57200  20854014.14800 -11229440.33940  20854014.31240
   -657883.11200  22004912.57700   -469498.16040  22004914.08940
 -16984585.87100  20271561.74100 -13029526.25740  20271562.08140
  -7877119.72200  21330695.68700  -6032664.28640  21330696.00340
  -4429285.76600  22380072.13200  -3240536.01340  22380072.69440
  -9976450.77900  19568678.56900  -7647680.76340  19568678.65140
   1854398.24600  22471844.06200   1462514.19040  22471844.73040
 94  6 23 18  0 59.9950000  0  7  1  2  7  9 14 15 21
 -14895292.90100  20845484.35800 -11264367.60440  20845484.51140
   -646012.88400  22007171.17900   -460248.68240  22007173.28840
 -17040619.06000  20260898.94400 -13073188.46040  20260899.40140
  -7890843.57300  21328083.84300  -6043358.19740  21328084.14840
  -4514753.41700  22363808.10100  -3307134.21240  22363809.14440
  -9997921.76300  19564592.20200  -7664411.40640  19564592.16740
   1874471.84900  22475664.18700   1478155.95140  22475664.38640
 94  6 23 18  1 14.9950000  0  7  1  2  7  9 14 15 21
 -14939958.74000  20836984.64800 -11299172.14640  20836984.92940
   -634039.28400  22009448.93700   -450918.66540  22009451.29240
 -17096517.69700  20250262.06900 -13116745.83040  20250262.50340
  -7904409.84700  21325502.52300  -6053929.35640  21325502.89840
  -4600160.00100  22347554.94400  -3373684.84340  22347556.35140
 -10019230.43100  19560537.70200  -7681015.57340  19560537.65540
   1894629.32000  22479499.53800   1493863.06340  22479500.12440
 94  6 23 18  1 29.9950000  0  7  1  2  7  9 14 15 21
 -14984464.88000  20828515.79600 -11333852.24540  20828516.07740
   -621960.23500  22011748.36600   -441506.41540  22011750.59340
 -17152278.32000  20239651.03000 -13160195.66740  20239651.27640
  -7917820.13800  21322950.35800  -6064378.94940  21322950.65140
  -4685508.01400  22331313.75700  -3440189.83940  22331314.90540
 -10040376.29300  19556513.55400  -7697492.87140  19556513.58940
   1914869.56400  22483351.70200   1509634.67340  22483353.01540
 94  6 23 18  1 44.9950000  0  7  1  2  7  9 14 15 21
 -15028811.44400  20820076.71800 -11368407.99640  20820076.95240
   -609775.71500  22014066.89000   -432011.89840  22014068.90540
 -17207895.09500  20229067.41300 -13203533.42240  20229067.76540
  -7931077.89400  21320427.65500  -6074709.66840  21320428.00740
  -4770795.82200  22315084.92900  -3506647.89940  22315086.44040
 -10061357.82500  19552521.00700  -7713842.11240  19552521.03040
   1935194.00500  22487219.00700   1525471.87140  22487220.23740
 94  6 23 18  1 59.9950000  0  7  1  2  7  9 14 15 21
 -15073003.71900  20811667.48300 -11402843.52040  20811667.64840
   -597489.83800  22016404.90500   -422438.43440  22016406.48740
 -17263366.50100  20218511.54600 -13246757.88440  20218511.86240
  -7944185.33300  21317933.11600  -6084923.27540  21317933.55040
  -4856022.12500  22298866.43700  -3573057.97740  22298867.33940
 -10082177.11800  19548559.31200  -7730064.91940  19548559.32340
   1955599.72000  22491102.03000   1541372.38940  22491103.94040
 94  6 23 18  2 14.9950000  0  7  1  2  7  9 14 15 21
 -15117039.92500  20803287.26500 -11437157.43840  20803287.47640
   -585102.49900  22018762.27300   -412785.92740  22018763.65540
 -17318688.28900  20207984.10100 -13289865.77040  20207984.55840
  -7957142.82700  21315467.33500  -6095020.05040  21315467.75740
  -4941185.00500  22282660.35800  -3639418.64240  22282661.51940
 -10102833.12500  19544628.27300  -7746160.50840  19544628.34340
   1976086.91500  22495000.42900   1557336.42140  22495001.61240
 94  6 23 18  2 29.9950000  0  7  1  2  7  9 14 15 21
 -15160923.84000  20794936.86600 -11471352.68940  20794937.01940
   -572616.33100  22021138.35800   -403056.43040  22021139.88240
 -17373861.43300  20197485.00700 -13332857.81440  20197485.38240
  -7969953.74900  21313029.64000  -6105002.60640  21313030.09740
  -5026286.27700  22266465.95200  -3705731.29540  22266467.33540
 -10123327.37300  19540728.56900  -7762130.04440  19540728.53440
   1996651.17900  22498913.36600   1573360.51140  22498914.32740
 94  6 23 18  2 44.9950000  0  7  1  2  7  9 14 15 21
 -15204655.36100  20786615.05400 -11505429.19240  20786615.06540
   -560032.32200  22023533.12400   -393250.70740  22023534.62440
 -17428887.11100  20187014.00700 -13375734.95440  20187014.39440
  -7982617.84000  21310619.78800  -6114870.71940  21310620.29240
  -5111323.92500  22250284.20200  -3771994.38840  22250285.78440
 -10143657.91500  19536859.80400  -7777972.01540  19536859.80440
   2017292.27300  22502841.50700   1589444.44740  22502842.84340
 94  6 23 18  2 59.9950000  0  7  1  2  7  9 14 15 21
 -15248234.98600  20778321.67100 -11539387.33440  20778321.90540
   -547355.40900  22025945.13200   -383372.61640  22025946.85540
 -17483768.07600  20176570.92900 -13418499.34340  20176571.28040
  -7995139.87900  21308236.96800  -6124628.14740  21308237.44840
  -5196298.52900  22234114.36600  -3838208.34140  22234115.60840
 -10163825.55600  19533022.01500  -7793687.05240  19533022.02640
   2038007.47200  22506784.59300   1605586.14040  22506785.55440
 94  6 23 18  3 14.9950000  0  7  1  2  7  9 14 15 21
 -15291664.87700  20770057.47600 -11573228.80740  20770057.81540
   -534586.56400  22028374.64800   -373422.86640  22028375.80840
 -17538506.47800  20166154.12400 -13461152.66840  20166154.62840
  -8007521.87400  21305880.67900  -6134276.48140  21305880.84340
  -5281208.09900  22217957.13200  -3904371.63240  22217958.35140
 -10183831.12900  19529215.36600  -7809275.80940  19529215.24940
   2058792.48900  22510739.31900   1621782.23840  22510740.16340
 94  6 23 18  3 29.9950000  0  7  1  2  7  9 14 15 21
 -15334945.18400  20761820.96000 -11606953.71340  20761821.38240
   -521725.71400  22030822.24100   -363401.42840  22030823.08540
 -17593099.93800  20155765.22600 -13503693.06340  20155765.58940
  -8019766.65000  21303550.49100  -6143817.89740  21303550.81940
  -5366050.33900  22201811.15500  -3970482.44840  22201812.65540
 -10203673.98200  19525438.92900  -7824737.76440  19525438.94040
   2079648.44700  22514707.67900   1638033.60640  22514708.53440
 94  6 23 18  3 44.9950000  0  7  1  2  7  9 14 15 21
 -15378076.26900  20753613.49100 -11640562.33540  20753613.99540
   -508774.66100  22033286.39000   -353309.70540  22033287.92540
 -17647547.41900  20145404.33500 -13546119.66640  20145404.88640
  -8031875.26200  21301246.63200  -6153253.18340  21301246.74940
  -5450823.24500  22185679.06900  -4036539.23340  22185680.25340
 -10223354.33800  19521694.36600  -7840073.10640  19521694.19040
   2100575.71300  22518690.31900   1654340.53340  22518691.08140
 94  6 23 18  3 59.9950000  0  6  1  2  7  9 14 15
 -15421059.22600  20745434.31900 -11674055.54640  20745434.80040
   -495736.75800  22035768.42900   -343150.31040  22035770.72640
 -17701852.99400  20135070.16300 -13588435.70440  20135070.80840
  -8043847.85400  21298968.05400  -6162582.46940  21298968.08940
  -5535527.51300  22169560.28000  -4102542.53740  22169561.35840
 -10242874.08400  19517979.39000  -7855283.29040  19517979.41340
 94  6 23 18  4 14.9950000  0  6  1  2  7  9 14 15
 -15463891.58300  20737283.80400 -11707431.40040  20737284.23740
   -482611.28300  22038265.09300   -332922.67740  22038267.00340
 -17756018.38100  20124762.80400 -13630642.48740  20124763.28440
  -8055682.31700  21296716.24900  -6171804.14040  21296716.84740
  -5620163.55200  22153455.19400  -4168492.68340  22153456.60140
 -10262232.98800  19514295.47600  -7870368.14940  19514295.51140
 94  6 23 18  4 29.9950000  0  6  1  2  7  9 14 15
 -15506569.77000  20729162.39000 -11740687.12840  20729162.70640
   -469394.35800  22040780.92100   -322623.75640  22040782.17540
 -17810044.31100  20114482.21000 -13672740.61440  20114482.65540
  -8067376.77500  21294490.86600  -6180916.70940  21294491.40540
  -5704729.40700  22137362.96800  -4234388.11540  22137363.89440
 -10281428.12200  19510642.96800  -7885325.39740  19510642.87440
 94  6 23 18  4 44.9950000  0  6  1  2  7  9 14 15
 -15549091.06800  20721070.70200 -11773820.59740  20721071.00740
   -456085.08600  22043312.99100   -312252.90140  22043314.08140
 -17863930.90300  20104227.84300 -13714730.18540  20104228.44040
  -8078926.53200  21292292.89000  -6189916.54940  21292293.25340
  -5789224.36900  22121284.19400  -4300228.31940  22121285.76540
 -10300458.87000  19507021.39000  -7900154.55940  19507021.36640
 94  6 23 18  4 59.9950000  0  6  1  2  7  9 14 15
 -15591452.92300  20713009.53800 -11806829.82840  20713009.84340
   -442685.97800  22045862.67100   -301812.04540  22045864.41740
 -17917681.37900  20093999.09300 -13756613.68940  20093999.66740
  -8090334.51900  21290122.06900  -6198805.88940  21290122.37440
  -5873651.61600  22105218.08500  -4366015.76240  22105218.95240
 -10319328.86800  19503430.80400  -7914858.46040  19503430.80440
 94  6 23 18  5 14.9950000  0  6  1  2  7  9 14 15
 -15633655.43800  20704978.44400 -11839714.89540  20704978.70240
   -429195.88800  22048430.37400   -291300.28440  22048432.12040
 -17971293.88700  20083797.35100 -13798389.67540  20083797.96040
  -8101598.19200  21287978.63200  -6207582.79040  21287979.14840
  -5958010.12400  22089165.19400  -4431749.64240  22089165.95640
 -10338038.55200  19499870.61600  -7929437.42840  19499870.55840
 94  6 23 18  5 29.9950000  0  6  1  2  7  9 14 15
 -15675698.65400  20696978.10800 -11872475.84640  20696978.34340
   -415611.49500  22051014.89800   -280715.02240  22051016.38640
 -18024768.30100  20073621.67900 -13840058.05140  20073622.26540
  -8112712.60500  21285863.40500  -6216243.40640  21285863.79240
  -6042299.59100  22073124.73300  -4497429.72840  22073125.83540
 -10356586.92800  19496340.86600  -7943890.71440  19496340.86640
 94  6 23 18  5 44.9950000  0  6  1  2  7  9 14 15
 -15717581.74800  20689007.87400 -11905112.01440  20689008.10840
   -401931.94000  22053618.28800   -270055.61340  22053619.60140
 -18078101.94700  20063472.28000 -13881616.72340  20063472.84340
  -8123673.84200  21283777.81200  -6224784.63840  21283778.28040
  -6126521.84100  22057098.24900  -4563057.45440  22057098.84740
 -10374973.28400  19492842.04600  -7958217.75240  19492841.96440
 94  6 23 18  5 59.9950000  0  6  1  2  7  9 14 15
 -15759305.03500  20681068.13200 -11937623.65540  20681068.42540
   -388157.83100  22056240.20200   -259322.53640  22056241.46840
 -18131296.12300  20053349.67100 -13923066.66340  20053350.18740
  -8134479.50900  21281721.36600  -6233204.62740  21281721.80040
  -6210677.63000  22041084.08500  -4628633.37240  22041085.57340
 -10393199.03000  19489373.57700  -7972419.62140  19489373.47240
 94  6 23 18  6 14.9950000  0  6  1  2  7  9 14 15
 -15800866.00900  20673159.45200 -11970008.83640  20673159.68740
   -374286.92900  22058879.81900   -248514.05240  22058880.61640
 -18184347.43500  20043254.14000 -13964405.25240  20043254.69040
  -8145125.04200  21279695.63200  -6241499.83940  21279695.92540
  -6294764.19300  22025082.93700  -4694155.34940  22025083.87440
 -10411262.14000  19485936.46000  -7986494.77140  19485936.46040
 94  6 23 18  6 29.9950000  0  6  1  2  7  9 14 15
 -15842266.76000  20665281.21800 -12002269.15740  20665281.49940
   -360319.60100  22061537.38200   -237630.41940  22061539.12840
 -18237256.84100  20033185.99100 -14005633.37140  20033186.82340
  -8155611.00300  21277700.53800  -6249670.69340  21277700.90140
  -6378780.91300  22009094.80400  -4759622.90740  22009095.92940
 -10429163.35300  19482529.85800  -8000443.77440  19482529.77640
 94  6 23 18  6 44.9950000  0  6  1  2  7  9 14 15
 -15883508.69300  20657432.90500 -12034405.72640  20657433.25740
   -346260.16400  22064212.74900   -226674.98640  22064213.98040
 -18290023.57900  20023145.02300 -14046750.33440  20023145.66740
  -8165938.41500  21275735.25700  -6257718.03840  21275735.48040
  -6462727.68200  21993120.65500  -4825035.94640  21993121.76940
 -10446903.60500  19479154.02300  -8014267.35540  19479153.98740
 94  6 23 18  6 59.9950000  0  6  1  2  7  9 14 15
 -15924595.47900  20649614.77300 -12066421.40440  20649615.05440
   -332109.96900  22066905.60800   -215648.87740  22066906.51140
 -18342648.36500  20013131.07700 -14087756.67140  20013131.64040
  -8176108.95000  21273799.71800  -6265643.13540  21273799.88240
  -6546606.01200  21977159.15500  -4890395.67840  21977160.57340
 -10464484.82900  19475808.85100  -8027967.03940  19475808.87440
 94  6 23 18  7 14.9950000  0  6  1  2  7  9 14 15
 -15965528.28500  20641825.50700 -12098317.09540  20641825.68340
   -317867.45200  22069615.27300   -204550.78840  22069615.98740
 -18395127.00400  20003144.59300 -14128649.11740  20003145.00340
  -8186122.98100  21271894.22600  -6273446.25240  21271894.82340
  -6630411.21300  21961211.01500  -4955698.41940  21961212.38640
 -10481904.21000  19472493.78000  -8041540.58940  19472493.74540
 94  6 23 18  7 29.9950000  0  6  1  2  7  9 14 15
 -16006312.00300  20634064.56900 -12130096.61340  20634064.74540
   -303537.95600  22072342.28800   -193384.96040  22072343.08540
 -18447460.68700  19993185.72600 -14169428.56840  19993186.23040
  -8195985.72600  21270017.53800  -6281131.50140  21270018.05440
  -6714146.23600  21945277.05400  -5020946.47640  21945278.00340
 -10499164.46000  19469208.99900  -8054990.12940  19469209.14040
 94  6 23 18  7 44.9940000  0  6  1  2  7  9 14 15
 -16046940.11700  20626333.33800 -12161754.88440  20626333.37340
   -289121.08100  22075085.61900   -182151.04740  22075087.07240
 -18499639.96200  19983256.17400 -14210087.74440  19983256.87740
  -8205698.39700  21268169.30700  -6288699.83640  21268169.64740
  -6797802.62600  21929357.80700  -5086133.24840  21929358.44040
 -10516261.76900  19465955.69000  -8068312.71440  19465955.67840
 94  6 23 18  7 59.9940000  0  6  1  2  7  9 14 15
 -16087413.89200  20618631.86900 -12193292.88540  20618631.72940
   -274617.57200  22077845.90000   -170849.65040  22077846.72140
 -18551670.07900  19973355.31500 -14250630.69640  19973355.94740
  -8215266.58600  21266348.31500  -6296155.57740  21266348.52540
  -6881391.81500  21913450.99400  -5151267.67740  21913452.00240
 -10533198.48800  19462732.36100  -8081510.16640  19462732.44340
 94  6 23 18  8 14.9940000  0  6  1  2  7  9 14 15
 -16127731.36400  20610959.40000 -12224709.10140  20610959.37740
   -260032.49000  22080621.26000   -159484.69440  22080622.47940
 -18603549.60200  19963482.77500 -14291056.30040  19963483.31540
  -8224696.08800  21264553.90800  -6303503.26940  21264554.16640
  -6964908.46900  21897558.62700  -5216345.60640  21897559.65840
 -10549975.19600  19459540.10400  -8094582.96340  19459540.23240
 94  6 23 18  8 29.9940000  0  6  1  2  7  9 14 15
 -16167895.84200  20603315.78300 -12256006.10040  20603316.04140
   -245369.45400  22083411.51800   -148058.98740  22083412.95940
 -18655282.71300  19953638.38500 -14331367.75440  19953639.02940
  -8233991.96700  21262785.09600  -6310746.82840  21262785.44740
  -7048352.91000  21881680.19700  -5281367.26840  21881681.49840
 -10566593.46800  19456378.17400  -8107532.29640  19456378.26840
 94  6 23 18  8 44.9940000  0  6  1  2  7  9 14 15
 -16207904.21700  20595702.45500 -12287181.45340  20595702.88940
   -230625.17400  22086217.46300   -136569.96640  22086218.51840
 -18706868.92300  19943822.01800 -14371564.71640  19943822.46340
  -8243154.48500  21261041.44700  -6317886.46140  21261041.84640
  -7131721.78700  21865815.08000  -5346330.07440  21865816.80340
 -10583050.69200  19453246.26800  -8120356.11140  19453246.38540
 94  6 23 18  8 59.9940000  0  6  1  2  7  9 14 15
 -16247756.54100  20588118.98600 -12318235.21240  20588119.23240
   -215799.14400  22089038.63500   -125017.23540  22089039.58440
 -18758310.29900  19934033.04900 -14411648.86540  19934033.63540
  -8252186.34400  21259322.79900  -6324924.28040  21259323.19740
  -7215015.96100  21849964.35400  -5411234.69040  21849965.43240
 -10599348.26500  19450145.08800  -8133055.53840  19450145.25240
 94  6 23 18  9 14.9940000  0  6  1  2  7  9 14 15
 -16287450.61600  20580565.36900 -12349165.66140  20580565.54540
   -200889.32800  22091875.40800   -113399.21640  22091875.91240
 -18809606.42100  19924271.33000 -14451619.82640  19924271.68240
  -8261088.43400  21257628.72100  -6331860.99840  21257629.28340
  -7298235.75300  21834128.69700  -5476081.24240  21834129.37740
 -10615485.96800  19447074.06500  -8145630.38940  19447074.19340
 94  6 23 18  9 29.9940000  0  6  1  2  7  9 14 15
 -16326982.12900  20573042.97100 -12379969.44040  20573043.01840
   -185896.78000  22094729.11100   -101716.74740  22094730.41240
 -18860757.06200  19914537.86100 -14491477.43140  19914538.33040
  -8269860.46900  21255959.24400  -6338696.36940  21255959.54940
  -7381381.99900  21818306.72900  -5540870.56540  21818308.01840
 -10631463.00100  19444033.55700  -8158080.01640  19444033.69740
 94  6 23 18  9 44.9940000  0  6  1  2  7  9 14 15
 -16366353.46000  20565550.82200 -12410648.39940  20565550.70540
   -170820.24100  22097598.39300    -89968.83140  22097599.65840
 -18911766.14300  19904831.17400 -14531224.77040  19904831.69040
  -8278501.22900  21254315.18200  -6345429.44440  21254315.59240
  -7464455.64600  21802497.79900  -5605603.34740  21802499.10040
 -10647281.32800  19441023.41600  -8170405.94640  19441023.54540
 94  6 23 18  9 59.9940000  0  6  1  2  7  9 14 15
 -16405564.15800  20558089.26800 -12441202.19540  20558089.29140
   -155655.50400  22100483.44700    -78152.16940  22100485.05340
 -18962633.54300  19895151.36900 -14570861.72440  19895151.83840
  -8287006.68800  21252696.58800  -6352057.11440  21252696.83440
  -7547455.02200  21786703.44000  -5670278.10940  21786704.62340
 -10662939.71300  19438043.77500  -8182607.31340  19438044.01040
 94  6 23 18 10 14.9940000  0  6  1  2  7  9 14 15
 -16444617.97300  20550657.61900 -12471633.74040  20550657.73640
   -140403.37800  22103385.85400    -66267.43540  22103386.90840
 -19013364.46100  19885497.86900 -14610392.31740  19885498.17440
  -8295376.70400  21251104.15800  -6358579.22240  21251104.31140
  -7630379.60800  21770923.79900  -5734894.73040  21770924.79540
 -10678439.70300  19435094.58000  -8194685.28540  19435094.75640
 94  6 23 18 10 29.9940000  0  6  1  2  7  9 14 15
 -16483517.26500  20543255.18200 -12501944.86940  20543255.54540
   -125063.42000  22106304.93200    -54314.24040  22106306.30340
 -19063958.37700  19875870.09600 -14649816.15240  19875870.35440
  -8303607.60900  21249537.54100  -6364992.94440  21249537.79940
  -7713227.51100  21755158.82200  -5799451.44840  21755159.40840
 -10693780.81000  19432175.18200  -8206639.38140  19432175.27540
 94  6 23 18 10 44.9940000  0  6  1  2  7  9 14 15
 -16522263.81600  20535881.82200 -12532136.98240  20535882.22140
   -109633.65000  22109241.69000    -42291.07340  22109242.94340
 -19114412.09500  19866269.05700 -14689130.70640  19866269.40840
  -8311697.26700  21247998.23600  -6371296.64740  21247998.58840
  -7795999.45900  21739407.40800  -5863949.20740  21739408.40440
 -10708963.07100  19429286.03300  -8218469.72240  19429286.18640
 94  6 23 18 10 59.9940000  0  6  1  2  7  9 14 15
 -16560856.93500  20528537.85400 -12562209.54840  20528538.20540
    -94114.87100  22112194.65800    -30198.55840  22112195.72540
 -19164721.90500  19856695.45500 -14728333.11140  19856695.91240
  -8319642.82100  21246486.47900  -6377488.00240  21246486.78340
  -7878696.27400  21723670.58800  -5928388.35540  21723671.54940
 -10723986.65400  19426426.99400  -8230176.38840  19426427.14740
 94  6 23 18 11 14.9940000  0  6  1  2  7  9 14 15
 -16599296.79000  20521223.29100 -12592162.68640  20521223.31540
    -78511.83300  22115163.11900    -18040.36740  22115164.03340
 -19214883.25600  19847150.00200 -14767419.93240  19847150.48240
  -8327443.08800  21245002.05700  -6383566.16840  21245002.43240
  -7961318.85800  21707948.32200  -5992769.53940  21707948.88540
 -10738852.43400  19423597.92400  -8241760.08640  19423598.13540
 94  6 23 18 11 29.9940000  0  6  1  2  7  9 14 15
 -16637586.98600  20513936.96300 -12621999.19840  20513936.91640
    -62828.90100  22118148.23600     -5819.93440  22118148.94040
 -19264896.46000  19837632.88500 -14806391.29640  19837633.30740
  -8335102.21200  21243544.91600  -6389534.33540  21243545.17440
  -8043867.60800  21692239.94700  -6057093.31440  21692241.15440
 -10753562.82400  19420798.84600  -8253222.72340  19420798.97540
 94  6 23 18 11 44.9940000  0  6  1  2  7  9 14 15
 -16675726.76700  20506678.92400 -12651718.49540  20506678.99440
    -47065.39800  22121147.55700      6463.28140  22121148.55340
 -19314760.56600  19828144.17400 -14845246.47940  19828144.54940
  -8342617.66400  21242114.44700  -6395390.53940  21242114.94040
  -8126339.10700  21676546.08000  -6121356.88740  21676546.58440
 -10768116.73300  19418029.51000  -8264563.41440  19418029.44040
 94  6 23 18 11 59.9940000  0  7  1  2  5  7  9 14 15
 -16713720.20100  20499449.14300 -12681323.76440  20499449.31840
    -31224.10200  22124162.58800     18807.13740  22124163.16240
                  22604585.81500
 -19364474.86300  19818683.89300 -14883984.87240  19818684.31540
  -8349992.28300  21240711.55700  -6401137.01940  21240712.14340
  -8208732.82900  21660866.83000  -6185559.73740  21660867.26440
 -10782514.98400  19415289.29900  -8275782.82540  19415289.49840
 94  6 23 18 12 14.9940000  0  7  1  2  5  7  9 14 15
 -16751562.03200  20492247.91600 -12710810.90040  20492248.23240
    -15306.68000  22127191.83000     31210.29640  22127193.52940
    -75198.57000  22589253.04100
 -19414036.51800  19809252.12700 -14922604.32840  19809252.51440
  -8357226.62200  21239334.44700  -6406774.18640  21239334.85740
  -8291047.00700  21645203.06500  -6249700.63940  21645204.20140
 -10796755.81700  19412579.65800  -8286879.59640  19412579.78740
 94  6 23 18 12 29.9940000  0  7  1  2  5  7  9 14 15
 -16789249.62300  20485076.69000 -12740177.84840  20485077.05340
       687.01400  22130234.13500     43672.85240  22130235.29540
   -155703.43000  22573934.48600
 -19463443.16800  19799850.54100 -14961103.03340  19799851.06840
  -8364319.04400  21237984.69000  -6412300.75440  21237985.14740
  -8373281.24400  21629554.65000  -6313779.21440  21629555.48240
 -10810838.46500  19409899.78300  -8297853.04740  19409899.91240
 94  6 23 18 12 44.9940000  0  7  1  2  5  7  9 14 15
 -16826781.44400  20477934.15000 -12769423.42540  20477934.51440
     16758.09400  22133292.55700     56195.72940  22133293.85740
   -236136.90700  22558628.03300
 -19512693.54800  19790478.44000 -14999479.92140  19790478.74440
  -8371269.38200  21236662.40000  -6417716.61040  21236663.13940
  -8455436.14600  21613920.75200  -6377796.01940  21613921.54940
 -10824763.09900  19407249.94700  -8308703.40240  19407249.95940
 94  6 23 18 12 59.9940000  0  7  1  2  5  7  9 14 15
 -16864156.48200  20470821.89300 -12798546.82840  20470822.25640
     32906.78200  22136366.33000     68779.11640  22136366.96340
   -316499.27200  22543334.80700    -45912.13450  22543334.97140
 -19561790.93900  19781135.62700 -15037737.58440  19781136.01440
  -8378080.96800  21235366.24400  -6423024.34840  21235366.71340
  -8537512.49900  21598302.65000  -6441751.59340  21598303.15440
 -10838531.48900  19404629.83800  -8319432.03740  19404629.97940
 94  6 23 18 13 14.9940000  0  7  1  2  5  7  9 14 15
 -16901374.12600  20463740.09600 -12827547.58940  20463740.29540
     49131.47300  22139453.64300     81421.67440  22139455.15440
   -396788.07700  22528055.41600   -108474.81640  22528056.97540
 -19610738.95200  19771821.11100 -15075878.84340  19771821.47540
  -8384753.21200  21234096.54900  -6428223.49740  21234096.85440
  -8619509.55300  21582698.08800  -6505645.34640  21582698.66240
 -10852144.44500  19402039.39300  -8330039.56740  19402039.52240
 94  6 23 18 13 29.9940000  0  7  1  2  5  7  9 14 15
 -16938433.49600  20456687.65000 -12856425.02340  20456687.81540
     65434.77800  22142555.70500     94125.52440  22142557.05340
   -477002.35000  22512791.72100   -170979.44040  22512792.98640
 -19659542.87600  19762533.86100 -15113907.84640  19762534.24840
  -8391288.92400  21232852.30700  -6433316.27840  21232852.74040
  -8701426.66500  21567110.08800  -6569476.81540  21567111.17840
 -10865601.32900  19399478.63500  -8340525.43340  19399478.56540
 94  6 23 18 13 44.9940000  0  7  1  2  5  7  9 14 15
 -16975335.20000  20449665.32200 -12885179.59740  20449665.58040
     81817.01100  22145673.51000    106890.84140  22145674.48240
   -557141.45600  22497543.19700   -233425.49240  22497544.22940
 -19708208.13900  19753273.16600 -15151828.81440  19753273.44740
  -8397687.99600  21231634.85400  -6438302.58140  21231635.12340
  -8783266.72000  21551536.30700  -6633248.24640  21551536.88140
 -10878903.30400  19396947.23600  -8350890.60440  19396947.20140
 94  6 23 18 13 59.9940000  0  7  1  2  5  7  9 14 15
 -17012077.20900  20442673.74400 -12913809.73040  20442673.63940
     98278.73500  22148806.08800    119718.13240  22148805.63140
   -637202.14400  22482308.11100   -295810.44740  22482307.16240
 -19756732.54800  19744039.59600 -15189640.02740  19744039.97140
  -8403944.44200  21230444.29100  -6443177.73440  21230444.40840
  -8865028.91400  21535978.08000  -6696958.98940  21535978.88940
 -10892048.96700  19394445.97900  -8361133.97540  19394445.92040
 94  6 23 18 14 14.9940000  0  7  1  2  5  7  9 14 15
 -17048659.30600  20435712.43200 -12942315.26340  20435712.45540
    114821.37300  22151954.12700    132608.46040  22151954.50240
   -717181.65800  22467087.69000   -358132.13040  22467087.88940
 -19805115.60400  19734832.69700 -15227341.13040  19734832.95540
  -8410057.66600  21229281.29100  -6447941.28840  21229281.56140
  -8946712.88900  21520433.81500  -6760608.80540  21520434.54140
 -10905038.27000  19391974.12700  -8371255.52640  19391974.10440
 94  6 23 18 14 29.9940000  0  7  1  2  5  7  9 14 15
 -17085081.54000  20428781.53300 -12970696.21140  20428781.56840
    131447.86000  22155118.22900    145564.15440  22155118.92040
   -797079.10600  22451882.41600   -420389.86140  22451883.94040
 -19853357.06300  19725652.20500 -15264931.79440  19725652.24040
  -8416026.68800  21228144.88500  -6452592.47940  21228145.29540
  -9028317.13200  21504904.93200  -6824196.48140  21504905.51840
 -10917871.20700  19389532.21300  -8381255.22540  19389532.17840
 94  6 23 18 14 44.9940000  0  7  1  2  5  7  9 14 15
 -17121345.76200  20421880.70500 -12998954.04540  20421880.75240
    148159.72500  22158298.22900    158586.33640  22158299.30740
   -876892.37700  22436695.67400   -482581.97540  22436698.42840
 -19901457.55400  19716498.99400 -15302412.66540  19716499.38140
  -8421850.74600  21227036.83000  -6457130.73240  21227037.22940
  -9109840.35300  21489391.59600  -6887720.99440  21489392.56840
 -10930546.42700  19387120.04100  -8391132.03040  19387120.06540
 94  6 23 18 14 59.9940000  0  7  1  2  5  7  9 14 15
 -17157455.53300  20415009.09600 -13027091.53140  20415009.13140
    164953.28600  22161493.53300    171672.21440  22161494.97540
   -956620.70900  22421525.33000   -544707.93140  22421526.32640
 -19949417.88000  19707372.72900 -15339784.33540  19707373.06840
  -8427534.29800  21225955.47900  -6461559.47240  21225955.92440
  -9191282.46000  21473893.27500  -6951182.34540  21473893.93240
 -10943065.31700  19384737.83000  -8400887.02140  19384737.84240
 94  6 23 18 15 14.9940000  0  7  1  2  5  7  9 14 15
 -17193410.90700  20408166.80700 -13055108.69940  20408166.79540
    181827.23000  22164703.72900    184820.71340  22164704.72540
  -1036263.11800  22406368.32200   -606766.95440  22406369.03740
 -19997236.05100  19698272.91600 -15377045.23640  19698273.25640
  -8433075.37600  21224900.87700  -6465877.23640  21224901.11140
  -9272645.10900  21458410.94700  -7014581.76640  21458411.75640
 -10955427.51100  19382385.50200  -8410519.91840  19382385.52540
 94  6 23 18 15 29.9940000  0  7  1  2  5  7  9 14 15
 -17229211.93600  20401354.15000 -13083005.60140  20401354.29140
    198777.99800  22167930.22100    198029.07540  22167931.70940
  -1115822.38000  22391228.00200   -668761.15140  22391228.99840
 -20044913.43300  19689200.11900 -15414196.42540  19689200.27240
  -8438476.26800  21223873.07200  -6470085.76540  21223873.10740
  -9353928.62600  21442942.98600  -7077919.55240  21442943.51440
 -10967634.61600  19380062.47100  -8420031.99340  19380062.49440
 94  6 23 18 15 44.9940000  0  7  1  2  5  7  9 14 15
 -17264860.97600  20394570.48600 -13110784.06640  20394570.52240
    215805.71900  22171171.17400    211297.38540  22171171.81840
  -1195298.58200  22376104.42400   -730690.64540  22376105.94740
 -20092445.85500  19680155.08000 -15451234.66840  19680155.31540
  -8443738.37400  21222872.47900  -6474186.12440  21222872.92440
  -9435132.03400  21427490.48600  -7141194.88740  21427491.50640
 -10979686.37700  19377769.22100  -8429422.98840  19377769.11540
 94  6 23 18 15 59.9940000  0  7  1  2  5  7  9 14 15
 -17300361.13300  20387815.16600 -13138446.52140  20387815.07240
    232908.36000  22174424.72100    224624.10140  22174425.24840
  -1274692.80700  22360997.19000   -792556.24240  22360997.99840
 -20139829.19400  19671138.55700 -15488156.74640  19671138.82640
  -8448862.03700  21221897.06500  -6478178.62540  21221897.88540
  -9516254.89900  21412053.41600  -7204407.48440  21412054.15440
 -10991584.74000  19375505.02500  -8438694.46740  19375504.95540
 94  6 23 18 16 14.9940000  0  7  1  2  5  7  9 14 15
 -17335711.01600  20381088.26000 -13165991.87640  20381088.23640
    250089.03100  22177695.13500    238011.62340  22177696.06140
  -1354001.88200  22345905.31500   -854355.48940  22345906.48640
 -20187058.98400  19662150.83000 -15524959.18840  19662151.17040
  -8453850.13400  21220947.09600  -6482065.45440  21220947.63540
  -9597294.28200  21396632.14300  -7267555.05440  21396632.72940
 -11003327.96000  19373270.07200  -8447845.05640  19373270.00240
 94  6 23 18 16 29.9940000  0  7  1  2  5  7  9 14 15
 -17370907.08200  20374390.54900 -13193417.38740  20374390.72540
    267349.37200  22180980.06500    251461.20740  22180981.22540
  -1433223.84900  22330828.85400   -916086.84840  22330829.10040
 -20234133.98800  19653192.69000 -15561641.04140  19653192.98240
  -8458707.14000  21220023.66600  -6485850.13840  21220024.28740
  -9678250.19500  21381226.88500  -7330637.60040  21381227.45940
 -11014915.03700  19371065.37700  -8456873.96740  19371065.31840
 94  6 23 18 16 44.9940000  0  7  1  2  5  7  9 14 15
 -17405949.46600  20367722.01000 -13220723.14440  20367722.31540
    284686.21300  22184278.44000    264970.40940  22184279.01440
  -1512361.36700  22315769.25200   -977752.41140  22315770.13140
 -20281055.11700  19644263.77500 -15598202.96140  19644263.88140
  -8463435.37900  21219124.04100  -6489534.51540  21219124.46340
  -9759123.23100  21365836.61100  -7393655.53040  21365837.54940
 -11026347.21200  19368889.90800  -8465782.16640  19368889.77940
 94  6 23 18 16 59.9940000  0  7  1  2  5  7  9 14 15
 -17440835.37700  20361083.49400 -13247906.97540  20361083.79940
    302096.36100  22187591.56500    278536.72340  22187592.43240
  -1591411.82100  22300726.55700  -1039350.13240  22300728.25640
 -20327820.10800  19635364.69000 -15634643.23040  19635364.97140
  -8468034.91400  21218248.65800  -6493118.57040  21218248.97540
  -9839913.50300  21350462.58000  -7456608.94540  21350463.49440
 -11037624.78700  19366744.16600  -8474569.93040  19366744.17840
 94  6 23 18 17 14.9940000  0  7  1  2  5  7  9 14 15
 -17475560.21500  20354475.57200 -13274965.29240  20354475.76040
    319581.94100  22190919.29900    292161.83640  22190920.71740
  -1670372.69100  22285701.58000  -1100878.03840  22285703.25640
 -20374423.34500  19626496.76000 -15670957.45440  19626497.11140
  -8472502.84800  21217398.34600  -6496600.09040  21217399.31840
  -9920619.55400  21335104.94000  -7519496.75740  21335105.56140
 -11048746.72800  19364627.34600  -8483236.39240  19364627.20540
 94  6 23 18 17 29.9940000  0  7  1  2  5  7  9 14 15
 -17510123.77100  20347898.65000 -13301897.94040  20347898.82640
    337141.21500  22194261.78300    305844.36540  22194263.08440
  -1749246.65100  22270691.79900  -1162338.25140  22270692.15040
 -20420868.96700  19617658.26000 -15707148.84640  19617658.52940
  -8476840.24400  21216573.12700  -6499979.89540  21216573.37340
 -10001240.91200  21319763.36900  -7582318.55740  21319764.14340
 -11059715.15000  19362540.15000  -8491783.19140  19362540.09240
 94  6 23 18 17 44.9940000  0  7  1  2  5  7  9 14 15
 -17544527.07900  20341351.97900 -13328705.71640  20341352.00240
    354777.21800  22197616.14300    319586.66740  22197617.03340
  -1828033.18200  22255699.07200  -1223730.31940  22255699.88140
 -20467153.35900  19608850.38500 -15743214.59240  19608850.63140
  -8481048.73600  21215771.94700  -6503259.24340  21215772.33440
 -10081773.10600  21304438.79900  -7645070.88640  21304439.61940
 -11070528.21600  19360482.64300  -8500208.93140  19360482.66640
 94  6 23 18 17 59.9940000  0  7  1  2  5  7  9 14 15
 -17578774.88300  20334834.89300 -13355392.31740  20334834.92840
    372486.29100  22200985.90000    333385.94540  22200986.20540
  -1906735.45700  22240722.60400  -1285056.73840  22240723.50640
 -20513279.02900  19600073.21300 -15779156.65440  19600073.43640
  -8485132.14000  21214995.08800  -6506441.12940  21214995.26440
 -10162221.08000  21289129.55700  -7707757.59640  21289130.30740
 -11081189.47500  19358453.83800  -8508516.38040  19358453.80340
 94  6 23 18 18 14.9940000  0  6  1  5  7  9 14 15
 -17612857.82000  20328349.16600 -13381950.46040  20328349.23640
  -1985348.52700  22225762.41600  -1346313.65640  22225763.78740
 -20559243.76000  19591326.80700 -15814973.30040  19591327.05340
  -8489085.10600  21214242.98600  -6509521.36640  21214243.24440
 -10242579.13000  21273838.41600  -7770374.23040  21273839.54140
 -11091693.70800  19356454.84600  -8516701.48640  19356454.76440
 94  6 23 18 18 29.9940000  0  6  1  5  7  9 14 15
 -17646777.55100  20321894.34600 -13408381.42640  20321894.36940
  -2063873.48400  22210819.66600  -1407501.88940  22210820.59240
 -20605053.17700  19582609.62700 -15850668.94040  19582610.07240
  -8492907.81500  21213515.76000  -6512500.13740  21213516.06540
 -10322847.98800  21258563.33800  -7832921.35240  21258564.02940
 -11102042.17500  19354485.38500  -8524765.22640  19354485.37340
 94  6 23 18 18 44.9940000  0  6  1  5  7  9 14 15
 -17680536.37800  20315469.95500 -13434687.00340  20315470.02540
  -2142313.79500  22195893.48600  -1468624.21540  22195893.76840
 -20650709.21100  19573921.40000 -15886245.07940  19573921.77540
  -8496598.35600  21212813.23600  -6515375.92540  21212813.38940
 -10403027.65400  21243305.62700  -7895398.97240  21243306.15440
 -11112237.04500  19352545.50200  -8532709.25640  19352545.61940
 94  6 23 18 18 59.9940000  0  6  1  5  7  9 14 15
 -17714135.96400  20309076.31500 -13460868.50240  20309076.56140
  -2220671.09500  22180983.29100  -1529681.83040  22180983.72540
 -20696212.16900  19565261.81500 -15921701.93440  19565262.22540
  -8500152.70600  21212137.11900  -6518145.55440  21212137.61140
 -10483119.35700  21228064.94000  -7957808.06040  21228065.69040
 -11122279.38200  19350634.29900  -8540534.42140  19350634.36940
 94  6 23 18 19 14.9940000  0  6  1  5  7  9 14 15
 -17747576.57700  20302712.75200 -13486926.12240  20302713.06840
  -2298942.36900  22166089.06500  -1590672.41240  22166089.81540
 -20741562.50500  19556632.33000 -15957039.85040  19556632.76440
  -8503569.81100  21211486.16600  -6520808.20040  21211486.58840
 -10563121.79400  21212841.26800  -8020147.62540  21212841.91240
 -11132168.75600  19348752.53300  -8548240.41440  19348752.51040
 94  6 23 18 19 29.9940000  0  6  1  5  7  9 14 15
 -17780858.60600  20296379.38500 -13512860.17440  20296379.69040
  -2377129.44500  22151208.56500  -1651597.38140  22151209.77240
 -20786763.32100  19548031.07200 -15992261.26040  19548031.37740
  -8506849.51600  21210862.06500  -6523363.81140  21210862.44040
 -10643033.46900  21197634.27500  -8082416.45440  21197635.03740
 -11141904.77700  19346900.00200  -8555826.92340  19346900.02540
 94  6 23 18 19 44.9940000  0  6  1  5  7  9 14 15
 -17813985.36800  20290075.37700 -13538673.22840  20290075.70540
  -2455235.15400  22136347.45500  -1712458.94840  22136348.65040
 -20831818.91900  19539457.19000 -16027369.50440  19539457.51840
  -8509993.94400  21210264.10400  -6525814.03640  21210264.18640
 -10722856.61500  21182444.27500  -8144616.28940  21182444.88540
 -11151489.31900  19345076.08800  -8563295.37440  19345076.02940
 94  6 23 18 19 59.9930000  0  6  1  5  7  9 14 15
 -17846950.88900  20283802.48900 -13564360.65240  20283802.88840
  -2533250.31000  22121500.73900  -1773249.98140  22121501.34940
 -20876724.08200  19530911.78600 -16062360.53340  19530912.02140
  -8512998.29100  21209692.70800  -6528155.11540  21209692.94240
 -10802586.87200  21167272.16900  -8206743.77340  21167272.86040
 -11160919.88100  19343281.45800  -8570643.85540  19343281.49340
 94  6 23 18 20 14.9930000  0  6  1  5  7  9 14 15
 -17879757.21600  20277559.73200 -13589924.02640  20277559.91940
  -2611183.86100  22106670.93500  -1833977.41040  22106671.00540
 -20921486.78400  19522394.10700 -16097240.54340  19522394.35340
  -8515862.28500  21209147.20000  -6530386.80940  21209147.54040
 -10882235.87500  21152115.48200  -8268807.90940  21152116.13840
 -11170199.21100  19341515.96600  -8577874.49440  19341515.93140
 94  6 23 18 20 29.9930000  0  6  1  5  7  9 14 15
 -17912403.38300  20271347.43500 -13615362.59440  20271347.56440
  -2689029.59700  22091857.24700  -1894636.42140  22091857.62240
 -20966105.11200  19513903.33300 -16132008.04940  19513903.60340
  -8518584.66100  21208629.23900  -6532508.11640  21208629.63840
 -10961799.71500  21136974.54400  -8330805.68340  21136975.16540
 -11179327.52700  19339778.77800  -8584987.45440  19339778.74340
 94  6 23 18 20 44.9930000  0  6  1  5  7  9 14 15
 -17944885.58300  20265166.15300 -13640673.39940  20265166.17740
  -2766784.42400  22077060.30200  -1955224.58140  22077061.12240
 -21010572.14200  19505441.34100 -16166657.67540  19505441.73940
  -8521162.71300  21208138.98200  -6534517.03140  21208139.67340
 -11041275.89100  21121851.31000  -8392735.15040  21121851.83740
 -11188302.01500  19338070.66100  -8591980.55940  19338070.73240
 94  6 23 18 20 59.9930000  0  6  1  5  7  9 14 15
 -17977207.05000  20259015.49700 -13665858.95740  20259015.56740
  -2844450.83000  22062281.45800  -2015743.84140  22062282.88840
 -21054889.18000  19497007.94200 -16201190.41940  19497008.29440
  -8523601.99900  21207674.66900  -6536417.82140  21207675.25540
 -11120667.64300  21106743.50500  -8454598.83440  21106744.02140
 -11197125.53900  19336391.52800  -8598856.02740  19336391.45840
 94  6 23 18 21 14.9930000  0  6  1  5  7  9 14 15
 -18009369.61500  20252895.36400 -13690920.70140  20252895.48240
  -2922026.56500  22047519.85700  -2076192.46740  22047520.65340
 -21099056.31000  19488603.14600 -16235606.35240  19488603.56740
  -8525904.48100  21207236.58300  -6538211.95540  21207236.93540
 -11199974.16100  21091651.83300  -8516396.11040  21091652.39640
 -11205797.37400  19334741.33300  -8605613.29940  19334741.27440
 94  6 23 18 21 29.9930000  0  6  1  5  7  9 14 15
 -18041374.01500  20246804.98200 -13715859.19840  20246805.06440
  -2999509.96400  22032774.31700  -2136569.11940  22032774.50540
 -21143073.56600  19480227.41100 -16269905.51140  19480227.78640
  -8528071.95100  21206824.45800  -6539900.90540  21206824.50540
 -11279194.34100  21076576.73900  -8578126.08240  21076577.16140
 -11214316.19300  19333120.39600  -8612251.33140  19333120.47840
 94  6 23 18 21 44.9930000  0  6  1  5  7  9 14 15
 -18073225.83900  20240743.78600 -13740678.80640  20240743.97440
  -3076907.46700  22018045.40300  -2196878.85240  22018046.61040
 -21186943.21400  19471879.26300 -16304089.65440  19471879.57940
  -8530108.23700  21206436.48900  -6541487.65140  21206436.66540
 -11358332.50500  21061517.32500  -8639792.17340  21061517.94640
 -11222685.80200  19331527.63000  -8618773.09540  19331527.59540
 94  6 23 18 21 59.9930000  0  6  1  5  7  9 14 15
 -18104924.01800  20234711.99700 -13765378.69240  20234712.17340
  -3154216.12900  22003334.96600  -2257119.35540  22003335.38840
 -21230663.79600  19463559.13800 -16338157.64940  19463559.50140
  -8532013.59000  21206074.19200  -6542972.36940  21206073.81740
 -11437388.72400  21046473.35700  -8701394.40640  21046473.77840
 -11230905.36100  19329963.02800  -8625177.93440  19329963.04040
 94  6 23 18 22 14.9930000  0  6  1  5  7  9 14 15
 -18136468.25400  20228709.38800 -13789958.61340  20228709.65740
  -3231431.49900  21988641.79400  -2317287.18140  21988642.42740
 -21274230.25400  19455269.15300 -16372105.54840  19455269.48240
  -8533789.47600  21205736.31000  -6544356.20340  21205736.40340
 -11516357.15500  21031445.98200  -8762928.22240  21031446.68540
 -11238972.46100  19328428.32500  -8631463.97440  19328428.26740
 94  6 23 18 22 29.9930000  0  6  1  5  7  9 14 15
 -18167864.60400  20222734.46600 -13814423.30040  20222734.58340
  -3308557.73500  21973964.77100  -2377385.56040  21973965.75540
 -21317644.96700  19447007.49700 -16405935.19640  19447007.68540
  -8535442.33500  21205421.66100  -6545644.19240  21205421.81440
 -11595240.12100  21016435.34900  -8824395.45840  21016436.01740
 -11246889.71500  19326922.05200  -8637633.25640  19326922.05240
 94  6 23 18 22 44.9930000  0  6  1  5  7  9 14 15
 -18199115.65200  20216787.91100 -13838774.75540  20216788.11040
  -3385596.13300  21959303.53600  -2437415.42840  21959304.74340
 -21360907.61800  19438774.95000 -16439646.36340  19438775.18540
  -8536973.83500  21205130.06000  -6546837.51940  21205130.22440
 -11674036.11400  21001440.62200  -8885794.93040  21001441.24340
 -11254656.70500  19325443.38800  -8643685.45840  19325443.45840
 94  6 23 18 22 59.9930000  0  6  1  5  7  9 14 15
 -18230222.34100  20210868.34900 -13863013.72640  20210868.38440
  -3462547.70900  21944660.91100  -2497377.67940  21944662.22440
 -21404019.66800  19430570.64600 -16473240.17940  19430570.89240
  -8538386.77700  21204861.39600  -6547938.53340  21204861.86440
 -11752743.33000  20986463.43500  -8947125.21640  20986464.11440
 -11262273.83900  19323994.09100  -8649620.88840  19323994.17340
 94  6 23 18 23 14.9930000  0  6  1  5  7  9 14 15
 -18261183.38700  20204976.77800 -13887139.21840  20204976.76740
  -3539409.56200  21930035.48900  -2557270.04240  21930036.26340
 -21446983.29600  19422395.09100 -16506718.33440  19422395.41940
  -8539680.40000  21204614.97400  -6548946.56440  21204615.11440
 -11831361.59100  20971503.11400  -9008386.19940  20971503.70040
 -11269740.37600  19322573.84900  -8655438.98040  19322574.16540
 94  6 23 18 23 29.9930000  0  6  1  5  7  9 14 15
 -18291998.50200  20199112.74700 -13911150.99040  20199112.78240
  -3616182.55800  21915425.60700  -2617093.14440  21915426.11040
 -21489799.16900  19414248.01300 -16540081.35240  19414248.23540
  -8540852.74700  21204391.87200  -6549860.06940  21204392.10740
 -11909892.22000  20956558.74700  -9069578.87140  20956559.05240
 -11277057.81300  19321181.20000  -8661140.87440  19321181.29440
 94  6 23 18 23 44.9930000  0  6  1  5  7  9 14 15
 -18322661.74900  20193277.92700 -13935044.43540  20193277.99740
  -3692864.53300  21900832.98900  -2676845.31140  21900834.25540
 -21532463.43900  19406129.06700 -16573326.23640  19406129.20840
  -8541902.46100  21204192.23900  -6550678.03540  21204192.52140
 -11988334.22900  20941631.34900  -9130702.50140  20941631.78240
 -11284225.74900  19319816.88800  -8666726.28040  19319816.94640
 94  6 23 18 23 59.9930000  0  6  1  5  7  9 14 15
 -18353167.97500  20187472.89600 -13958815.52440  20187472.94240
  -3769452.48800  21886259.66100  -2736524.19440  21886261.11440
 -21574974.86600  19398039.28600 -16606452.02940  19398039.54440
  -8542829.42100  21204015.93500  -6551400.39540  21204016.48540
 -12066684.54900  20926722.42700  -9191754.67840  20926722.90740
 -11291243.82300  19318481.24700  -8672194.91440  19318481.23540
 94  6 23 18 24 14.9930000  0  6  1  5  7  9 14 15
 -18383514.21800  20181697.99700 -13982461.94940  20181697.98540
  -3845941.89700  21871703.83300  -2796126.31440  21871704.59540
 -21617329.88400  19389979.45000 -16639455.93640  19389979.64940
  -8543630.80700  21203863.86400  -6552024.87240  21203864.55640
 -12144939.21600  20911830.98200  -9252732.33640  20911831.43940
 -11298110.88300  19317174.61400  -8677545.88040  19317174.76740
 94  6 23 18 24 29.9930000  0  6  1  5  7  9 14 15
 -18413702.26900  20175953.49700 -14005985.10940  20175953.45040
  -3922335.15900  21857166.09900  -2855653.51340  21857166.50940
 -21659530.57600  19381948.72400 -16672339.59340  19381948.94640
  -8544307.12800  21203734.70800  -6552551.88940  21203735.21240
 -12223101.60500  20896956.84900  -9313638.09340  20896957.66940
 -11304829.87900  19315896.45000  -8682781.47340  19315896.50940
 94  6 23 18 24 44.9930000  0  6  1  5  7  9 14 15
 -18443729.70700  20170239.42700 -14029383.11340  20170239.42740
  -3998633.35300  21842647.62200  -2915106.62040  21842647.72840
 -21701579.42800  19373947.23900 -16705104.92840  19373947.45040
  -8544854.94100  21203630.49700  -6552978.81640  21203630.93140
 -12301174.48400  20882100.34100  -9374474.11240  20882100.86840
 -11311402.49300  19314645.45000  -8687902.99640  19314645.49740
 94  6 23 18 24 59.9930000  0  6  1  5  7  9 14 15
 -18473592.06700  20164556.90300 -14052652.48640  20164556.92740
  -4074831.87300  21828147.95000  -2974482.07040  21828148.84140
 -21743472.98400  19365975.20800 -16737749.26240  19365975.46640
  -8545268.00900  21203552.02800  -6553300.74840  21203552.48540
 -12379154.04700  20867261.41900  -9435237.40540  20867261.99340
 -11317827.02100  19313422.77800  -8692909.13240  19313422.87240
 94  6 23 18 25 14.9930000  0  6  1  5  7  9 14 15
 -18503290.29300  20158905.14600 -14075793.96240  20158905.19240
  -4150927.18700  21813667.04400  -3033777.11240  21813668.00540
 -21785209.89800  19358032.91900 -16770271.53240  19358033.18940
  -8545546.13100  21203499.58300  -6553517.40940  21203499.70040
 -12457039.58900  20852440.13000  -9495927.41940  20852440.72840
 -11324103.88000  19312228.80200  -8697800.21140  19312228.94240
 94  6 23 18 25 29.9930000  0  6  1  5  7  9 14 15
 -18532824.89800  20153285.03600 -14098807.94040  20153285.24740
  -4226917.64000  21799206.31000  -3092990.40640  21799207.38840
 -21826787.34100  19350120.91900 -16802669.53540  19350121.20040
  -8545684.89600  21203472.45800  -6553625.56040  21203472.90340
 -12534827.93900  20837637.74700  -9556541.71640  20837638.09940
 -11330232.34300  19311062.13000  -8702575.63940  19311062.25940
 94  6 23 18 25 44.9930000  0  6  1  5  7  9 14 15
 -18562202.07000  20147694.54400 -14121699.25040  20147694.86040
  -4302811.59900  21784764.42700  -3152128.53940  21784764.42740
 -21868209.95500  19342238.73900 -16834946.89540  19342238.91540
  -8545691.64200  21203471.23200  -6553630.81940  21203471.59540
 -12612522.90200  20822852.71600  -9617083.23640  20822853.33740
 -11336218.90100  19309922.74700  -8707240.50440  19309922.68940
 94  6 23 18 25 59.9930000  0  6  1  5  7  9 14 15
 -18591416.95500  20142135.38800 -14144464.09540  20142135.44640
  -4378603.62900  21770340.80200  -3211187.23840  21770341.21240
 -21909472.18800  19334386.70800 -16867099.28540  19334386.95440
  -8545562.82400  21203496.01300  -6553530.45940  21203496.76340
 -12690116.25000  20808087.46600  -9677545.58040  20808088.06440
 -11342057.53400  19308812.14600  -8711790.10940  19308812.04040
 94  6 23 18 26 14.9930000  0  6  1  5  7  9 14 15
 -18620476.52800  20136605.33300 -14167107.91940  20136605.48540
  -4454297.62400  21755937.41900  -3270169.57440  21755938.05240
 -21950578.32400  19326563.88000 -16899130.03440  19326564.11440
  -8545300.36600  21203545.84900  -6553325.97840  21203545.88440
 -12767608.19300  20793341.09100  -9737928.89540  20793341.53640
 -11347750.30300  19307728.60700  -8716226.04340  19307728.73540
 94  6 23 18 26 29.9930000  0  6  1  5  7  9 14 15
 -18649383.72100  20131104.63000 -14189633.00940  20131104.84140
  -4529895.82000  21741551.85700  -3329077.25640  21741552.75940
 -21991527.85400  19318771.63800 -16931038.76240  19318771.88440
  -8544906.49900  21203620.27100  -6553018.97340  21203619.91940
 -12845001.83400  20778612.88000  -9798235.60840  20778613.50140
 -11353297.08100  19306673.12200  -8720548.22140  19306673.33340
 94  6 23 18 26 44.9930000  0  6  1  5  7  9 14 15
 -18678133.59500  20125633.59900 -14212035.51040  20125633.69240
  -4605397.74100  21727184.32500  -3387909.88240  21727185.07540
 -22032318.07200  19311009.56000 -16962823.34040  19311009.92340
  -8544379.98100  21203721.01300  -6552608.64140  21203721.20040
 -12922294.83800  20763904.52100  -9858463.91740  20763905.20040
 -11358694.21400  19305646.29400  -8724753.78840  19305646.36440
 94  6 23 18 26 59.9930000  0  6  1  5  7  9 14 15
 -18706730.44800  20120191.91900 -14234318.76840  20120192.07140
  -4680806.00600  21712834.60700  -3446669.54640  21712835.35740
 -22072950.02300  19303277.68500 -16994484.59640  19303278.16540
  -8543725.90400  21203845.28600  -6552099.03140  21203846.15340
 -12999487.22100  20749215.78600  -9918613.81040  20749216.10340
 -11363944.10700  19304647.29400  -8728844.61540  19304647.21240
 94  6 23 18 27 14.9930000  0  6  1  5  7  9 14 15
 -18735175.79500  20114779.03600 -14256483.98240  20114779.11840
  -4756121.71700  21698501.64600  -3505357.09740  21698501.68140
 -22113423.00200  19295575.93500 -17026021.98140  19295576.27440
  -8542947.96900  21203993.31000  -6551492.87340  21203993.67340
 -13076579.86000  20734545.60700  -9978685.98240  20734545.98240
 -11369046.55900  19303676.02100  -8732820.55840  19303676.13840
 94  6 23 18 27 29.9930000  0  6  1  5  7  9 14 15
 -18763470.65100  20109394.93500 -14278531.91640  20109394.98240
  -4831349.56800  21684186.67700  -3563976.16640  21684186.68940
 -22153742.80900  19287902.99700 -17057440.01140  19287903.26740
  -8542050.66200  21204164.15300  -6550793.66840  21204164.38840
 -13153576.65500  20719893.33300 -10038683.47340  20719893.87240
 -11374003.91100  19302732.81000  -8736683.44040  19302732.99740
 94  6 23 18 27 44.9930000  0  6  1  5  7  9 14 15
 -18791607.56300  20104040.63000 -14300456.78440  20104040.48940
  -4906490.91200  21669888.16100  -3622527.86540  21669887.64640
 -22193909.27200  19280259.70800 -17088738.55040  19280259.75540
  -8541034.37600  21204357.77100  -6550001.76040  21204357.87640
 -13230475.82500  20705260.01300 -10098604.89440  20705260.65740
 -11378815.04200  19301817.39600  -8740432.38040  19301817.57140
 94  6 23 18 27 59.9930000  0  6  1  5  7  9 14 15
 -18819585.27100  20098716.45000 -14322257.59340  20098716.27440
  -4981543.99200  21655605.77100  -3681010.77240  21655606.23940
 -22233920.77500  19272646.06000 -17119916.34140  19272646.39940
  -8539902.67900  21204572.75500  -6549119.98840  21204573.45840
 -13307277.52100  20690645.38000 -10158450.38440  20690645.50940
 -11383479.22900  19300929.65300  -8744066.82340  19300929.75940
 94  6 23 18 28 14.9930000  0  6  1  5  7  9 14 15
 -18847403.01100  20093422.94200 -14343933.75140  20093422.88440
  -5056505.28800  21641340.01300  -3739422.13340  21641340.63440
 -22273775.04600  19265061.75500 -17150971.61640  19265062.00140
  -8538653.08900  21204810.53600  -6548146.36640  21204810.97040
 -13383981.70700  20676049.30200 -10218219.87240  20676049.41940
 -11387995.74800  19300070.30200  -8747586.19640  19300070.40740
 94  6 23 18 28 29.9930000  0  6  1  5  7  9 14 15
 -18875063.57600  20088159.18500 -14365487.43340  20088159.11440
  -5131375.81500  21627093.40300  -3797762.75840  21627093.50940
 -22313472.58300  19257507.61400 -17181904.75340  19257507.72040
  -8537285.85800  21205070.95000  -6547080.99740  21205070.85740
 -13460595.18900  20661469.70000 -10277918.67940  20661470.02840
 -11392367.34300  19299238.59100  -8750992.63440  19299238.73240
 94  6 23 18 28 44.9930000  0  6  1  5  7  9 14 15
 -18902565.27000  20082925.88000 -14386917.32240  20082925.83340
  -5206156.52900  21612863.96600  -3856033.42240  21612864.58740
 -22353017.16000  19249982.61400 -17212718.70340  19249982.86040
  -8535801.85500  21205353.18500  -6545924.55540  21205353.24340
 -13537121.30800  20646907.44200 -10337549.39840  20646908.12240
 -11396596.48600  19298433.77100  -8754288.06640  19298433.98240
 94  6 23 18 28 59.9930000  0  6  1  5  7  9 14 15
 -18929913.31000  20077721.57500 -14408227.48340  20077721.61040
  -5280847.58400  21598649.49700  -3914234.25640  21598649.60340
 -22392413.95300  19242485.67700 -17243417.50140  19242485.94640
  -8534203.00400  21205657.20800  -6544678.65240  21205657.41940
 -13613559.20000  20632361.61400 -10397111.37940  20632362.30640
 -11400687.42600  19297655.30200  -8757475.81740  19297655.41940
 94  6 23 18 29 14.9930000  0  6  1  5  7  9 14 15
 -18957103.92200  20072547.37200 -14429414.97540  20072547.34940
  -5355443.11000  21584454.87200  -3972360.60540  21584455.51740
 -22431660.53500  19235017.10700 -17273999.24640  19235017.25940
  -8532485.33900  21205983.92700  -6543340.18440  21205984.37240
 -13689905.70900  20617833.54400 -10456602.15740  20617833.80240
 -11404636.63300  19296903.54400  -8760553.12540  19296903.59140
 94  6 23 18 29 29.9930000  0  6  1  5  7  9 14 15
 -18984135.02500  20067403.44200 -14450478.17040  20067403.44240
  -5429940.05700  21570279.28600  -4030410.17640  21570279.80240
 -22470757.27500  19227577.61400 -17304464.23240  19227577.70840
  -8530646.44100  21206334.65300  -6541907.25740  21206335.01740
 -13766157.55500  20603322.83300 -10516019.17240  20603323.11440
 -11408442.79600  19296179.48200  -8763518.97040  19296179.61040
 94  6 23 18 29 44.9930000  0  6  1  5  7  9 14 15
 -19011008.01000  20062289.75500 -14471418.15740  20062289.77840
  -5504336.37900  21556121.16900  -4088381.31840  21556121.79040
 -22509702.82600  19220166.48900 -17334811.40640  19220166.68940
  -8528687.27100  21206707.39600  -6540380.62040  21206707.44240
 -13842311.54900  20588831.42700 -10575359.94640  20588831.74340
 -11412106.81600  19295482.38800  -8766374.06140  19295482.56440
 94  6 23 18 29 59.9930000  0  6  1  5  7  9 14 15
 -19037724.83700  20057205.80200 -14492236.45940  20057205.87240
  -5578625.90600  21541984.63000  -4146269.24240  21541985.62640
 -22548490.52800  19212785.69200 -17365035.58140  19212785.95040
  -8526604.32300  21207103.42700  -6538757.53840  21207103.61440
 -13918365.58200  20574359.51300 -10634622.82640  20574359.92340
 -11415625.97400  19294812.56000  -8769116.26340  19294812.71240
 94  6 23 18 30 14.9930000  0  6  1  5  7  9 14 15
 -19064287.40300  20052150.96600 -14512934.56240  20052151.16540
  -5652806.95400  21527868.86400  -4204072.62840  21527869.11040
 -22587121.35100  19205434.34100 -17395137.52040  19205434.57540
  -8524396.08400  21207523.73200  -6537036.84540  21207523.27440
 -13994321.41700  20559905.37200 -10693809.17540  20559905.84140
 -11419000.57100  19294170.48900  -8771745.82140  19294170.53640
 94  6 23 18 30 29.9930000  0  6  1  5  7  9 14 15
 -19090693.96300  20047125.90300 -14533511.10940  20047126.13840
  -5726877.74500  21513773.63800  -4261790.10440  21513774.22440
 -22625597.09800  19198112.37200 -17425118.61740  19198112.44240
  -8522061.20000  21207968.52100  -6535217.46440  21207968.88440
 -14070179.77400  20545469.46600 -10752919.57540  20545469.86440
 -11422229.99700  19293555.76300  -8774262.25340  19293555.71640
 94  6 23 18 30 44.9930000  0  6  1  5  7  9 14 15
 -19116947.17600  20042130.20000 -14553968.15240  20042130.58740
  -5800842.32600  21499697.98900  -4319424.82940  21499699.26740
 -22663923.56300  19190818.85700 -17454983.38840  19190818.86840
  -8519606.06300  21208435.39600  -6533304.37840  21208435.84140
 -14145940.31000  20531053.07500 -10811953.72940  20531053.32140
 -11425317.82400  19292968.40300  -8776668.34240  19292968.40340
 94  6 23 18 30 59.9930000  0  6  1  5  7  9 14 15
 -19143043.51700  20037164.25500 -14574302.96840  20037164.64240
  -5874697.04900  21485643.88800  -4376973.95940  21485644.54440
 -22702097.47000  19183554.97400 -17484729.29440  19183555.06740
  -8517029.55500  21208925.06000  -6531296.69840  21208925.35340
 -14221594.35300  20516656.66100 -10870904.91140  20516657.21240
 -11428261.44200  19292408.16100  -8778962.06540  19292408.34940
 94  6 23 18 31 14.9930000  0  6  1  5  7  9 14 15
 -19168983.81700  20032227.76300 -14594516.19240  20032228.02140
  -5948441.75000  21471610.68500  -4434437.33540  21471610.93140
 -22740115.71200  19176320.29400 -17514353.89540  19176320.34140
  -8514332.17800  21209438.32500  -6529194.82540  21209438.43140
 -14297142.95800  20502279.96600 -10929773.92640  20502280.48240
 -11431060.44100  19291875.64600  -8781143.09540  19291875.77440
 94  6 23 18 31 29.9930000  0  6  1  5  7  9 14 15
 -19194768.94300  20027321.30200 -14614608.51040  20027321.59540
  -6022077.61400  21457598.45000  -4491815.90540  21457598.45040
 -22777977.86100  19169115.64600 -17543856.86640  19169115.77440
  -8511515.78000  21209974.95800  -6527000.27340  21209975.62640
 -14372588.71000  20487923.30200 -10988562.80440  20487923.93540
 -11433716.73200  19291370.41900  -8783212.93540  19291370.37240
 94  6 23 18 31 44.9930000  0  6  1  5  7  9 14 15
 -19220400.34400  20022443.63000 -14634581.03240  20022443.93540
  -6095604.16900  21443606.92700  -4549109.30640  21443607.23240
 -22815683.72100  19161940.31000 -17573238.05640  19161940.41540
  -8508580.96400  21210533.73200  -6524713.43040  21210533.74340
 -14447932.67200  20473585.73200 -11047272.37140  20473586.16540
 -11436231.82400  19290891.57500  -8785172.74140  19290891.49340
 94  6 23 18 31 59.9930000  0  6  1  5  7  9 14 15
 -19245873.34700  20017596.22400 -14654430.11940  20017596.45840
  -6169019.63600  21429635.99700  -4606316.14540  21429636.53640
 -22853229.09800  19154795.56000 -17602494.19140  19154795.79440
  -8505522.35600  21211115.48900  -6522330.12940  21211116.01740
 -14523174.10900  20459267.90300 -11105902.04440  20459268.39640
 -11438603.25200  19290439.73200  -8787020.61040  19290439.90740
 94  6 23 18 32 14.9930000  0  6  1  5  7  9 14 15
 -19271182.98100  20012780.13000 -14674151.91440  20012780.28240
  -6242323.65200  21415686.71600  -4663436.15040  21415687.54840
 -22890615.16900  19147681.48900 -17631626.18640  19147681.67740
  -8502339.20200  21211721.20800  -6519849.84840  21211721.68940
 -14598312.99800  20444968.82500 -11164451.80540  20444969.20040
 -11440829.74700  19290016.89600  -8788755.54640  19290016.96640
 94  6 23 18 32 29.9920000  0  6  1  5  7  9 14 15
 -19296327.92600  20007995.46900 -14693745.38540  20007995.59840
  -6315515.11700  21401759.03100  -4720468.42840  21401759.77040
 -22927843.85700  19140596.72700 -17660635.55440  19140596.87940
  -8499035.77200  21212350.00800  -6517275.82140  21212350.80540
 -14673342.83200  20430691.34400 -11222916.60440  20430691.88340
 -11442913.79500  19289620.21900  -8790379.47340  19289620.30140
 94  6 23 18 32 44.9920000  0  6  1  5  7  9 14 15
 -19321313.74000  20003240.71100 -14713214.86340  20003240.79340
  -6388606.26000  21387850.33600  -4777422.54640  21387850.95740
 -22964919.57600  19133541.32000 -17689525.71740  19133541.52040
  -8495612.03800  21213001.57000  -6514607.99840  21213001.84040
 -14748272.42100  20416432.97700 -11281303.30340  20416433.39940
 -11444855.86700  19289250.07800  -8791892.78240  19289250.59440
 94  6 23 18 32 59.9920000  0  6  1  5  7  9 14 15
 -19346140.01300  19998516.43000 -14732560.01640  19998516.48840
  -6461592.41800  21373961.61700  -4834294.85840  21373961.78140
 -23001841.28500  19126515.60900 -17718295.87340  19126515.71540
  -8492067.69200  21213675.57800  -6511846.16640  21213675.60240
 -14823095.74200  20402194.55500 -11339607.17040  20402194.93040
 -11446657.28000  19288907.82800  -8793296.49240  19288907.94540
 94  6 23 18 33 14.9920000  0  6  1  5  7  9 14 15
 -19370808.20800  19993822.34400 -14751781.99140  19993822.40240
  -6534472.43600  21360093.21100  -4891084.45840  21360093.43440
 -23038610.90700  19119518.15600 -17746947.52540  19119518.21540
  -8488403.45800  21214372.64100  -6508990.93440  21214372.98140
 -14897818.79000  20387975.22700 -11397832.91840  20387975.35640
 -11448318.84000  19288591.77400  -8794591.22240  19288591.72740
 94  6 23 18 33 29.9920000  0  6  1  5  7  9 14 15
 -19395320.46300  19989157.70300 -14770882.45740  19989157.80940
  -6607247.46100  21346243.80500  -4947792.27540  21346244.39140
 -23075231.81800  19112550.00800 -17775483.28740  19112550.07840
  -8484623.34100  21215092.68800  -6506045.36840  21215092.99240
 -14972443.99300  20373774.47700 -11455982.42040  20373774.45340
 -11449842.34100  19288301.39900  -8795778.37240  19288301.34040
 94  6 23 18 33 44.9920000  0  6  1  5  7  9 14 15
 -19419672.59400  19984523.78100 -14789858.15040  19984524.00440
  -6679915.01300  21332415.88300  -5004416.32340  21332416.09440
 -23111700.87000  19105609.73400 -17803900.72940  19105609.84040
  -8480725.90700  21215834.85900  -6503008.40540  21215834.68440
 -15046965.05700  20359593.78900 -11514050.76340  20359594.03540
 -11451225.47100  19288038.38300  -8796856.15440  19288038.39540
 94  6 23 18 33 59.9920000  0  6  1  5  7  9 14 15
 -19443868.47900  19979919.26600 -14808712.10040  19979919.53540
  -6752480.00100  21318607.24200  -5060960.46740  21318607.73440
 -23148022.21100  19098697.73400 -17832203.07240  19098697.84040
  -8476715.11500  21216597.30500  -6499883.11940  21216597.28140
 -15121382.60400  20345432.46100 -11572038.43740  20345432.73140
 -11452470.80600  19287801.57000  -8797826.54740  19287801.44140
 94  6 23 18 34 14.9920000  0  6  1  5  7  9 14 15
 -19467907.61200  19975345.02400 -14827443.89340  19975345.14140
  -6824941.01400  21304818.07000  -5117423.58140  21304818.46940
 -23184192.31000  19091814.79700 -17860387.56640  19091814.84440
  -8472590.67900  21217382.04700  -6496669.26440  21217382.41040
 -15195691.96100  20331291.76600 -11629941.81040  20331292.00040
 -11453574.98600  19287591.33600  -8798686.94540  19287591.23140
 94  6 23 18 34 29.9920000  0  6  1  5  7  9 14 15
 -19491794.45000  19970799.45300 -14846057.01940  19970799.32440
  -6897298.17300  21291049.67200  -5173805.77340  21291050.16440
 -23220211.81000  19084960.64100 -17888454.70440  19084960.92240
  -8468356.09200  21218188.15600  -6493369.60540  21218188.89540
 -15269893.09600  20317171.79700 -11687760.86240  20317172.12540
 -11454539.27200  19287407.47700  -8799438.34340  19287407.62940
 94  6 23 18 34 44.9920000  0  6  1  5  7  9 14 15
 -19515533.72600  19966282.04700 -14864555.15440  19966281.93040
  -6969552.16500  21277299.86700  -5230107.57540  21277300.13740
 -23256079.14800  19078135.74200 -17916403.28140  19078135.83640
  -8464010.46800  21219014.70300  -6489983.44240  21219014.58640
 -15343988.19400  20303071.83600 -11745497.28740  20303072.19940
 -11455365.82000  19287250.49200  -8800082.41040  19287250.59840
 94  6 23 18 34 59.9920000  0  6  1  5  7  9 14 15
 -19539125.97500  19961792.68800 -14882938.72640  19961792.73440
  -7041702.42500  21263569.53100  -5286328.55140  21263570.21140
 -23291791.48600  19071339.63300 -17944231.07640  19071339.72740
  -8459553.94700  21219863.46100  -6486510.81040  21219863.68440
 -15417977.05500  20288992.43000 -11803150.92640  20288992.73440
 -11456055.12100  19287119.28900  -8800619.52040  19287119.40640
 94  6 23 18 35 14.9920000  0  6  1  5  7  9 14 15
 -19562569.45200  19957331.29700 -14901206.37540  19957331.25040
  -7113745.64700  21249860.92200  -5342466.10340  21249861.22740
 -23327344.74700  19064573.98400 -17971934.92240  19064574.03140
  -8454987.16900  21220731.93000  -6482952.27440  21220732.85640
 -15491858.92900  20274932.71900 -11860721.20340  20274933.11740
 -11456604.99800  19287014.60900  -8801047.99040  19287014.51640
 94  6 23 18 35 29.9920000  0  6  1  5  7  9 14 15
 -19585865.69700  19952898.01600 -14919359.28240  19952898.18040
  -7185684.81300  21236171.13300  -5398522.57040  21236172.03540
 -23362735.95300  19057839.60900 -17999512.48340  19057839.64540
  -8450310.74900  21221621.62500  -6479308.29640  21221622.02440
 -15565632.17000  20260894.21900 -11918206.83440  20260894.51240
 -11457015.74000  19286936.34400  -8801368.04840  19286936.27440
 94  6 23 18 35 44.9920000  0  6  1  5  7  9 14 15
 -19609016.50500  19948492.61700 -14937398.86440  19948492.68840
  -7257524.26900  21222500.78100  -5454501.35740  21222501.27440
 -23397963.03100  19051135.93800 -18026962.15640  19051135.93840
  -8445524.25200  21222532.50000  -6475578.55840  21222532.92240
 -15639294.23100  20246877.10900 -11975605.83440  20246877.37940
 -11457289.86800  19286884.25000  -8801581.65340  19286884.29740
 94  6 23 18 35 59.9920000  0  6  1  5  7  9 14 15
 -19632020.26200  19944115.24200 -14955323.87340  19944115.31340
  -7329259.31500  21208849.75000  -5510398.79240  21208850.31340
 -23433023.99400  19044463.91400 -18054282.38340  19044463.91440
  -8440621.18100  21223466.13300  -6471758.02140  21223466.32040
 -15712844.18400  20232880.57800 -12032917.47940  20232880.89540
 -11457423.74200  19286859.07000  -8801685.97740  19286858.93040
 94  6 23 18 36 14.9920000  0  6  1  5  7  9 14 15
 -19654880.80800  19939765.09400 -14973137.29640  19939765.05940
  -7400892.10900  21195218.33600  -5566216.54940  21195219.30940
 -23467921.24200  19037823.34400 -18081475.04640  19037823.48440
  -8435602.17600  21224420.76600  -6467847.07840  21224421.41040
 -15786289.04500  20218904.95300 -12090147.22640  20218905.25840
 -11457420.55500  19286859.53100  -8801683.49540  19286859.34440
 94  6 23 18 36 29.9920000  0  6  1  5  7  9 14 15
 -19677599.19000  19935442.03100 -14990839.92740  19935441.92640
  -7472423.00300  21181606.88300  -5621954.90240  21181607.80940
 -23502658.73700  19031212.78900 -18108543.22840  19031212.97740
  -8430471.09000  21225397.18000  -6463848.88940  21225398.17640
 -15859633.96600  20204947.55500 -12147299.09740  20204947.89540
 -11457283.53000  19286885.45300  -8801576.72340  19286885.35940
 94  6 23 18 36 44.9920000  0  6  1  5  7  9 14 15
 -19700165.89800  19931147.66400 -15008424.37240  19931147.60640
  -7543844.48000  21168015.61700  -5677607.99940  21168016.10940
 -23537230.98500  19024634.14900 -18135482.64340  19024634.17240
  -8425218.67600  21226396.70300  -6459756.12540  21226398.00440
 -15932873.74000  20191010.56300 -12204369.04140  20191010.96140
 -11457006.79600  19286938.00800  -8801361.08840  19286937.55140
 94  6 23 18 36 59.9920000  0  6  1  5  7  9 14 15
 -19722579.56900  19926882.48400 -15025889.56540  19926882.55540
  -7615158.43500  21154444.92200  -5733177.33140  21154445.67240
 -23571639.97500  19018086.35900 -18162294.84240  19018086.30140
  -8419845.79400  21227419.56300  -6455569.47340  21227420.04340
 -16006008.33300  20177093.54700 -12261357.02740  20177093.95740
 -11456590.59400  19287017.63300  -8801036.77940  19287017.48140
 94  6 23 18 37 14.9920000  0  6  1  5  7  9 14 15
 -19744840.28700  19922646.31300 -15043235.58740  19922646.47740
  -7686367.40200  21140895.00000  -5788664.80540  21140895.29340
 -23605890.59900  19011568.80500 -18188983.64540  19011568.89940
  -8414356.46200  21228464.18800  -6451292.00240  21228464.08240
 -16079040.35500  20163196.04700 -12318265.08340  20163196.52740
 -11456036.87700  19287122.64100  -8800605.31440  19287122.54740
 94  6 23 18 37 29.9920000  0  6  1  5  7  9 14 15
 -19766944.96500  19918439.92200 -15060460.00840  19918440.01640
  -7757470.44700  21127364.03900  -5844069.79040  21127364.53140
 -23639984.55000  19005080.78100 -18215550.36540  19005080.80540
  -8408749.56800  21229530.44500  -6446922.99440  21229530.84440
 -16151972.03300  20149317.67200 -12375094.95140  20149318.22340
 -11455346.15100  19287254.18800  -8800067.08840  19287254.18840
 94  6 23 18 37 44.9920000  0  6  1  5  7  9 14 15
 -19788891.39900  19914263.94500 -15077561.12740  19914263.80540
  -7828466.47700  21113853.28100  -5899391.36940  21113854.25440
 -23673924.89500  18998622.64100 -18241997.38840  18998622.55940
  -8403021.84100  21230620.65600  -6442459.87040  21230622.19140
 -16224803.15900  20135458.06300 -12431846.46440  20135458.34440
 -11454519.94700  19287411.27400  -8799423.29840  19287411.19140
 94  6 23 18 37 59.9920000  0  6  1  5  7  9 14 15
 -19810676.74300  19910118.36700 -15094536.72340  19910118.29740
  -7899349.18600  21100365.21100  -5954624.62940  21100365.80940
 -23707710.77100  18992193.21100 -18268324.04740  18992193.21140
  -8397171.45900  21231733.69500  -6437901.17040  21231734.22340
 -16297532.45600  20121618.10900 -12488518.63240  20121618.48440
 -11453555.88900  19287594.99200  -8798672.08540  19287594.79340
 94  6 23 18 38 14.9920000  0  6  1  5  7  9 14 15
 -19832302.78900  19906002.87500 -15111388.18540  19906002.81640
  -7970123.31000  21086897.77400  -6009773.28640  21086898.00840
 -23741346.76200  18985792.25000 -18294533.91240  18985792.42640
  -8391204.77700  21232869.71100  -6433251.80240  21232870.13340
 -16370164.23200  20107796.87500 -12545114.81440  20107797.27440
 -11452457.96400  19287803.96900  -8797816.56240  19287803.78140
 94  6 23 18 38 29.9920000  0  6  1  5  7  9 14 15
 -19853768.06100  19901918.17200 -15128114.36340  19901918.18440
  -8040791.22900  21073449.95300  -6064839.21340  21073450.31640
 -23774833.84200  18979420.00800 -18320627.74240  18979420.18440
  -8385128.35700  21234026.20300  -6428516.94340  21234026.22740
 -16442696.77200  20093994.66400 -12601633.66840  20093995.06340
 -11451228.41400  19288037.86700  -8796858.47640  19288037.98440
 94  6 23 18 38 44.9920000  0  6  1  5  7  9 14 15
 -19875064.53200  19897865.38300 -15144709.02440  19897865.40640
  -8111346.11000  21060023.25800  -6119817.02640  21060023.85640
 -23808166.04400  18973076.85200 -18346600.88840  18973076.94540
  -8378936.21500  21235203.75000  -6423691.91140  21235204.51240
 -16515120.83100  20080212.50000 -12658068.00440  20080212.68840
 -11449861.01500  19288298.05500  -8795792.97140  19288297.98440
 94  6 23 18 38 59.9920000  0  6  1  5  7  9 14 15
 -19896195.69200  19893844.28100 -15161174.86640  19893844.46940
  -8181790.52500  21046618.17200  -6174708.76640  21046618.93440
 -23841341.70800  18966763.95300 -18372452.05340  18966764.08240
  -8372628.49400  21236404.17200  -6418776.85140  21236405.43840
 -16587435.61000  20066451.60200 -12714417.17940  20066451.64940
 -11448357.32800  19288584.41400  -8794621.27140  19288584.20340
 94  6 23 18 39 14.9920000  0  6  1  5  7  9 14 15
 -19917161.49400  19889854.61700 -15177511.86340  19889854.66440
  -8252123.24500  21033234.84400  -6229513.48240  21033235.20740
 -23874361.03100  18960480.32000 -18398181.39740  18960480.35640
  -8366207.91100  21237626.68000  -6413773.83040  21237627.48840
 -16659640.10900  20052711.24200 -12770680.41240  20052711.33640
 -11446718.47300  19288896.19500  -8793344.24140  19288895.73840
 94  6 23 18 39 29.9920000  0  6  1  5  7  9 14 15
 -19937961.59600  19885896.50800 -15193719.74140  19885896.60240
  -8322340.75900  21019872.85200  -6284228.42640  21019873.23840
 -23907221.28900  18954227.43800 -18423786.78740  18954227.53140
  -8359673.53700  21238870.82800  -6408682.12240  21238871.29740
 -16731732.26400  20038992.61700 -12826856.11240  20038992.79340
 -11444943.84600  19289233.73400  -8791961.41440  19289233.61740
 94  6 23 18 39 44.9920000  0  6  1  5  7  9 14 15
 -19958600.84600  19881969.19500 -15209802.28040  19881969.30140
  -8392442.36500  21006532.64900  -6338853.03240  21006533.01240
 -23939921.78000  18948004.68000 -18449267.69540  18948004.84440
  -8353027.07700  21240134.63300  -6403503.02740  21240135.11340
 -16803711.42600  20025295.10200 -12882943.76640  20025295.19540
 -11443035.80900  19289596.89100  -8790474.64540  19289596.96140
 94  6 23 18 39 59.9920000  0  6  1  5  7  9 14 15
 -19979083.06600  19878071.57000 -15225762.46040  19878071.44140
  -8462426.78700  20993215.12500  -6393386.31840  20993215.35940
 -23972461.40600  18941812.79700 -18474623.24540  18941812.96140
  -8346272.04300  21241419.63300  -6398239.37740  21241420.44140
 -16875574.75300  20011620.63300 -12938941.16640  20011620.94940
 -11440993.51100  19289985.46100  -8788883.25940  19289985.27440
 94  6 23 18 40 14.9920000  0  6  1  5  7  9 14 15
 -19999417.37400  19874202.13300 -15241607.36540  19874201.99240
  -8532300.93500  20979918.10200  -6447833.69840  20979918.87540
 -24004845.16900  18935650.28900 -18499857.34240  18935650.58240
  -8339417.24900  21242724.64900  -6392898.00240  21242725.09440
 -16947327.31000  19997966.55500 -12994852.22540  19997966.88340
 -11438822.10800  19290398.61700  -8787191.25840  19290398.25440
 94  6 23 18 40 29.9920000  0  6  1  5  7  9 14 15
 -20019600.82800  19870361.06300 -15257334.72740  19870361.33240
  -8602062.45800  20966643.57000  -6502193.30540  20966644.44940
 -24037069.97500  18929517.81300 -18524967.58140  18929518.12940
  -8332461.67900  21244048.03900  -6387478.10040  21244048.03940
 -17018965.96700  19984333.75800 -13050674.55140  19984333.86340
 -11436518.86500  19290836.71900  -8785396.52940  19290836.33240
 94  6 23 18 40 44.9920000  0  6  1  5  7  9 14 15
 -20039635.95600  19866548.38300 -15272946.52340  19866548.58240
  -8671705.71300  20953390.85200  -6556460.78940  20953391.49640
 -24069135.24800  18923416.37500 -18549953.50940  18923416.78540
  -8325402.08400  21245392.02400  -6381977.14340  21245392.14140
 -17090488.85100  19970723.71100 -13106406.65740  19970723.78140
 -11434082.54200  19291300.32000  -8783498.10540  19291300.20340
 94  6 23 18 40 59.9920000  0  6  1  5  7  9 14 15
 -20059528.18500  19862763.42200 -15288446.96240  19862763.56340
  -8741231.07000  20940160.12500  -6610636.39440  20940160.64140
 -24101042.04600  18917344.50000 -18574815.95340  18917344.78140
  -8318237.44400  21246754.94500  -6376394.34140  21246755.14540
 -17161897.26400  19957134.79700 -13162049.56240  19957134.92640
 -11431514.73300  19291789.23400  -8781497.22040  19291788.96540
 94  6 23 18 41 14.9920000  0  6  1  5  7  9 14 15
 -20079276.17200  19859005.31300 -15303835.00340  19859005.38340
  -8810635.79400  20926953.52400  -6664717.96840  20926953.78140
 -24132789.97900  18911303.18000 -18599554.60540  18911303.40240
  -8310968.92800  21248137.47700  -6370730.56040  21248138.49640
 -17233190.03100  19943568.66400 -13217602.35840  19943568.77040
 -11428814.90300  19292302.76600  -8779393.46040  19292302.57840
 94  6 23 18 41 29.9920000  0  6  1  5  7  9 14 15
 -20098880.10500  19855274.95300 -15319110.80440  19855275.02440
  -8879919.56600  20913768.56300  -6718705.27640  20913768.98440
 -24164379.40200  18905291.64100 -18624169.74440  18905291.87540
  -8303596.70200  21249541.11700  -6364986.02740  21249541.50440
 -17304365.11600  19930024.50800 -13273063.45040  19930024.63740
 -11425981.95500  19292842.30500  -8777185.97840  19292842.05940
 94  6 23 18 41 44.9920000  0  6  1  5  7  9 14 15
 -20118339.49900  19851572.00800 -15334273.97640  19851572.18440
  -8949080.17300  20900608.22700  -6772596.61440  20900609.48140
 -24195809.33500  18899310.41400 -18648660.61140  18899310.71940
  -8296118.18300  21250964.51600  -6359158.64440  21250964.50440
 -17375418.70100  19916503.44500 -13328429.87240  19916503.69140
 -11423013.07700  19293407.16400  -8774872.56940  19293407.08240
 94  6 23 18 41 59.9920000  0  6  1  5  7  9 14 15
 -20137656.38500  19847895.98400 -15349326.09640  19847896.10240
  -9018120.56000  20887470.28900  -6826394.29140  20887471.09840
 -24227086.27400  18893358.86700 -18673032.25540  18893359.26640
  -8288536.48400  21252407.53900  -6353250.83540  21252407.44540
 -17446354.32400  19903004.60900 -13383704.37840  19903004.90240
 -11419911.58800  19293997.07000  -8772455.82740  19293996.71940
 94  6 23 18 42 14.9920000  0  6  1  5  7  9 14 15
 -20156829.86100  19844247.04700 -15364266.47240  19844247.27040
  -9087045.14300  20874354.14900  -6880101.71340  20874355.06340
 -24258213.41200  18887435.49200 -18697287.16740  18887435.93840
  -8280851.97600  21253869.03100  -6347262.93840  21253869.40640
 -17517174.00800  19889528.03900 -13438888.53640  19889528.14540
 -11416679.34800  19294612.46100  -8769937.20240  19294612.08640
 94  6 23 18 42 29.9920000  0  6  1  5  7  9 14 15
 -20175853.63600  19840627.30500 -15379090.20540  19840627.41040
  -9155849.60700  20861261.16400  -6933715.57840  20861261.49240
 -24289186.60200  18881541.64900 -18721422.11840  18881541.95340
  -8273058.70800  21255351.64100  -6341190.36140  21255352.74240
 -17587873.59300  19876074.49200 -13493979.11440  19876074.44540
 -11413313.69200  19295252.82800  -8767314.62040  19295252.54740
 94  6 23 18 42 44.9920000  0  6  1  5  7  9 14 15
 -20194727.77200  19837035.96900 -15393797.33940  19837035.95740
  -9224533.60200  20848190.93800  -6987235.57940  20848191.06640
 -24320007.17900  18875676.70300 -18745438.15740  18875676.92640
  -8265155.48900  21256856.60200  -6335032.05440  21256857.07040
 -17658454.77900  19862643.22700 -13548977.42540  19862643.46140
 -11409816.91200  19295918.07800  -8764589.86840  19295917.94940
 94  6 23 18 42 59.9920000  0  6  1  5  7  9 14 15
 -20213453.25400  19833472.53100 -15408388.63040  19833472.49640
  -9293100.46900  20835143.14100  -7040664.25940  20835143.75040
 -24350676.69800  18869840.63300 -18769336.48840  18869840.78540
  -8257143.41000  21258381.85200  -6328788.87140  21258381.39540
 -17728919.79900  19849233.91400 -13603885.22140  19849234.11340
 -11406191.21500  19296607.97700  -8761764.66040  19296607.93040
 94  6 23 18 43 14.9920000  0  6  1  5  7  9 14 15
 -20232028.01900  19829937.66400 -15422862.49040  19829937.72340
  -9361556.02300  20822116.57000  -7094006.22040  20822117.08640
 -24381195.23300  18864033.05500 -18793117.16640  18864033.24240
  -8249026.25700  21259925.35200  -6322463.76240  21259924.87140
 -17799272.90100  19835846.46100 -13658705.81040  19835846.60240
 -11402439.19400  19297321.89900  -8758841.01340  19297321.74640
 94  6 23 18 43 29.9920000  0  6  1  5  7  9 14 15
 -20250447.89700  19826432.57800 -15437215.65140  19826432.53140
  -9429897.89600  20809111.29700  -7147259.63540  20809112.12940
 -24411557.98200  18858255.64900 -18816776.45340  18858255.85940
  -8240799.16400  21261490.71900  -6316053.07240  21261491.31640
 -17869510.71900  19822480.66400 -13713436.56340  19822480.95740
 -11398556.47900  19298061.10900  -8755815.52140  19298060.93440
 94  6 23 18 43 44.9920000  0  6  1  5  7  9 14 15
 -20268715.67600  19822956.14100 -15451450.29040  19822956.34040
  -9498127.29500  20796127.98400  -7200425.38740  20796128.64140
 -24441768.13100  18852506.32800 -18840316.83140  18852506.51640
  -8232462.60100  21263076.97700  -6309557.09540  21263077.86740
 -17939635.33900  19809136.39100 -13768079.11940  19809136.52040
 -11394544.86200  19298824.14100  -8752689.58540  19298824.14140
 94  6 23 18 43 59.9920000  0  6  1  5  7  9 14 15
 -20286829.19800  19819509.32800 -15465564.72340  19819509.41040
  -9566238.42100  20783166.44500  -7253498.97940  20783166.89140
 -24471823.25500  18846787.30500 -18863736.40840  18846787.57440
  -8224015.69300  21264685.52400  -6302975.12040  21264685.91040
 -18009648.64300  19795813.36700 -13822634.93140  19795813.57840
 -11390403.44000  19299612.38300  -8749462.50940  19299612.54740
 94  6 23 18 44 14.9920000  0  6  1  5  7  9 14 15
 -20304785.34600  19816092.64100 -15479556.53340  19816092.60640
  -9634230.48600  20770228.25000  -7306479.79040  20770228.39140
 -24501716.14800  18841098.71100 -18887029.57540  18841098.98140
  -8215455.86800  21266314.77400  -6296305.15440  21266314.98440
 -18079549.25100  19782511.20300 -13877102.93740  19782511.46140
 -11386130.33600  19300425.81300  -8746132.82340  19300425.64940
 94  6 23 18 44 29.9920000  0  6  1  5  7  9 14 15
 -20322585.63600  19812705.31300 -15493426.90940  19812705.40640
  -9702105.14800  20757311.75000  -7359369.12540  20757311.97340
 -24531444.39900  18835441.34400 -18910194.44940  18835441.37940
  -8206785.10200  21267964.30500  -6289548.70140  21267964.04740
 -18149337.15900  19769231.44500 -13931483.12140  19769231.65640
 -11381726.99700  19301263.83600  -8742701.64840  19301263.76640
 94  6 23 18 44 44.9910000  0  6  1  5  7  9 14 15
 -20340230.65100  19809347.44800 -15507176.29340  19809347.41340
  -9769856.48200  20744419.49500  -7412162.33840  20744420.40940
 -24561004.94500  18829816.30000 -18933228.64740  18829816.61640
  -8198004.81000  21269634.76900  -6282706.91040  21269635.44840
 -18219007.28000  19755973.58900 -13985771.51140  19755973.80040
 -11377192.87000  19302126.36200  -8739168.57040  19302126.39840
 94  6 23 18 44 59.9910000  0  6  1  5  7  9 14 15
 -20357727.53200  19806018.00300 -15520810.22440  19806018.02640
  -9837498.13200  20731547.23000  -7464870.08740  20731547.92140
 -24590406.97200  18824221.23000 -18956139.32540  18824221.45240
  -8189119.41400  21271324.99500  -6275783.24740  21271325.81640
 -18288572.74100  19742735.56600 -14039978.35240  19742735.80040
 -11372531.59400  19303013.42500  -8735536.41640  19303013.67140
 94  6 23 18 45 14.9910000  0  6  1  5  7  9 14 15
 -20375074.34800  19802716.99500 -15534327.22640  19802717.05440
  -9905024.50200  20718697.59700  -7517488.01740  20718698.13640
 -24619648.46200  18818656.90100 -18978924.91140  18818657.11240
  -8180131.01000  21273036.16700  -6268779.30540  21273036.37840
 -18358027.16100  19729518.86200 -14094098.66840  19729519.03840
 -11367743.73200  19303924.44100  -8731805.61640  19303924.65140
 94  6 23 18 45 29.9910000  0  6  1  5  7  9 14 15
 -20392273.15800  19799444.19100 -15547728.90940  19799444.31940
  -9972429.85100  20705871.12000  -7570011.64340  20705871.33140
 -24648727.62900  18813123.26900 -19001584.01440  18813123.53840
  -8171038.68300  21274766.63600  -6261694.38240  21274766.39040
 -18427363.60600  19716324.69800 -14148127.05740  19716324.67540
 -11362827.00900  19304860.31600  -8727974.40940  19304860.33940
 94  6 23 18 45 44.9910000  0  6  1  5  7  9 14 15
 -20409324.06000  19796199.31600 -15561015.33440  19796199.51540
 -10039710.55100  20693068.07300  -7622438.15540  20693068.31940
 -24677645.80500  18807620.32300 -19024117.65940  18807620.54640
  -8161843.18400  21276516.13600  -6254529.06640  21276515.93740
 -18496579.01700  19703153.50300 -14202061.13440  19703153.74940
 -11357782.40400  19305819.94100  -8724043.54840  19305819.96440
 94  6 23 18 45 59.9910000  0  6  1  5  7  9 14 15
 -20426226.08500  19792983.13600 -15574185.75740  19792983.23040
 -10106862.83100  20680289.01900  -7674764.61640  20680289.47640
 -24706402.11900  18802148.28400 -19046525.19040  18802148.43740
  -8152544.74000  21278284.87800  -6247283.53940  21278285.11240
 -18565671.72000  19690005.35500 -14255899.59040  19690005.49540
 -11352609.95100  19306804.11200  -8720013.07240  19306804.28840
 94  6 23 18 46 14.9910000  0  6  1  5  7  9 14 15
 -20442979.26600  19789795.03400 -15587240.18240  19789795.19840
 -10173890.68100  20667534.24500  -7726994.10940  20667534.62040
 -24734994.86500  18796707.31600 -19068805.26140  18796707.38640
  -8143143.81700  21280074.50300  -6239958.16440  21280074.55040
 -18634640.93000  19676881.06600 -14309641.81540  19676881.25340
 -11347310.98100  19307812.40100  -8715884.02440  19307812.54240
 94  6 23 18 46 29.9910000  0  6  1  5  7  9 14 15
 -20459584.26500  19786635.19100 -15600179.15340  19786635.27340
 -10240798.04800  20654802.22200  -7779129.66340  20654802.80840
 -24763425.80300  18791297.19800 -19090959.24140  18791297.33940
  -8133640.98800  21281882.94800  -6232553.38040  21281882.84340
 -18703482.44300  19663780.98700 -14363284.53340  19663780.90540
 -11341885.40500  19308845.23000  -8711656.31040  19308845.49940
 94  6 23 18 46 44.9910000  0  6  1  5  7  9 14 15
 -20476040.10100  19783503.85500 -15613001.88940  19783504.04240
 -10307584.14200  20642093.29200  -7831170.76640  20642093.91340
 -24791700.18700  18785916.84700 -19112991.23840  18785917.03440
  -8124036.07500  21283710.87800  -6225069.04040  21283711.01940
 -18772196.98900  19650705.04200 -14416828.32140  19650705.24140
 -11336333.75000  19309901.73700  -8707330.35440  19309902.11240
 94  6 23 18 46 59.9910000  0  6  1  5  7  9 14 15
 -20492344.88600  19780401.20600 -15625706.90340  19780401.31240
 -10374246.25700  20629407.80000  -7883115.25740  20629407.98740
 -24819817.91300  18780566.36200 -19134901.15840  18780566.69140
  -8114329.15300  21285558.22200  -6217505.24440  21285558.94840
 -18840784.23600  19637653.35500 -14470272.91440  19637653.58940
 -11330654.73800  19310982.30800  -8702905.16140  19310982.39040
 94  6 23 18 47 14.9910000  0  6  1  5  7  9 14 15
 -20508499.46400  19777326.76100 -15638294.88240  19777327.10140
 -10440784.51700  20616746.06600  -7934963.25640  20616746.08940
 -24847780.83200  18775245.27600 -19156690.44940  18775245.53440
  -8104521.62300  21287423.94100  -6209863.06340  21287424.36240
 -18909244.48700  19624625.76900 -14523618.54240  19624625.83940
 -11324849.77600  19312086.80800  -8698381.82240  19312086.91340
 94  6 23 18 47 29.9910000  0  6  1  5  7  9 14 15
 -20524504.25200  19774281.15900 -15650766.15340  19774281.59340
 -10507201.17000  20604107.37000  -7986716.48540  20604107.94440
 -24875589.68700  18769953.21400 -19178359.68740  18769953.53040
  -8094615.80600  21289308.79200  -6202144.30540  21289309.81240
 -18977579.62500  19611622.03400 -14576866.68340  19611622.17540
 -11318919.27100  19313215.73000  -8693760.65240  19313215.67140
 94  6 23 18 47 44.9910000  0  6  1  5  7  9 14 15
 -20540358.40700  19771264.54200 -15663120.04740  19771264.82340
 -10573494.69600  20591492.42500  -8038373.79240  20591493.08140
 -24903243.39000  18764690.97200 -19199908.04040  18764691.31240
  -8084610.60600  21291213.61200  -6194348.07940  21291213.67140
 -19045792.91100  19598641.23000 -14630019.87940  19598641.41740
 -11312861.68800  19314367.99500  -8689040.45540  19314368.21840
 94  6 23 18 47 59.9910000  0  6  1  5  7  9 14 15
 -20556063.36600  19768275.62000 -15675357.69140  19768275.89040
 -10639670.18000  20578899.60500  -8089939.10840  20578899.96840
 -24930745.05000  18759457.47200 -19221337.92340  18759457.78840
  -8074506.79800  21293136.72200  -6186474.99940  21293136.51140
 -19113892.63500  19585682.51100 -14683084.56940  19585682.75740
 -11306680.45200  19315544.24500  -8684223.91940  19315544.60840
 94  6 23 18 48 14.9910000  0  6  1  5  7  9 14 15
 -20571625.58400  19765314.39400 -15687484.09940  19765314.60540
 -10705732.84400  20566328.06600  -8141416.49140  20566328.56940
 -24958097.59100  18754252.44100 -19242651.60640  18754252.61640
  -8064311.02000  21295076.39400  -6178530.24340  21295076.66340
 -19181884.19800  19572743.93300 -14736064.98840  19572744.05040
 -11300378.09100  19316743.56600  -8679312.98940  19316743.90540
 94  6 23 18 48 29.9910000  0  6  1  5  7  9 14 15
 -20587040.53100  19762381.02600 -15699495.74540  19762381.15540
 -10771680.83000  20553778.44100  -8192804.51540  20553778.60540
 -24985299.34100  18749075.96400 -19263847.78340  18749076.23340
  -8054023.97200  21297033.26100  -6170514.42840  21297033.98740
 -19249764.75900  19559826.62000 -14788958.91740  19559826.83140
 -11293951.27300  19317967.16700  -8674305.08940  19317967.35540
 94  6 23 18 48 44.9910000  0  6  1  5  7  9 14 15
 -20602308.68400  19759475.54200 -15711393.02440  19759475.63640
 -10837509.32700  20541251.98000  -8244099.41540  20541252.15540
 -25012350.85800  18743928.67500 -19284926.89740  18743928.94440
  -8043645.50800  21299008.67500  -6162427.36240  21299009.15540
 -19317535.64600  19546930.51100 -14841767.38140  19546930.56940
 -11287398.92800  19319213.77600  -8669199.35940  19319213.85840
 94  6 23 18 48 59.9910000  0  6  1  5  7  9 14 15
 -20617432.26500  19756597.58900 -15723177.63240  19756597.83540
 -10903215.48600  20528748.19100  -8295299.01140  20528748.44840
 -25039251.52500  18738809.56600 -19305888.46840  18738809.76540
  -8033176.40800  21301000.83100  -6154269.63640  21301001.42940
 -19385199.81500  19534054.08100 -14894492.68240  19534054.18740
 -11280722.82800  19320484.10500  -8663997.20540  19320484.38640
 94  6 23 18 49 14.9910000  0  6  1  5  7  9 14 15
 -20632410.24200  19753747.57300 -15734848.77340  19753747.89040
 -10968795.20900  20516268.77600  -8346400.05740  20516268.88240
 -25065998.37300  18733719.76900 -19326730.16740  18733720.01540
  -8022616.34500  21303010.87000  -6146041.02440  21303010.51940
 -19452754.18200  19521199.46400 -14947132.42840  19521199.60540
 -11273921.78700  19321778.05800  -8658697.70540  19321778.58540
 94  6 23 18 49 29.9910000  0  6  1  5  7  9 14 15
 -20647247.02800  19750923.96400 -15746409.92040  19750924.30440
 -11034250.20400  20503813.21400  -8397403.91140  20503814.01140
 -25092591.74600  18728658.99500 -19347452.28740  18728659.26540
  -8011965.52700  21305037.99500  -6137741.69440  21305037.78440
 -19520201.38300  19508364.22200 -14999688.66140  19508364.40940
 -11266999.15400  19323095.96400  -8653303.45940  19323096.32740
 94  6 23 18 49 44.9910000  0  6  1  5  7  9 14 15
 -20661943.41600  19748127.51100 -15757861.65740  19748127.86240
 -11099580.52100  20491380.80000  -8448310.65240  20491381.64440
 -25119030.87500  18723628.08100 -19368054.20340  18723628.28040
  -8001223.20200  21307080.63600  -6129371.08340  21307080.89440
 -19587542.73500  19495549.42500 -15052162.42340  19495549.63640
 -11259956.80800  19324435.93300  -8647815.91640  19324435.98040
 94  6 23 18 49 59.9910000  0  6  1  5  7  9 14 15
 -20676494.57000  19745358.68300 -15769200.21140  19745358.91740
 -11164781.91300  20478973.86200  -8499116.93240  20478974.13240
 -25145311.32400  18718626.58100 -19388532.47840  18718626.78040
  -7990383.81200  21309143.59700  -6120924.82040  21309143.96040
 -19654771.24300  19482756.33100 -15104548.25440  19482756.42540
 -11252792.23700  19325798.98000  -8642233.16340  19325799.19140
 94  6 23 18 50 14.9910000  0  6  1  5  7  9 14 15
 -20690898.86300  19742617.62800 -15780424.33640  19742617.71040
 -11229853.95300  20466591.30000  -8549822.44240  20466591.39440
 -25171432.00700  18713656.42500 -19408886.24640  18713656.77640
  -7979447.23500  21311225.75300  -6112402.78740  21311226.05840
 -19721881.43100  19469985.69100 -15156841.88840  19469985.90140
 -11245505.04900  19327185.81600  -8636554.85740  19327186.13240
 94  6 23 18 50 29.9910000  0  6  1  5  7  9 14 15
 -20705154.38800  19739904.65100 -15791532.54140  19739904.73340
 -11294798.38700  20454232.21400  -8600428.50240  20454232.60140
 -25197392.99000  18708716.07300 -19429115.56840  18708716.31940
  -7968414.15200  21313325.37800  -6103805.62040  21313325.96440
 -19788870.45700  19457238.24500 -15209041.10440  19457238.43340
 -11238097.02500  19328595.65100  -8630782.37440  19328596.02640
 94  6 23 18 50 44.9910000  0  6  1  5  7  9 14 15
 -20719258.79200  19737220.65100 -15802522.97740  19737220.88640
 -11359613.02100  20441898.55000  -8650933.36540  20441898.81940
 -25223191.99600  18703806.65900 -19449218.67140  18703806.88240
  -7957277.10000  21315444.68300  -6095127.39940  21315444.95240
 -19855736.13100  19444513.74500 -15261144.21640  19444514.01540
 -11230567.84100  19330028.40100  -8624915.49140  19330028.63640
 94  6 23 18 50 59.9910000  0  6  1  5  7  9 14 15
 -20733210.46400  19734566.05000 -15813394.40340  19734566.28440
 -11424293.71100  20429590.44800  -8701333.87940  20429590.85840
 -25248826.36200  18698928.63600 -19469193.49340  18698928.77640
  -7946029.89100  21317584.88600  -6086363.32340  21317584.82740
 -19922475.30100  19431814.37000 -15313148.74540  19431814.47640
 -11222915.81200  19331484.68300  -8618952.88940  19331485.05840
 94  6 23 18 51 14.9910000  0  6  1  5  7  9 14 15
 -20747008.53100  19731940.28400 -15824146.14540  19731940.42540
 -11488843.19700  20417306.66700  -8751632.14040  20417306.91340
 -25274294.89700  18694082.33100 -19489039.09940  18694082.55440
  -7934673.68600  21319744.86200  -6077514.35240  21319745.58940
 -19989084.65700  19419138.60500 -15365052.11440  19419138.78040
 -11215141.58100  19332963.64400  -8612895.06140  19332963.91340
 94  6 23 18 51 29.9910000  0  6  1  5  7  9 14 15
 -20760654.21800  19729343.40900 -15834779.15540  19729343.56240
 -11553265.57400  20405047.76900  -8801831.38240  20405048.29640
 -25299598.80700  18689266.69800 -19508756.43040  18689266.81640
  -7923209.06100  21321926.58900  -6068580.89640  21321926.87040
 -20055565.23200  19406487.88600 -15416855.15440  19406488.01540
 -11207246.84900  19334466.14400  -8606743.32740  19334466.76540
 94  6 23 18 51 44.9910000  0  6  1  5  7  9 14 15
 -20774148.36000  19726775.72200 -15845294.07340  19726775.93340
 -11617564.97700  20392811.94800  -8851934.76340  20392812.34740
 -25324739.42200  18684483.00300 -19528346.51740  18684483.28440
  -7911639.93800  21324129.12000  -6059566.04340  21324129.48340
 -20121917.11000  19393861.29200 -15468557.90240  19393861.44440
 -11199232.90400  19335991.31600  -8600498.71540  19335991.56240
 94  6 23 18 51 59.9910000  0  6  1  5  7  9 14 15
 -20787489.67600  19724236.72200 -15855689.90440  19724237.15540
 -11681742.38700  20380599.33100  -8901943.06440  20380600.06940
 -25349717.20400  18679729.40100 -19547809.72040  18679729.61240
  -7899968.38600  21326350.54200  -6050471.34940  21326350.57740
 -20188136.33600  19381260.65100 -15520157.29040  19381260.85140
 -11191098.34800  19337539.43300  -8594160.11440  19337539.69140
 94  6 23 18 52 14.9910000  0  6  1  5  7  9 14 15
 -20800684.66200  19721725.88600 -15865971.70440  19721726.37840
 -11745799.71600  20368409.85500  -8951857.85740  20368410.42940
 -25374536.52100  18675007.07300 -19567149.43940  18675007.33140
  -7888201.23400  21328589.06600  -6041302.12940  21328588.63240
 -20254224.49100  19368683.98000 -15571654.54340  19368684.17940
 -11182845.35500  19339109.96400  -8587729.21840  19339110.10540
 94  6 23 18 52 29.9910000  0  6  1  5  7  9 14 15
 -20813732.06100  19719242.87800 -15876138.51640  19719243.25340
 -11809735.63300  20356243.15900  -9001678.03640  20356243.69840
 -25399197.58700  18670314.38600 -19586365.85440  18670314.62040
  -7876339.43400  21330846.24500  -6032059.19540  21330847.20640
 -20320182.51500  19356133.02600 -15623050.39740  19356133.15540
 -11174472.94700  19340702.84700  -8581205.27240  19340703.02340
 94  6 23 18 52 44.9910000  0  6  1  5  7  9 14 15
 -20826633.06200  19716788.20600 -15886191.24540  19716788.34740
 -11873546.67100  20344100.42500  -9051400.94040  20344100.39040
 -25423699.48100  18665651.80000 -19605458.23140  18665652.03440
  -7864383.62200  21333121.06600  -6022742.97340  21333120.73740
 -20386008.99800  19343605.91700 -15674343.74140  19343606.24540
 -11165979.34900  19342319.20600  -8574586.89340  19342319.52340
 94  6 23 18 52 59.9910000  0  6  1  5  7  9 14 15
 -20839397.16200  19714358.92500 -15896137.29540  19714359.21840
 -11937237.84000  20331980.44100  -9101030.44440  20331980.55840
 -25448050.48500  18661017.64400 -19624433.02740  18661017.81940
  -7852343.17500  21335412.52600  -6013360.82940  21335412.72640
 -20451711.45700  19331103.99500 -15725540.45840  19331104.27640
 -11157370.99700  19343957.17500  -8567879.08440  19343957.33940
 94  6 23 18 53 14.9910000  0  6  1  5  7  9 14 15
 -20852022.69200  19711956.55000 -15905975.36740  19711956.92540
 -12000805.10400  20319883.75300  -9150563.39140  20319884.19840
 -25472248.66700  18656413.33900 -19643288.74340  18656413.57340
  -7840219.70000  21337720.21400  -6003913.98740  21337719.95640
 -20517284.68900  19318625.44800 -15776636.46340  19318625.78840
 -11148643.97700  19345618.06600  -8561078.81240  19345618.38240
 94  6 23 18 53 29.9910000  0  6  1  5  7  9 14 15
 -20864508.22600  19709580.43300 -15915704.35940  19709580.92540
 -12064249.14600  20307810.71400  -9200000.29040  20307811.31240
 -25496294.36200  18651837.25300 -19662025.63540  18651837.59340
  -7828015.70000  21340042.13600  -5994404.38140  21340042.32340
 -20582730.33200  19306171.57300 -15827633.06640  19306171.79640
 -11139798.45600  19347301.37000  -8554186.19540  19347301.53440
 94  6 23 18 53 44.9910000  0  6  1  5  7  9 14 15
 -20876853.73400  19707231.15100 -15925324.23740  19707231.53840
 -12127566.55600  20295761.75300  -9249338.52440  20295762.25740
 -25520189.37400  18647290.50300 -19680645.11140  18647290.73740
  -7815732.79700  21342378.68300  -5984833.27940  21342379.22240
 -20648047.42200  19293741.76900 -15878529.48940  19293742.02640
 -11130834.43800  19349006.94800  -8547201.24340  19349007.19440
 94  6 23 18 53 59.9910000  0  6  1  5  7  9 14 15
 -20889059.06700  19704908.61200 -15934834.89240  19704908.97640
 -12190754.05700  20283737.37000  -9298575.51540  20283737.95640
 -25543933.65000  18642772.02600 -19699147.13840  18642772.27340
  -7803370.63100  21344731.93300  -5975200.44240  21344731.79240
 -20713236.28000  19281337.44100 -15929325.99440  19281337.81640
 -11121750.97600  19350735.82300  -8540123.22640  19350736.29240
 94  6 23 18 54 14.9910000  0  6  1  5  7  9 14 15
 -20901126.91300  19702612.11200 -15944238.42140  19702612.58140
 -12253808.81600  20271738.65900  -9347709.07240  20271739.06940
 -25567530.58200  18638281.32300 -19717534.34640  18638281.46440
  -7790929.54700  21347099.48700  -5965506.14940  21347099.71040
 -20778300.28700  19268955.79200 -15980025.21040  19268956.06240
 -11112551.19800  19352486.27600  -8532954.58140  19352486.60540
 94  6 23 18 54 29.9910000  0  6  1  5  7  9 14 15
 -20913054.31200  19700342.53400 -15953532.50040  19700342.87440
 -12316726.53100  20259765.88600  -9396735.87840  20259766.23740
 -25590978.05800  18633819.46400 -19735805.09440  18633819.56940
  -7778401.86100  21349483.58100  -5955744.28640  21349484.43740
 -20843241.22500  19256597.88600 -16030628.53940  19256598.02640
 -11103233.46900  19354259.64400  -8525694.00340  19354259.69140
 94  6 23 18 54 44.9910000  0  6  1  5  7  9 14 15
 -20924837.72100  19698100.49500 -15962714.39040  19698100.96440
 -12379506.72300  20247819.01100  -9445655.53040  20247819.42140
 -25614275.96200  18629386.08100 -19753959.29340  18629386.33940
  -7765787.05700  21351884.34700  -5945914.59840  21351885.02640
 -20908059.39600  19244263.55000 -16081136.20740  19244263.80840
 -11093798.95500  19356054.76100  -8518342.43940  19356054.77340
 94  6 23 18 54 59.9910000  0  6  1  5  7  9 14 15
 -20936475.27800  19695885.89400 -15971782.64640  19695886.24540
 -12442146.29300  20235899.42500  -9494465.51640  20235899.65940
 -25637420.91200  18624981.70600 -19771994.30840  18624981.92940
  -7753079.89900  21354301.98700  -5936012.99640  21354302.11640
 -20972751.93500  19231952.90900 -16131545.97740  19231953.21440
 -11084245.21800  19357873.17500  -8510897.97440  19357872.96440
 94  6 23 18 55 14.9910000  0  6  1  5  7  9 14 15
 -20947964.91400  19693699.51900 -15980735.62740  19693699.90540
 -12504646.64800  20224005.50300  -9543167.07240  20224005.60840
 -25660412.25700  18620606.48700 -19789909.63140  18620606.76940
  -7740278.96000  21356737.98000  -5926038.26740  21356738.60140
 -21037318.42800  19219666.44100 -16181857.51740  19219666.62840
 -11074573.04400  19359713.25300  -8503361.20840  19359713.18340
 94  6 23 18 55 29.9910000  0  6  1  5  7  9 14 15
 -20959304.77400  19691541.56600 -15989571.89740  19691541.78840
 -12567009.34600  20212138.62000  -9591761.38740  20212138.78440
 -25683248.21700  18616260.92500 -19807703.88340  18616261.19440
  -7727383.68000  21359191.75300  -5915989.97040  21359192.11640
 -21101758.86700  19207403.58100 -16232070.83840  19207403.78040
 -11064783.77000  19361576.16700  -8495733.19240  19361576.21440
 94  6 23 18 55 44.9910000  0  6  1  5  7  9 14 15
 -20970492.82200  19689412.45600 -15998289.86140  19689412.81940
 -12629234.46900  20200297.68300  -9640248.49940  20200297.96440
 -25705926.84000  18611945.49500 -19825375.54140  18611945.71840
  -7714392.79800  21361664.53400  -5905867.21740  21361664.51140
 -21166073.18100  19195165.06600 -16282185.87340  19195165.11240
 -11054877.62500  19363461.49500  -8488014.11440  19363461.35540
 94  6 23 18 55 59.9910000  0  6  1  5  7  9 14 15
 -20981534.39800  19687311.41700 -16006893.72040  19687311.71040
 -12691325.29300  20188481.73700  -9688630.93840  20188481.96040
 -25728451.03000  18607659.01100 -19842926.85840  18607659.22240
  -7701307.67900  21364154.38600  -5895671.07140  21364154.18740
 -21230265.22800  19182949.99500 -16332205.64840  19182950.42940
 -11044858.71500  19365367.98000  -8480207.16540  19365367.87440
 94  6 23 18 56 14.9910000  0  6  1  5  7  9 14 15
 -20992427.16900  19685238.59700 -16015381.61840  19685238.78440
 -12753282.19900  20176691.66700  -9736908.96140  20176692.42940
 -25750816.65700  18603403.29200 -19860354.60840  18603403.52640
  -7688125.47700  21366662.55800  -5885399.23340  21366663.41340
 -21294334.17700  19170757.90100 -16382129.50040  19170758.21840
 -11034725.57700  19367295.70600  -8472311.20440  19367295.60140
 94  6 23 18 56 29.9910000  0  6  1  5  7  9 14 15
 -21003173.38400  19683193.81600 -16023755.28940  19683193.89840
 -12815111.41400  20164926.58100  -9785087.54840  20164927.16740
 -25773027.70900  18599176.49500 -19877661.92440  18599176.82340
  -7674848.45700  21369189.01100  -5875053.52440  21369188.39040
 -21358280.22500  19158589.33900 -16431957.58340  19158589.64440
 -11024480.70400  19369245.66700  -8464328.18840  19369245.67940
 94  6 23 18 56 44.9910000  0  6  1  5  7  9 14 15
 -21013768.70600  19681177.48000 -16032011.37940  19681177.66740
 -12876814.26900  20153184.66700  -9833167.67840  20153185.19440
 -25795081.44400  18594980.19800 -19894846.65140  18594980.46840
  -7661476.78500  21371733.83100  -5864633.99540  21371733.08140
 -21422097.03800  19146445.11200 -16481684.96940  19146445.34740
 -11014121.36200  19371217.18300  -8456255.99440  19371217.38240
 94  6 23 18 56 59.9910000  0  6  1  5  7  9 14 15
 -21024216.00400  19679189.56600 -16040152.13040  19679189.84740
 -12938392.16800  20141466.48000  -9881150.43740  20141466.66740
 -25816977.28600  18590813.39400 -19911908.34740  18590813.71040
  -7648015.13100  21374295.39400  -5854144.34340  21374295.99140
 -21485781.42600  19134326.66700 -16531309.16540  19134326.94840
 -11003648.02000  19373210.35500  -8448094.95540  19373210.33140
 94  6 23 18 57 14.9900000  0  6  1  5  7  9 14 15
 -21034515.82900  19677229.38900 -16048177.97540  19677229.96340
 -12999841.80600  20129772.83400  -9929033.25340  20129773.16240
 -25838713.90400  18586676.97500 -19928845.97440  18586677.37340
  -7634464.43300  21376874.10000  -5843585.43340  21376874.94340
 -21549326.66000  19122234.10800 -16580824.93240  19122234.30740
 -10993060.74600  19375224.40400  -8439845.13540  19375224.31140
 94  6 23 18 57 29.9900000  0  6  1  5  7  9 14 15
 -21044671.49500  19675296.78700 -16056091.47940  19675297.33840
 -13061168.77600  20118103.04500  -9976820.50240  20118103.50240
 -25860294.67400  18582570.31800 -19945662.16040  18582570.60040
  -7620825.19100  21379469.06800  -5832957.45740  21379469.24440
 -21612741.65900  19110167.05300 -16630239.21340  19110167.17040
 -10982359.75000  19377260.92800  -8431506.70340  19377260.94040
 94  6 23 18 57 44.9900000  0  6  1  5  7  9 14 15
 -21054681.78500  19673391.89700 -16063891.72240  19673392.41240
 -13122364.36800  20106457.67000 -10024505.35440  20106458.05740
 -25881719.59800  18578493.38100 -19962356.91040  18578493.85040
  -7607096.89100  21382081.56800  -5822260.06540  21382082.23640
 -21676022.27100  19098125.19300 -16679548.78140  19098125.32240
 -10971544.88000  19379318.97500  -8423079.53440  19379319.17440
 94  6 23 18 57 59.9900000  0  6  1  5  7  9 14 15
 -21064550.97300  19671514.11500 -16071581.99840  19671514.33840
 -13183428.61800  20094837.61500 -10072087.85040  20094837.94340
 -25902993.09800  18574444.67000 -19978933.67140  18574445.04540
  -7593282.15700  21384710.89700  -5811495.38240  21384711.77540
 -21739170.01700  19086108.38100 -16728754.80840  19086108.58040
 -10960618.42000  19381398.27900  -8414565.42140  19381398.38540
 94  6 23 18 58 14.9900000  0  6  1  5  7  9 14 15
 -21074280.61900  19669662.45100 -16079163.53340  19669662.56840
 -13244362.94900  20083242.13900 -10119569.14440  20083242.54940
 -25924116.30900  18570425.24800 -19995393.30740  18570425.48340
  -7579383.00800  21387355.44300  -5800664.91840  21387355.54940
 -21802186.30800  19074116.42000 -16777858.40740  19074116.70140
 -10949581.43600  19383498.53700  -8405965.17540  19383498.72540
 94  6 23 18 58 29.9900000  0  6  1  5  7  9 14 15
 -21083870.37300  19667837.49800 -16086636.08240  19667837.75640
 -13305168.09400  20071671.40400 -10166949.78740  20071671.83840
 -25945090.35400  18566434.02200 -20011736.71340  18566434.35040
  -7565400.55200  21390016.86500  -5789769.55740  21390016.63140
 -21865069.41200  19062150.45100 -16826858.22640  19062150.69740
 -10938432.80900  19385619.70900  -8397277.92740  19385619.46340
 94  6 23 18 58 44.9900000  0  6  1  5  7  9 14 15
 -21093321.09800  19666038.98300 -16094000.29740  19666039.61540
 -13365840.87700  20060125.60800 -10214227.27840  20060125.78340
 -25965913.64200  18562471.59200 -20027962.65640  18562471.99040
  -7551332.59600  21392693.45900  -5778807.53940  21392693.20140
 -21927817.13900  19050209.56800 -16875752.55340  19050210.02540
 -10927171.95800  19387762.69300  -8388503.24340  19387762.71740
 94  6 23 18 58 59.9900000  0  6  1  5  7  9 14 15
 -21102635.18700  19664266.82600 -16101258.03640  19664267.37740
 -13426380.66100  20048604.98300 -10261401.13140  20048605.49840
 -25986585.35000  18558537.81800 -20044070.47540  18558538.19340
  -7537182.56700  21395386.17000  -5767781.54340  21395386.33440
 -21990433.86900  19038294.66200 -16924544.81040  19038294.97940
 -10915802.77500  19389926.26400  -8379644.15440  19389926.44040
 94  6 23 18 59 14.9900000  0  6  1  5  7  9 14 15
 -21111811.48600  19662520.41200 -16108408.40140  19662520.85840
 -13486785.30400  20037110.78700 -10308469.69240  20037111.04540
 -26007104.03600  18554633.22500 -20060059.05740  18554633.51840
  -7522949.50800  21398094.98300  -5756690.88440  21398095.26440
 -22052921.42900  19026403.42000 -16973236.41140  19026403.67840
 -10904324.47300  19392110.39700  -8370700.03740  19392110.66640
 94  6 23 18 59 29.9900000  0  6  1  5  7  9 14 15
 -21120843.31400  19660801.71700 -16115446.20740  19660802.18640
 -13547046.92200  20025643.31800 -10355426.80140  20025643.78740
 -26027464.39300  18550758.60800 -20075924.26240  18550758.99440
  -7508626.00000  21400820.26400  -5745529.77040  21400820.72140
 -22115276.39900  19014537.78700 -17021824.69440  19014538.10440
 -10892731.91300  19394316.74000  -8361666.88140  19394316.57640
 94  6 23 18 59 44.9900000  0  6  1  5  7  9 14 15
 -21129734.57700  19659110.10000 -16122374.48340  19659110.61540
 -13607171.24900  20014202.13900 -10402276.93240  20014202.74840
 -26047669.84200  18546913.78700 -20091668.76640  18546914.22140
  -7494216.58600  21403562.21700  -5734301.63540  21403562.70940
 -22177503.61000  19002695.99800 -17070313.42640  19002696.22140
 -10881029.26600  19396543.89700  -8352547.94840  19396543.51040
 94  6 23 18 59 59.9900000  0  6  1  5  7  9 14 15
 -21138489.84900  19657443.99800 -16129196.79340  19657444.39740
 -13667166.30700  20002785.38900 -10449026.31940  20002785.71740
 -26067722.59500  18543097.92800 -20107294.27940  18543098.25640
  -7479726.22500  21406319.83400  -5723010.46240  21406319.90440
 -22239605.04100  18990879.00600 -17118704.14740  18990879.20540
 -10869218.23700  19398790.99000  -8343344.56440  19398791.00240
 94  6 23 19  0 14.9900000  0  6  1  5  7  9 14 15
 -21147108.43200  19655803.83400 -16135912.59940  19655804.27940
 -13727031.71500  19991393.45100 -10495674.70140  19991393.77940
 -26087616.87300  18539312.17800 -20122796.30640  18539312.55340
  -7465153.59700  21409092.57600  -5711655.25040  21409093.72540
 -22301577.97100  18979085.46700 -17166994.73240  18979085.58440
 -10857295.99100  19401059.67000  -8334054.51240  19401059.70540
 94  6 23 19  0 29.9900000  0  6  1  5  7  9 14 15
 -21155592.95500  19654189.20900 -16142523.93840  19654189.58440
 -13786769.05800  19980025.85800 -10542223.28140  19980026.10440
 -26107352.07100  18535556.62300 -20138174.37340  18535557.08040
  -7450500.83100  21411881.27200  -5700237.51140  21411881.65840
 -22363423.54600  18967316.51400 -17215186.08440  18967316.64340
 -10845264.66200  19403349.40400  -8324679.46440  19403349.69740
 94  6 23 19  0 44.9900000  0  6  1  5  7  9 14 15
 -21163944.26700  19652600.08400 -16149031.46240  19652600.58840
 -13846377.04300  19968682.84200 -10588671.05740  19968683.32240
 -26126926.79900  18531831.27200 -20153427.39940  18531831.56540
  -7435768.40300  21414684.51400  -5688757.67540  21414684.03340
 -22425137.96100  18955572.95900 -17263275.23140  18955573.08840
 -10833124.93900  19405659.70900  -8315219.94340  19405659.44040
 94  6 23 19  0 59.9900000  0  6  1  5  7  9 14 15
 -21172155.95800  19651037.56800 -16155430.18840  19651037.83840
 -13905849.41200  19957365.45900 -10635013.15540  19957365.81140
 -26146335.82100  18528137.95900 -20168551.30440  18528138.47540
  -7420954.37300  21417504.06100  -5677214.28040  21417503.56840
 -22486717.72000  18943854.87300 -17311259.44740  18943854.96740
 -10820873.92100  19407990.88100  -8305673.70440  19407990.69340
 94  6 23 19  1 14.9900000  0  6  1  5  7  9 14 15
 -21180230.51600  19649501.17000 -16161722.04940  19649501.65040
 -13965188.51100  19946073.45900 -10681251.41640  19946073.61140
 -26165585.40600  18524475.03700 -20183550.96940  18524475.48340
  -7406064.79600  21420337.01400  -5665612.00540  21420337.42440
 -22548166.96500  18932161.35000 -17359141.96840  18932161.58440
 -10808513.72700  19410343.00600  -8296042.40640  19410342.88940
 94  6 23 19  1 29.9900000  0  6  1  5  7  9 14 15
 -21188172.70300  19647989.91200 -16167910.78740  19647990.18240
 -14024396.48900  19934806.76400 -10727387.45240  19934807.27940
 -26184680.18600  18520841.47500 -20198430.00340  18520841.97940
  -7391101.62200  21423184.49000  -5653952.39440  21423186.41240
 -22609487.05100  18920492.43600 -17406923.84440  18920492.69340
 -10796047.02700  19412714.94300  -8286328.11940  19412715.19040
 94  6 23 19  1 44.9900000  0  6  1  5  7  9 14 15
 -21195980.42800  19646504.03700 -16173994.73440  19646504.37740
 -14083470.54000  19923565.42000 -10773419.20240  19923565.64340
 -26203615.78200  18517237.95100 -20213185.01140  18517238.31540
  -7376058.87500  21426047.17800  -5642230.80040  21426048.35040
 -22670673.76900  18908848.88900 -17454601.80040  18908849.00640
 -10783470.38900  19415108.33400  -8276528.16340  19415108.53340
 94  6 23 19  1 59.9900000  0  6  1  5  7  9 14 15
 -21203656.90000  19645042.88100 -16179976.41740  19645043.54940
 -14142412.32700  19912348.85000 -10819347.80240  19912348.99040
 -26222394.17100  18513664.65400 -20227817.51340  18513664.97140
  -7360938.81200  21428924.50600  -5630448.97540  21428926.05340
 -22731728.84800  18897230.73300 -17502177.18040  18897231.01440
 -10770785.65600  19417522.16200  -8266643.98140  19417522.36140
 94  6 23 19  2 14.9900000  0  6  1  5  7  9 14 15
 -21211199.94700  19643607.84200 -16185854.12840  19643608.20540
 -14201219.00200  19901158.44300 -10865171.15940  19901158.52540
 -26241016.74400  18510120.53700 -20242328.60340  18510120.84240
  -7345740.27800  21431816.45100  -5618605.96140  21431817.98640
 -22792652.20900  18885637.07600 -17549649.91940  18885637.31140
 -10757993.86200  19419956.61500  -8256676.36440  19419956.41640
 94  6 23 19  2 29.9900000  0  7  1  4  5  7  9 14 15
 -21218600.57800  19642199.68600 -16191620.85640  19642199.79140
                  21313945.95100
 -14259881.17400  19889995.65400 -10910881.90040  19889995.77240
 -26259478.61200  18506607.92800 -20256714.46940  18506608.22140
  -7330457.30800  21434724.30300  -5606697.17640  21434725.39340
 -22853437.27000  18874070.04500 -17597014.89740  18874070.18640
 -10745091.37900  19422411.95900  -8246622.49940  19422411.98340
 94  6 23 19  2 44.9900000  0  7  1  4  5  7  9 14 15
 -21225858.52000  19640818.34200 -16197276.42340  19640818.41240
    -80498.86100  21297531.97500
 -14318398.14100  19878859.83400 -10956479.53140  19878860.04540
 -26277782.77100  18503124.81100 -20270977.44240  18503125.15040
  -7315090.69900  21437648.35000  -5594723.24940  21437648.52540
 -22914082.74800  18862529.81100 -17644271.10440  18862529.99840
 -10732079.63600  19424887.53700  -8236483.50240  19424887.64340
 94  6 23 19  2 59.9900000  0  7  1  4  5  7  9 14 15
 -21232978.06900  19639463.75600 -16202824.12840  19639463.70940
   -166703.18700  21281127.11500
 -14376774.38400  19867751.39700 -11001967.50540  19867751.77240
 -26295938.48800  18499669.49800 -20285124.74940  18499669.75640
  -7299644.50900  21440587.75600  -5582687.21240  21440587.45140
 -22974597.08500  18851014.51400 -17691425.12440  18851014.70140
 -10718964.49000  19427383.49000  -8226263.92640  19427383.47940
 94  6 23 19  3 14.9900000  0  7  1  4  5  7  9 14 15
 -21239959.33200  19638135.54500 -16208264.08540  19638135.70940
   -252850.49700  21264734.35800
 -14435007.76700  19856669.87300 -11047344.15240  19856670.09640
 -26313948.72800  18496242.42000 -20299158.69540  18496242.80740
  -7284116.91600  21443542.81100  -5570587.77240  21443543.47940
 -23034980.47600  18839523.38900 -17738477.10540  18839523.47140
 -10705743.86300  19429899.81100  -8215962.15240  19429899.67040
 94  6 23 19  3 29.9900000  0  6  1  4  5  7 14 15
 -21246805.81700  19636832.29500 -16213599.02640  19636832.43640
   -338941.85600  21248351.21700
 -14493101.61400  19845614.95100 -11092612.10240  19845615.29140
 -26331814.45400  18492842.57600 -20313080.02640  18492842.94040
 -23095234.16800  18828057.77200 -17785428.03340  18828057.88940
 -10692419.20700  19432434.74000  -8205579.31440  19432434.82240
 94  6 23 19  3 44.9900000  0  6  1  4  5  7 14 15
 -21253514.05100  19635555.81100 -16218826.21440  19635555.96340
   -424974.33200  21231981.20100    -49153.22950  21231981.34240
 -14551051.59900  19834587.31800 -11137767.96540  19834587.24840
 -26349531.95400  18489471.41200 -20326885.86540  18489471.75240
 -23155352.80000  18816617.27200 -17832273.70940  18816617.54140
 -10678987.28700  19434991.13900  -8195112.89540  19434991.51440
 94  6 23 19  3 59.9900000  0  6  1  4  5  7 14 15
 -21260082.09900  19634305.78700 -16223944.18540  19634306.04540
   -510950.04500  21215619.90400   -116147.27540  21215620.77240
 -14608857.21700  19823587.48300 -11182811.28940  19823587.58840
 -26367101.53700  18486128.18600 -20340576.45040  18486128.57240
 -23215335.03800  18805203.38900 -17879013.10640  18805203.56540
 -10665448.69400  19437567.38100  -8184563.34440  19437567.34640
 94  6 23 19  4 14.9900000  0  6  1  4  5  7 14 15
 -21266511.30900  19633082.26400 -16228953.95840  19633082.62740
   -596869.14100  21199270.57600   -183097.16540  21199274.67840
 -14666518.26200  19812614.91200 -11227741.95440  19812614.80740
 -26384525.54300  18482812.32600 -20354153.59440  18482812.63140
 -23275181.25300  18793814.92800 -17925646.50840  18793815.09240
 -10651805.71000  19440163.87300  -8173932.47340  19440163.62740
 94  6 23 19  4 29.9900000  0  6  1  4  5  7 14 15
 -21272801.10500  19631885.71700 -16233855.10140  19631885.92840
   -682734.82500  21182930.04500   -250005.44640  21182931.73340
 -14724034.69100  19801669.81800 -11272559.94440  19801670.05340
 -26401804.25200  18479524.20100 -20367617.52340  18479524.56540
 -23334891.16500  18782452.62300 -17972173.70140  18782452.71740
 -10638058.73100  19442779.16200  -8163220.54840  19442779.19740
 94  6 23 19  4 44.9900000  0  6  1  4  5  7 14 15
 -21278953.86700  19630714.83400 -16238649.46740  19630715.15040
   -768547.22100  21166601.19300   -316872.18240  21166601.13540
 -14781406.56300  19790752.13900 -11317265.30340  19790752.05740
 -26418937.56100  18476263.61500 -20380968.15740  18476263.93240
 -23394465.26200  18771116.06800 -18018595.07240  18771116.19740
 -10624206.98900  19445415.38900  -8152427.00040  19445415.40040
 94  6 23 19  4 59.9900000  0  6  1  4  5  7 14 15
 -21284973.35500  19629568.95900 -16243339.97040  19629569.06540
   -854308.88200  21150280.50600   -383699.40740  21150281.20940
 -14838637.96500  19779861.57600 -11361861.18040  19779861.34240
 -26435929.80600  18473030.49000 -20394208.86940  18473030.61940
 -23453907.97800  18759804.66200 -18064914.06640  18759804.65040
 -10610252.54400  19448071.06100  -8141553.41940  19448070.88540
 94  6 23 19  5 14.9900000  0  6  1  4  5  7 14 15
 -21290859.20500  19628449.20100 -16247926.34640  19628449.50640
   -940020.53000  21133970.42000   -450487.65640  21133971.54540
 -14895726.92000  19768997.81800 -11406346.06240  19768997.88940
 -26452780.81900  18469823.44300 -20407339.52940  18469823.54940
 -23513218.30100  18748517.98300 -18111129.89540  18748517.94740
 -10596194.65300  19450746.16200  -8130599.23340  19450746.15040
 94  6 23 19  5 29.9900000  0  6  1  4  5  7 14 15
 -21296610.07400  19627354.39700 -16252407.55140  19627354.53740
  -1025685.83600  21117668.20100   -517239.79540  21117668.06140
 -14952674.84700  19758161.26400 -11450721.05640  19758161.45140
 -26469486.41100  18466644.61500 -20420356.87440  18466644.82640
 -23572395.70300  18737256.99800 -18157242.15140  18737257.15040
 -10582033.92200  19453440.63900  -8119564.91040  19453441.03740
 94  6 23 19  5 44.9900000  0  6  1  4  5  7 14 15
 -21302224.06300  19626286.30300 -16256782.08840  19626286.71340
  -1111305.91200  21101375.85800   -583956.69940  21101375.24840
 -15009481.08600  19747351.17000 -11494985.63040  19747351.53340
 -26486041.92300  18463494.25600 -20433257.27040  18463494.44340
 -23631438.49000  18726021.44300 -18203249.50740  18726021.40840
 -10567770.48200  19456155.51400  -8108450.56040  19456155.86540
 94  6 23 19  5 59.9900000  0  6  1  4  5  7 14 15
 -21307698.61500  19625244.43600 -16261047.96940  19625244.79940
  -1196877.31700  21085091.26400   -650635.67340  21085092.76440
 -15066142.45300  19736569.17800 -11539137.34240  19736569.06140
 -26502444.14900  18460372.70100 -20446038.22740  18460372.93640
 -23690343.97000  18714812.13900 -18249149.87040  18714812.10440
 -10553403.40000  19458888.79500  -8097255.44040  19458888.94740
 94  6 23 19  6 14.9900000  0  6  1  4  5  7 14 15
 -21313031.98600  19624229.55300 -16265203.83740  19624229.79940
  -1282394.54000  21068817.92000   -717272.43340  21068818.95140
 -15122657.30000  19725814.47500 -11583174.86340  19725814.54540
 -26518689.14700  18457281.46700 -20458696.66640  18457281.77240
 -23749107.41600  18703629.72500 -18294939.56540  18703629.76040
 -10538930.23200  19461643.00600  -8085977.66140  19461643.06540
 94  6 23 19  6 29.9900000  0  6  1  4  5  7 14 15
 -21318225.81600  19623241.36500 -16269250.97840  19623241.45940
  -1367859.19200  21052554.61500   -783868.21040  21052555.21340
 -15179029.05300  19715087.43600 -11627100.91240  19715087.52940
 -26534779.68800  18454219.45100 -20471234.75840  18454219.74440
 -23807729.28200  18692474.34200 -18340618.94140  18692474.22540
 -10524352.39900  19464417.81800  -8074618.32240  19464417.85440
 94  6 23 19  6 44.9900000  0  6  1  4  5  7 14 15
 -21323282.30400  19622279.20100 -16273191.08640  19622279.30740
  -1453273.50100  21036302.59200   -850424.78540  21036302.97940
 -15235260.58200  19704386.37300 -11670917.71140  19704386.74840
 -26550717.57500  18451186.92000 -20483653.89040  18451187.23640
 -23866209.94300  18681346.00600 -18386188.28840  18681346.05340
 -10509671.98200  19467210.66200  -8063179.05140  19467210.67440
 94  6 23 19  6 59.9900000  0  6  1  4  5  7 14 15
 -21328201.14700  19621343.17800 -16277023.96140  19621343.27240
  -1538631.72000  21020057.72500   -916937.61340  21020058.25240
 -15291350.11900  19693713.35000 -11714623.85140  19693713.57240
 -26566501.50600  18448183.31800 -20495953.06240  18448183.62340
 -23924546.99500  18670244.69300 -18431645.72740  18670244.64740
 -10494888.13200  19470023.87300  -8051659.17940  19470024.03740
 94  6 23 19  7 14.9900000  0  6  1  4  5  7 14 15
 -21332985.09200  19620432.95900 -16280751.71140  19620433.05340
  -1623932.34500  21003826.13100   -983405.61140  21003827.31540
 -15347300.97600  19683066.13100 -11758221.89040  19683066.57640
 -26582131.42400  18445208.94300 -20508132.22140  18445209.22540
 -23982739.55400  18659171.18600 -18476990.58040  18659171.04540
 -10480003.74700  19472857.10800  -8040060.97740  19472857.50640
 94  6 23 19  7 29.9900000  0  6  1  4  5  7 14 15
 -21337632.85500  19619548.55300 -16284373.34140  19619548.60040
  -1709171.07600  20987605.52900  -1049825.36240  20987606.93640
 -15403112.86900  19672445.56800 -11801711.67340  19672445.59240
 -26597601.48000  18442264.71700 -20520186.81140  18442264.97540
 -24040785.18900  18648125.31100 -18522220.94740  18648125.21740
 -10465017.86300  19475708.27900  -8028383.66740  19475708.64340
 94  6 23 19  7 44.9900000  0  6  1  4  5  7 14 15
 -21342144.41100  19618690.02200 -16287888.84540  19618690.03340
  -1794344.71900  20971397.61500  -1116194.39940  20971398.50640
 -15458786.96000  19661850.90400 -11845094.09440  19661851.19740
 -26612911.05500  18439351.95100 -20532116.35040  18439352.23340
 -24098682.70700  18637108.27200 -18567335.89840  18637108.19040
 -10449930.18400  19478578.95900  -8016627.03840  19478579.17040
 94  6 23 19  7 59.9900000  0  6  1  4  5  7 14 15
 -21346523.85900  19617856.42000 -16291301.41140  19617856.79540
  -1879452.07400  20955201.81800  -1182511.77740  20955201.91240
 -15514322.91500  19651283.01400 -11888368.85540  19651283.30740
 -26628063.42300  18436468.48300 -20543923.39340  18436468.70540
 -24156430.61600  18626118.94300 -18612334.26540  18626118.74440
 -10434741.59700  19481469.67800  -8004791.79440  19481469.85440
 94  6 23 19  8 14.9900000  0  6  1  4  5  7 14 15
 -21350772.00700  19617047.94300 -16294611.66540  19617048.51840
  -1964495.97900  20939018.03700  -1248779.69240  20939019.22140
 -15569721.63900  19640740.74800 -11931536.69540  19640741.08840
 -26643063.65500  18433614.14700 -20555611.89040  18433614.35840
 -24214031.27000  18615157.94300 -18657217.88440  18615157.82640
 -10419453.23800  19484378.92800  -7992878.78940  19484379.19740
 94  6 23 19  8 29.9900000  0  6  1  4  5  7 14 15
 -21354887.80200  19616265.11500 -16297818.78440  19616265.69040
  -2049480.09300  20922846.44300  -1315001.05440  20922847.05340
 -15624982.02200  19630225.25600 -11974596.73540  19630225.58440
 -26657912.96600  18430788.17800 -20567182.77440  18430788.35440
 -24271487.00100  18604224.15400 -18701988.58240  18604224.04940
 -10404064.82600  19487307.24000  -7980887.82740  19487307.39340
 94  6 23 19  8 44.9900000  0  6  1  4  5  7 14 15
 -21358868.98300  19615507.52200 -16300920.99540  19615507.70940
  -2134404.68700  20906686.41200  -1381176.03740  20906687.39740
 -15680101.37100  19619736.36500 -12017546.87340  19619736.54140
 -26672610.19400  18427991.55300 -20578635.15040  18427991.88140
 -24328802.00800  18593317.70100 -18746649.62240  18593317.66640
 -10388575.78100  19490254.84200  -7968818.45140  19490254.76040
 94  6 23 19  8 59.9900000  0  6  1  4  5  7 14 15
 -21362718.28500  19614774.95100 -16303920.46040  19614775.03340
  -2219269.35500  20890537.02900  -1447304.31240  20890537.54540
 -15735080.40800  19609274.09200 -12060387.66140  19609274.05740
 -26687156.43300  18425223.56100 -20589969.88140  18425223.93640
 -24385981.67800  18582436.92000 -18791205.19240  18582436.95540
 -10372988.56800  19493220.56100  -7956672.58640  19493220.95940
 94  6 23 19  9 14.9900000  0  6  1  4  5  7 14 15
 -21366436.12300  19614067.45100 -16306817.47840  19614067.60440
  -2304073.57300  20874399.19300  -1513385.49140  20874399.90840
 -15789917.82200  19598838.99800 -12103118.10240  19598839.24440
 -26701549.36600  18422484.72500 -20601185.15440  18422484.91240
 -24443028.26800  18571580.86500 -18835657.08040  18571580.90040
 -10357303.83500  19496205.25600  -7944450.72940  19496205.47940
 94  6 23 19  9 29.9890000  0  6  1  4  5  7 14 15
 -21370020.61900  19613385.43900 -16309610.58540  19613385.70840
  -2388813.93500  20858273.75100  -1579416.91840  20858273.98540
 -15844606.15900  19588431.85300 -12145732.39540  19588432.36840
 -26715785.74900  18419775.92300 -20612278.43640  18419776.12240
 -24499936.99300  18560751.89200 -18880001.53640  18560752.02140
 -10341520.47700  19499208.75900  -7932152.03440  19499208.84140
 94  6 23 19  9 44.9890000  0  6  1  4  5  7 14 15
 -21373474.05700  19612728.13400 -16312301.58040  19612728.36840
  -2473508.54800  20842155.92300  -1645412.67440  20842156.05240
 -15899150.91900  19578052.27500 -12188234.80640  19578052.38040
 -26729870.88100  18417094.89200 -20623253.86840  18417095.29040
 -24556720.67300  18549945.93900 -18924248.55840  18549945.96240
 -10325638.26300  19502231.38400  -7919776.28340  19502231.73540
 94  6 23 19  9 59.9890000  0  6  1  4  5  7 14 15
 -21376797.12100  19612095.68900 -16314890.98240  19612095.77140
  -2558152.72600  20826049.39200  -1711369.15140  20826049.61440
 -15953546.87800  19567701.54800 -12230621.22640  19567701.57140
 -26743805.48800  18414443.58700 -20634112.00340  18414443.91540
 -24613374.93600  18539165.43100 -18968394.73740  18539165.65340
 -10309658.39900  19505272.40700  -7907324.45640  19505272.67740
 94  6 23 19 10 14.9890000  0  6  1  4  5  7 14 15
 -21379992.43400  19611487.75100 -16317380.83240  19611487.83340
  -2642747.59200  20809950.56400  -1777287.20540  20809950.84540
 -16007795.27900  19557378.38400 -12272892.68240  19557378.65340
 -26757591.47800  18411819.91500 -20644854.33940  18411820.30240
 -24669902.86200  18528408.11000 -19012442.46140  18528408.07540
 -10293583.08900  19508331.21200  -7894798.25940  19508331.77540
 94  6 23 19 10 29.9890000  0  6  1  4  5  7 14 15
 -21383059.34500  19610903.94600 -16319770.64440  19610904.01740
  -2727289.38700  20793863.84500  -1843163.89640  20793865.14640
 -16061895.27700  19547083.32900 -12315048.51340  19547083.51740
 -26771226.98100  18409225.37600 -20655479.41440  18409225.65740
 -24726304.46000  18517675.52500 -19056391.74940  18517675.52540
 -10277411.61500  19511408.27500  -7882197.12740  19511408.52140
 94  6 23 19 10 44.9890000  0  6  1  4  5  7 14 15
 -21385999.18100  19610344.90700 -16322061.43240  19610345.09540
  -2811770.41600  20777786.84500  -1908993.22840  20777787.03240
 -16115845.34000  19536816.75900 -12357087.51740  19536816.79440
 -26784707.67800  18406660.25900 -20665983.85540  18406660.59940
 -24782574.61500  18506967.36000 -19100238.62240  18506967.41940
 -10261141.87000  19514504.93100  -7869519.43540  19514505.06040
 94  6 23 19 10 59.9890000  0  6  1  4  5  7 14 15
 -21388813.92000  19609809.21200 -16324254.75440  19609809.62240
  -2896187.33800  20761723.27500  -1974772.62940  20761723.57940
 -16169648.41400  19526578.65000 -12399011.97240  19526578.80240
 -26798035.19700  18404123.72000 -20676368.94340  18404123.82540
 -24838711.48100  18496285.20400 -19143981.62340  18496285.09940
 -10244775.69800  19517619.15000  -7856766.60540  19517619.41940
 94  6 23 19 11 14.9890000  0  6  1  4  5  7 14 15
 -21391504.01600  19609297.01700 -16326350.96040  19609297.28640
  -2980540.39400  20745672.01700  -2040502.23740  20745673.21240
 -16223304.19500  19516368.22000 -12440821.65640  19516368.44240
 -26811207.22200  18401617.22000 -20686632.86740  18401617.43140
 -24894709.58900  18485628.53200 -19187616.50340  18485628.49740
 -10228313.25200  19520751.23500  -7843938.73140  19520751.45840
 94  6 23 19 11 29.9890000  0  6  1  4  5  7 14 15
 -21394072.05100  19608808.53200 -16328352.03940  19608808.88440
  -3064834.72200  20729631.22800  -2106186.08940  20729632.56440
 -16276813.37000  19506185.41500 -12482517.11240  19506185.76740
 -26824226.85500  18399139.90700 -20696778.04640  18399140.10740
 -24950567.49700  18474999.39200 -19231142.14040  18474999.38040
 -10211755.88500  19523902.54000  -7831036.91440  19523903.29040
 94  6 23 19 11 44.9890000  0  6  1  4  5  7 14 15
 -21396515.52600  19608343.59500 -16330256.05140  19608343.87640
  -3149069.17400  20713601.43100  -2171823.29140  20713602.20440
 -16330177.39800  19496030.78200 -12524099.46640  19496030.85340
 -26837096.93500  18396690.63400 -20706806.68840  18396690.84540
 -25006281.53400  18464397.35300 -19274555.67340  18464397.47040
 -10195103.04000  19527071.17300  -7818060.67840  19527071.50140
 94  6 23 19 11 59.9890000  0  6  1  4  5  7 14 15
 -21398832.17100  19607902.89200 -16332061.24040  19607903.11440
  -3233240.78500  20697583.85300  -2237411.51740  20697584.63840
 -16383400.39300  19485902.97800 -12565571.92040  19485903.30640
 -26849822.07100  18394269.19600 -20716722.37940  18394269.36040
 -25061850.55200  18453822.78200 -19317856.20540  18453822.99340
 -10178356.09300  19530258.15700  -7805011.12740  19530258.42740
 94  6 23 19 12 14.9890000  0  6  1  4  5  7 14 15
 -21401017.71100  19607486.78200 -16333764.26740  19607487.00540
  -3317343.20100  20681579.56400  -2302945.85540  20681579.64640
 -16436480.84300  19475802.04000 -12606933.33540  19475802.33340
 -26862400.77200  18391875.58700 -20726523.96840  18391875.66940
 -25117269.82900  18443276.95400 -19361040.05640  18443276.96640
 -10161512.33700  19533463.37600  -7791886.14140  19533463.91540
 94  6 23 19 12 29.9890000  0  6  1  4  5  7 14 15
 -21403072.15900  19607095.59500 -16335365.15340  19607095.93540
  -3401377.98400  20665588.09500  -2368427.48340  20665588.79840
 -16489418.14600  19465728.60300 -12648183.15840  19465728.80240
 -26874835.41800  18389509.50100 -20736213.31240  18389509.74740
 -25172540.16700  18432759.32900 -19404107.83740  18432759.37640
 -10144573.85900  19536686.68100  -7778687.34440  19536687.10340
 94  6 23 19 12 44.9890000  0  6  1  4  5  7 14 15
 -21404995.55700  19606729.65700 -16336863.91740  19606730.07940
  -3485347.40200  20649609.77500  -2433858.17140  20649609.70440
 -16542211.79200  19455682.10300 -12689321.05240  19455682.60740
 -26887126.78500  18387170.48500 -20745791.00140  18387170.69640
 -25227662.02800  18422270.03200 -19447059.93440  18422270.09140
 -10127541.81600  19539928.04800  -7765415.64940  19539928.24740
 94  6 23 19 12 59.9890000  0  6  1  4  5  7 14 15
 -21406784.24700  19606389.38400 -16338257.69440  19606389.72440
  -3569255.77900  20633642.68900  -2499241.28040  20633643.11040
 -16594862.43600  19445662.93100 -12730347.48540  19445663.36440
 -26899274.31600  18384859.07900 -20755256.61640  18384859.16140
 -25282635.29700  18411808.93900 -19489896.23840  18411809.07940
 -10110416.76800  19543187.08700  -7752071.46540  19543187.27540
 94  6 23 19 13 14.9890000  0  6  1  4  5  7 14 15
 -21408436.24500  19606075.11000 -16339544.99340  19606075.27540
  -3653106.11600  20617686.50100  -2564579.18440  20617686.88840
 -16647367.34800  19435671.68900 -12771260.39940  19435672.09940
 -26911278.51400  18382574.71200 -20764610.53940  18382574.86440
 -25337459.63100  18401376.16500 -19532616.48840  18401376.47040
 -10093198.56400  19546463.46200  -7738654.69640  19546463.36840
 94  6 23 19 13 29.9890000  0  6  1  4  5  7 14 15
 -21409951.50700  19605786.52500 -16340725.71840  19605786.75940
  -3736901.25000  20601740.48500  -2629874.06840  20601740.62640
 -16699727.36700  19425707.85300 -12812060.38140  19425708.19240
 -26923141.52800  18380317.20400 -20773854.45240  18380317.38040
 -25392137.92800  18390971.49300 -19575222.94540  18390971.64640
 -10075887.60000  19549757.19600  -7725165.65240  19549757.22040
 94  6 23 19 13 44.9890000  0  6  1  4  5  7 14 15
 -21411329.55600  19605524.50900 -16341799.51840  19605524.79040
  -3820635.92500  20585806.76700  -2695121.84240  20585807.37640
 -16751942.06000  19415771.79000 -12852747.12340  19415772.35340
 -26934863.63200  18378086.65000 -20782988.56740  18378086.81440
 -25446669.89100  18380594.20400 -19617715.37340  18380594.34540
 -10058482.56100  19553069.46200  -7711603.29840  19553069.74340
 94  6 23 19 13 59.9890000  0  6  1  4  5  7 14 15
 -21412573.79200  19605287.61000 -16342769.04940  19605288.00940
  -3904310.60900  20569883.03200  -2760322.86540  20569883.88840
 -16804014.37500  19405862.49300 -12893322.93740  19405862.95040
 -26946446.10800  18375882.56400 -20792013.88540  18375882.69240
 -25501060.67800  18370243.88400 -19660097.79740  18370244.11840
 -10040987.52200  19556398.77500  -7697970.81840  19556399.04440
 94  6 23 19 14 14.9890000  0  7  1  4  5  7 14 15 20
 -21413687.96900  19605075.37600 -16343637.25940  19605075.98540
  -3987924.06700  20553972.10300  -2825476.20440  20553972.60740
 -16855942.05000  19395981.04800 -12933786.07040  19395981.63440
 -26957884.43600  18373705.99300 -20800926.88040  18373706.26340
 -25555312.61000  18359920.36000 -19702372.03040  18359920.50140
 -10023402.69500  19559745.05600  -7684268.36440  19559745.25540
    -10855.00110  20977433.85300
 94  6 23 19 14 29.9890000  0  7  1  4  5  7 14 15 20
 -21414672.67400  19604888.37600 -16344404.58240  19604888.95040
  -4071471.93300  20538072.88400  -2890578.42540  20538073.08340
 -16907716.93000  19386128.99300 -12974130.12840  19386129.46240
 -26969170.52000  18371557.91500 -20809721.24040  18371558.24340
 -25609420.44900  18349623.87600 -19744533.97340  18349623.94640
 -10005724.20500  19563109.32900  -7670492.93440  19563109.51740
    -92255.62300  20961943.90700
 94  6 23 19 14 44.9890000  0  8  1  4  5  7 14 15 20 25
 -21415531.84100  19604724.74300 -16345074.07440  19604725.22440
  -4154956.50900  20522186.91500  -2955631.32940  20522187.45440
 -16959342.80600  19376304.54800 -13014358.08440  19376304.79440
 -26980306.64000  18369438.93900 -20818398.74240  18369439.13840
 -25663387.38800  18339354.40000 -19786586.12640  18339354.41140
  -9987955.33400  19566490.61000  -7656647.09240  19566491.00940
   -173572.88600  20946469.06400
    -10861.80510  21172925.49300
 94  6 23 19 14 59.9890000  0  8  1  4  5  7 14 15 20 25
 -21416266.11100  19604584.91500 -16345646.23440  19604585.33740
  -4238376.25000  20506313.03200  -3020633.69240  20506314.28640
 -17010821.72100  19366508.64200 -13054471.55540  19366508.79440
 -26991290.86400  18367348.88400 -20826957.88340  18367349.18940
 -25717211.27100  18329111.64200 -19828526.80140  18329111.78240
  -9970095.59400  19569888.93900  -7642730.42740  19569889.34940
   -254805.51500  20931010.59500
    -92323.23700  21157423.75900
 94  6 23 19 15 14.9890000  0  8  1  4  5  7 14 15 20 25
 -21416876.30900  19604468.88400 -16346121.71440  19604469.38840
  -4321728.79400  20490451.54800  -3085583.72040  20490452.07540
 -17062151.52800  19356740.68100 -13094468.82440  19356741.18540
 -27002123.22800  18365287.61800 -20835398.68340  18365287.88840
 -25770888.29700  18318897.50100 -19870353.05940  18318897.66540
  -9952143.69100  19573305.07900  -7628741.96140  19573305.19640
   -335951.46800  20915569.08700         3.71150  20915570.58740
   -173714.63500  21141934.73500
 94  6 23 19 15 29.9890000  0  8  1  4  5  7 14 15 20 25
 -21417368.34800  19604375.48500 -16346505.10540  19604375.83740
  -4405014.08300  20474603.29000  -3150481.32240  20474603.05640
 -17113333.02700  19347001.08700 -13134350.51640  19347001.55640
 -27012806.39700  18363254.42300 -20843723.22740  18363254.78640
 -25824419.39300  18308711.07900 -19912065.59840  18308711.10340
  -9934100.84000  19576738.76700  -7614682.63140  19576739.35340
   -417011.42300  20900143.79000    -63159.88240  20900145.72440
   -255037.01600  21126459.86000     -4218.89150  21126460.57540
 94  6 23 19 15 44.9890000  0  8  1  4  5  7 14 15 20 25
 -21417743.57900  19604304.15700 -16346797.49140  19604304.52140
  -4488231.50800  20458767.35300  -3215326.03740  20458767.56440
 -17164367.94300  19337289.50900 -13174117.98340  19337289.88440
 -27023339.54200  18361250.21200 -20851930.87540  18361250.37640
 -25877806.35500  18298551.18100 -19953665.82840  18298551.22840
  -9915968.50300  19580189.18100  -7600553.56140  19580189.73240
   -497986.14100  20884735.13400   -126257.00540  20884736.81040
   -336291.44300  21110997.43100    -67534.00140  21110997.39640
 94  6 23 19 15 59.9890000  0  8  1  4  5  7 14 15 20 25
 -21418002.56700  19604254.65000 -16346999.29340  19604255.23540
  -4571378.94700  20442944.92300  -3280116.20540  20442944.84140
 -17215253.57700  19327606.04800 -13213769.11040  19327606.36440
 -27033722.25400  18359274.65700 -20860021.31040  18359274.92740
 -25931044.98000  18288420.90700 -19995150.47540  18288420.94240
  -9897747.37700  19583656.99300  -7586355.30940  19583657.26340
   -578875.74100  20869343.15000   -189287.85540  20869345.07140
   -417477.82400  21095547.78200   -130796.05340  21095548.08740
 94  6 23 19 16 14.9890000  0  8  1  4  5  7 14 15 20 25
 -21418140.83000  19604228.61800 -16347107.02840  19604229.05240
  -4654455.70500  20427135.53200  -3344851.32840  20427135.28640
 -17265985.73000  19317952.50100 -13253300.64640  19317952.93540
 -27043952.00300  18357328.00900 -20867992.54640  18357328.12640
 -25984131.63700  18278318.77500 -20036516.69740  18278318.79840
  -9879434.74300  19587141.86000  -7572085.75040  19587142.41140
   -659676.81000  20853965.66500   -252249.68340  20853966.65040
   -498589.32300  21080113.02500   -193999.79040  21080114.04440
 94  6 23 19 16 29.9890000  0  8  1  4  5  7 14 15 20 25
 -21418157.54000  19604225.50100 -16347120.03940  19604226.01740
  -4737463.09800  20411340.05600  -3409532.39540  20411340.20840
 -17316565.48100  19308327.69600 -13292713.42940  19308328.11840
 -27054033.69900  18355409.54000 -20875848.41240  18355409.62240
 -26037068.66400  18268245.35300 -20077766.32340  18268245.38840
  -9861033.26200  19590642.97000  -7557746.96740  19590642.92340
   -740391.27400  20838607.17300   -315144.05040  20838607.80640
   -579628.43200  21064692.10300   -257147.13740  21064692.53640
 94  6 23 19 16 44.9890000  0  8  1  4  5  7 14 15 20 25
 -21418049.20700  19604245.71200 -16347035.61240  19604246.25140
  -4820401.48400  20395556.88400  -3474159.69540  20395557.11840
 -17366993.72800  19298731.23500 -13332008.18140  19298731.70440
 -27063971.44900  18353518.18900 -20883592.11940  18353518.48240
 -26089856.62900  18258199.85300 -20118899.79340  18258199.93540
  -9842542.67900  19594161.85300  -7543338.74040  19594162.22840
   -821018.17500  20823265.31400   -377970.22140  20823265.71240
   -660593.68800  21049284.95400   -320236.92340  21049285.01340
 94  6 23 19 16 59.9890000  0  8  1  4  5  7 14 15 20 25
 -21417811.54000  19604290.93900 -16346850.42340  19604291.56040
  -4903272.57800  20379787.23500  -3538734.54940  20379787.44640
 -17417273.13700  19289163.32100 -13371186.95740  19289163.65040
 -27073764.24300  18351654.78200 -20891222.87640  18351655.07540
 -26142496.72900  18248182.68900 -20159918.05340  18248182.75940
  -9823962.92700  19597697.18100  -7528861.03440  19597697.21640
   -901556.70500  20807938.27500   -440727.47440  20807939.30640
   -741481.38200  21033892.22800   -383266.27940  21033891.94640
 94  6 23 19 17 14.9890000  0  8  1  4  5  7 14 15 20 25
 -21417447.79300  19604360.69600 -16346567.00340  19604361.16540
  -4986080.54900  20364029.36000  -3603260.22840  20364030.35740
 -17467404.32500  19279623.37600 -13410250.22640  19279623.70440
 -27083413.52900  18349818.42300 -20898741.80340  18349818.59940
 -26194991.37100  18238193.25100 -20200822.96540  18238193.36840
  -9805296.90700  19601249.40700  -7514316.10340  19601249.74740
   -982009.18600  20792628.00900   -503417.68440  20792629.88440
   -822292.80600  21018514.44600   -446236.22040  21018514.59940
 94  6 23 19 17 29.9890000  0  8  1  4  5  7 14 15 20 25
 -21416953.85300  19604454.68100 -16346182.10940  19604454.99740
  -5068822.13700  20348283.90700  -3667734.17540  20348284.76340
 -17517383.45100  19270112.70400 -13449194.98640  19270112.78640
 -27092916.96900  18348009.88400 -20906147.09840  18348010.23540
 -26247340.81600  18228231.49300 -20241614.73540  18228231.52840
  -9786541.69100  19604818.12600  -7499701.65940  19604818.44240
  -1062372.03800  20777336.04800   -566038.05740  20777337.65340
   -903023.09200  21003152.18900   -509142.93240  21003152.11840
 94  6 23 19 17 44.9890000  0  8  1  4  5  7 14 15 20 25
 -21416327.48500  19604573.22800 -16345694.01040  19604573.75540
  -5151497.37400  20332551.87600  -3732156.42740  20332552.46240
 -17567215.97400  19260629.87600 -13488025.50640  19260630.25140
 -27102275.37200  18346228.67300 -20913439.36740  18346229.00140
 -26299548.59700  18218296.76700 -20282296.12040  18218296.82540
  -9767700.36200  19608404.08700  -7485020.12440  19608404.50940
  -1142647.51300  20762060.20400   -628590.32740  20762062.03240
   -983672.50500  20987804.61800   -571986.61740  20987805.76740
 94  6 23 19 17 59.9890000  0  8  1  4  5  7 14 15 20 25
 -21415566.52900  19604718.35300 -16345101.05340  19604718.91540
  -5234104.88200  20316832.55600  -3796525.89640  20316832.86040
 -17616898.56000  19251175.79800 -13526739.23240  19251176.38440
 -27111490.29500  18344475.55600 -20920619.83840  18344475.90740
 -26351614.48600  18208388.97000 -20322866.93540  18208389.06440
  -9748773.46100  19612005.97800  -7470271.90040  19612006.21240
  -1222835.45400  20746800.90700   -691074.40940  20746801.18940
  -1064241.35700  20972473.79800   -634767.52340  20972474.10340
 94  6 23 19 18 14.9890000  0  8  1  4  5  7 14 15 20 25
 -21414670.20300  19604888.78200 -16344402.58540  19604889.46240
  -5316644.24000  20301125.48500  -3860842.26540  20301126.09540
 -17666430.21300  19241750.31400 -13565335.31040  19241750.51340
 -27120562.16400  18342749.31400 -20927688.83040  18342749.58340
 -26403537.74500  18198508.39200 -20363326.61540  18198508.43940
  -9729760.76000  19615623.09500  -7455456.82840  19615623.14240
  -1302934.95200  20731557.91500   -753489.58940  20731558.80640
  -1144728.22700  20957157.08700   -697484.51540  20957157.46240
 94  6 23 19 18 29.9890000  0  8  1  4  5  7 14 15 20 25
 -21413640.30800  19605084.65000 -16343600.07740  19605085.03640
  -5399116.02800  20285431.74300  -3925105.97240  20285432.45840
 -17715811.22600  19232353.29000 -13603814.02340  19232353.68940
 -27129491.32100  18341050.08700 -20934646.60740  18341050.23940
 -26455318.96600  18188654.66500 -20403675.61740  18188654.63040
  -9710661.69100  19619258.08700  -7440574.46340  19619258.39240
  -1382944.86200  20716332.53200   -815834.93340  20716335.22840
  -1225133.76900  20941856.07900   -760138.17240  20941856.33740
 94  6 23 19 18 44.9890000  0  8  1  4  5  7 14 15 20 25
 -21412480.71900  19605305.53200 -16342696.50640  19605306.02540
  -5481519.89200  20269750.61800  -3989316.74640  20269751.11040
 -17765043.59700  19222984.81400 -13642176.90040  19222985.21240
 -27138278.24100  18339378.02500 -20941493.54540  18339378.32940
 -26506954.95000  18178828.64200 -20443911.44440  18178828.50140
  -9691476.00500  19622908.80600  -7425624.59540  19622909.06440
  -1462864.07200  20701124.82100   -878109.62540  20701125.88840
  -1305461.78900  20926570.82900   -822731.39140  20926571.16940
 94  6 23 19 18 59.9890000  0  8  1  4  5  7 14 15 20 25
 -21411196.84000  19605549.68900 -16341696.08440  19605550.25140
  -5563858.00100  20254081.71200  -4053476.26140  20254082.43940
 -17814131.09100  19213643.90700 -13680426.87740  19213644.32940
 -27146920.16400  18337733.44600 -20948227.51840  18337733.69240
 -26558445.76200  18169030.48500 -20484034.15140  18169030.41540
  -9672205.16900  19626575.98500  -7410608.38940  19626576.25540
  -1542693.41300  20685934.37600   -940314.27540  20685935.80640
  -1385711.88100  20911299.82100   -885263.90740  20911299.23540
 94  6 23 19 19 14.9890000  0  8  1  4  5  7 14 15 20 25
 -21409788.46300  19605818.01700 -16340598.67440  19605818.50940
  -5646126.89600  20238426.46200  -4117581.87640  20238426.93140
 -17863068.72300  19204331.12600 -13718560.12840  19204331.43140
 -27155415.66900  18336116.93900 -20954847.40040  18336117.26740
 -26609787.12600  18159260.29800 -20524040.41040  18159260.15740
  -9652847.63600  19630259.80600  -7395524.62240  19630259.67740
  -1622430.69100  20670759.85300  -1002447.19840  20670761.66940
  -1465882.37600  20896043.82900   -947734.37640  20896043.57140
 94  6 23 19 19 29.9890000  0  8  1  4  5  7 14 15 20 25
 -21408258.90000  19606108.82100 -16339406.84440  19606109.27840
  -5728323.20800  20222785.27500  -4181630.93040  20222785.86040
 -17911856.52500  19195047.01700 -13756576.59940  19195047.34540
 -27163769.26600  18334527.15000 -20961356.70140  18334527.41940
 -26660980.99700  18149518.55600 -20563931.73940  18149518.41540
  -9633405.40700  19633959.25900  -7380374.84540  19633959.06040
  -1702077.18300  20655604.38400  -1064509.36840  20655605.66140
  -1545976.04100  20880801.74300  -1010145.01840  20880801.68540
 94  6 23 19 19 44.9890000  0  8  1  4  5  7 14 15 20 25
 -21406609.21000  19606422.85300 -16338121.37840  19606423.36840
  -5810442.77100  20207158.80600  -4245620.17040  20207159.00540
 -17960493.18000  19185791.82100 -13794475.26140  19185792.26740
 -27171981.27600  18332964.65000 -20967755.67740  18332965.04840
 -26712025.43200  18139805.04000 -20603706.62340  18139804.87640
  -9613877.45200  19637675.80600  -7365158.28540  19637675.95840
  -1781631.28200  20640464.79000  -1126499.57140  20640466.19640
  -1625993.52900  20865575.62600  -1072496.30140  20865575.81440
 94  6 23 19 19 59.9890000  0  8  1  4  5  7 14 15 20 25
 -21404843.25700  19606758.77500 -16336745.32540  19606759.37240
  -5892485.04300  20191545.93900  -4309549.19740  20191546.15040
 -18008975.77900  19176566.01700 -13832253.91440  19176566.70840
 -27180052.86300  18331428.77500 -20974045.23240  18331429.04440
 -26762919.69700  18130120.32100 -20643364.49240  18130120.21640
  -9594264.61900  19641407.54000  -7349875.57640  19641407.97440
  -1861093.04900  20625344.35300  -1188417.81040  20625345.29040
  -1705934.68300  20850362.97000  -1134788.06140  20850362.91140
 94  6 23 19 20 14.9890000  0  8  1  4  5  7 14 15 20 25
 -21402967.20700  19607116.13400 -16335283.49440  19607116.77840
  -5974453.95000  20175947.86000  -4373421.03940  20175947.87240
 -18057306.12800  19167369.07900 -13869913.91740  19167369.36040
 -27187985.80700  18329919.09500 -20980226.74840  18329919.31740
 -26813665.44500  18120463.78200 -20682906.63140  18120463.54840
  -9574568.88300  19645155.97000  -7334528.26740  19645156.73240
  -1940463.67800  20610240.62600  -1250265.01840  20610242.02140
  -1785802.91700  20835164.42300  -1197023.03740  20835163.90740
 94  6 23 19 20 29.9890000  0  8  1  4  5  7 14 15 20 25
 -21400980.54200  19607493.91500 -16333735.44340  19607494.37240
  -6056346.95200  20160364.50900  -4437233.72340  20160364.28640
 -18105484.11500  19158201.09500 -13907455.19840  19158201.21240
 -27195776.56100  18328436.52500 -20986297.46240  18328436.81740
 -26864260.08300  18110835.89200 -20722331.02240  18110835.68140
  -9554786.77300  19648919.79800  -7319113.64440  19648919.99740
  -2019739.05400  20595154.84500  -1312037.97940  20595156.76740
  -1865595.84400  20819980.89200  -1259199.34840  20819980.36440
 94  6 23 19 20 44.9890000  0  8  1  4  5  7 14 15 20 25
 -21398886.01900  19607892.50900 -16332103.36740  19607893.16540
  -6138164.57700  20144795.17300  -4500987.70840  20144795.59540
 -18153512.50900  19149061.68900 -13944879.91040  19149062.06440
 -27203425.45600  18326981.17300 -20992257.64340  18326981.37240
 -26914705.91600  18101236.22800 -20761639.46040  18101235.92340
  -9534919.73000  19652701.20400  -7303632.84440  19652701.36840
  -2098919.84500  20580087.12600  -1373737.26540  20580087.88840
  -1945315.38800  20804810.40000  -1321318.46140  20804809.97840
 94  6 23 19 20 59.9890000  0  8  1  4  5  7 14 15 20 25
 -21396684.61600  19608311.45400 -16330388.00440  19608312.18140
  -6219909.89200  20129239.01700  -4564685.32540  20129238.97040
 -18201394.40700  19139950.17300 -13982190.44440  19139950.32540
 -27210935.03100  18325551.97800 -20998109.25840  18325552.22440
 -26965010.72000  18091663.74300 -20800838.00040  18091663.52140
  -9514972.21000  19656496.53200  -7288089.33140  19656496.48540
  -2178009.88900  20565036.70400  -1435365.85740  20565037.61840
  -2024961.77100  20789654.13400  -1383380.54740  20789654.27540
 94  6 23 19 21 14.9890000  0  8  1  4  5  7 14 15 20 25
 -21394372.66800  19608751.33700 -16328586.52040  19608751.94640
  -6301580.48300  20113698.01700  -4628324.72840  20113697.97040
 -18249126.43500  19130866.73500 -14019384.24640  19130867.12240
 -27218303.62400  18324149.93100 -21003851.02040  18324150.13040
 -27015174.49200  18082117.80600 -20839926.65340  18082117.65340
  -9494943.05500  19660308.47800  -7272482.21440  19660308.65340
  -2257007.46700  20550004.02500  -1496922.35640  20550004.99740
  -2104530.26300  20774513.41500  -1445381.97140  20774513.11040
 94  6 23 19 21 29.9890000  0  8  1  4  5  7 14 15 20 25
 -21391949.81800  19609212.40000 -16326698.58640  19609212.99740
  -6383174.22900  20098171.16500  -4691904.24140  20098171.01340
 -18296705.89800  19121812.65700 -14056459.13440  19121813.10340
 -27225532.10800  18322774.09500 -21009483.61140  18322774.25940
 -27065194.66300  18072599.27500 -20878903.40640  18072599.08740
  -9474830.99700  19664135.40700  -7256810.49940  19664135.65340
  -2335910.62600  20534989.27500  -1558405.31040  20534990.37640
  -2184018.34200  20759386.51700  -1507320.71840  20759385.91940
 94  6 23 19 21 44.9890000  0  8  1  4  5  7 14 15 20 25
 -21389420.50700  19609693.77500 -16324727.70540  19609694.59540
  -6464699.06800  20082657.13400  -4755430.05440  20082656.78240
 -18344139.18100  19112786.61800 -14093420.13640  19112786.92340
 -27232622.98600  18321424.85300 -21015008.97240  18321425.08740
 -27115074.50800  18063107.52500 -20917770.81440  18063107.15040
  -9454640.56300  19667977.33700  -7241077.71240  19667978.09940
  -2414723.25600  20519991.57100  -1619817.74540  20519992.61440
  -2263430.98100  20744274.87600  -1569200.70140  20744275.46240
 94  6 23 19 21 59.9880000  0  8  1  4  5  7 14 15 20 25
 -21386782.89200  19610195.83200 -16322672.44740  19610196.40640
  -6546150.97100  20067157.87100  -4818899.05540  20067157.83640
 -18391419.15700  19103789.28500 -14130261.67140  19103789.46140
 -27239572.58100  18320102.56700 -21020424.24240  18320102.82440
 -27164807.28500  18053643.72300 -20956523.62540  18053643.41840
  -9434370.68300  19671834.70700  -7225283.03040  19671835.27040
  -2493436.84400  20505013.51200  -1681152.97340  20505015.19940
  -2342756.92400  20729179.78500  -1631013.10040  20729179.64540
 94  6 23 19 22 14.9880000  0  8  1  4  5  7 14 15 20 25
 -21384033.81000  19610718.77000 -16320530.31440  19610718.95740
  -6627540.44700  20051669.87900  -4882319.41140  20051669.86740
 -18438553.59900  19094820.11300 -14166989.78340  19094820.52440
 -27246379.08000  18318807.32400 -21025728.00940  18318807.46540
 -27214398.81200  18044206.84800 -20995166.36740  18044206.63740
  -9414017.66100  19675707.75400  -7209423.55140  19675708.32840
  -2572060.25500  20490051.71500  -1742417.94540  20490052.82840
  -2422003.37000  20714099.51200  -1692763.56140  20714099.55940
 94  6 23 19 22 29.9880000  0  8  1  4  5  7 14 15 20 25
 -21381172.26800  19611263.69900 -16318300.54740  19611264.07440
  -6708860.91700  20036195.22300  -4945685.95740  20036195.86740
 -18485540.85000  19085878.51200 -14203603.22240  19085879.01640
 -27253043.76800  18317538.84800 -21030921.27240  18317538.95340
 -27263844.49100  18034797.59000 -21033695.46540  18034797.29740
  -9393583.46800  19679595.82400  -7193500.83540  19679596.52740
  -2650588.26000  20475107.95700  -1803608.59140  20475108.18040
  -2501166.05500  20699035.41800  -1754448.75140  20699035.44240
 94  6 23 19 22 44.9880000  0  8  1  4  5  7 14 15 20 25
 -21378194.51200  19611829.96500 -16315980.22540  19611830.56340
  -6790109.05400  20020733.89500  -5008996.17240  20020733.91840
 -18532377.51600  19076966.17600 -14240099.33540  19076966.41040
 -27259565.98700  18316297.85600 -21036003.53240  18316298.11340
 -27313142.87500  18025416.26200 -21072109.78740  18025416.00440
  -9373067.58100  19683500.52000  -7177514.45440  19683501.10640
  -2729019.66700  20460183.12100  -1864723.90340  20460183.71940
  -2580241.14400  20683988.14500  -1816065.69040  20683988.28540
 94  6 23 19 22 59.9880000  0  8  1  4  5  7 14 15 20 25
 -21375098.75600  19612419.16000 -16313567.96040  19612419.74640
  -6871286.70400  20005286.37900  -5072251.47740  20005286.46140
 -18579064.98200  19068081.59000 -14276479.17940  19068081.57840
 -27265948.16600  18315083.25400 -21040976.66640  18315083.50040
 -27362295.37700  18016062.98800 -21110410.43640  18016062.59040
  -9352473.88400  19687419.77700  -7161467.42340  19687420.45740
  -2807357.58900  20445275.96500  -1925766.41440  20445276.56340
  -2659228.93100  20668956.91800  -1877614.59140  20668957.34040
 94  6 23 19 23 14.9880000  0  8  1  4  5  7 14 15 20 25
 -21371876.67500  19613032.24600 -16311057.25540  19613032.58640
  -6952387.99200  19989853.37100  -5135447.26140  19989853.64140
 -18625595.59600  19059227.09000 -14312736.80240  19059227.45340
 -27272185.56500  18313896.38700 -21045836.96340  18313896.52740
 -27411294.67400  18006738.78500 -21148591.70040  18006738.35240
  -9331797.76100  19691354.09800  -7145356.17940  19691354.71940
  -2885596.71300  20430386.78500  -1986731.93340  20430388.18040
  -2738124.60800  20653943.22300  -1939091.73140  20653943.18840
 94  6 23 19 23 29.9880000  0  8  1  4  5  7 14 15 20 25
 -21368532.61000  19613668.62100 -16308451.50640  19613668.85640
  -7033415.66800  19974434.23800  -5198585.65540  19974434.27440
 -18671971.63800  19050402.27700 -14348873.98540  19050402.66440
 -27278285.04200  18312735.62900 -21050589.79740  18312735.95740
 -27460140.74300  17997443.49600 -21186653.57440  17997443.07440
  -9311041.92400  19695303.61300  -7129182.80240  19695303.95340
  -2963738.93700  20415517.78500  -2047621.96440  20415518.30140
  -2816933.24300  20638946.39500  -2000501.03940  20638946.38340
 94  6 23 19 23 44.9880000  0  8  1  4  5  7 14 15 20 25
 -21365067.41400  19614328.06700 -16305751.34640  19614328.48840
  -7114370.19200  19959029.35600  -5261667.07240  19959029.39140
 -18718193.89500  19041606.51200 -14384891.33740  19041606.60640
 -27284248.90300  18311600.55900 -21055236.97540  18311600.92240
 -27508835.43600  17988177.27000 -21224597.49940  17988176.91840
  -9290208.20900  19699268.05900  -7112948.74440  19699268.63340
  -3041785.42800  20400665.62900  -2108437.39640  20400665.82840
  -2895658.43100  20623965.63700  -2061845.31040  20623965.54340
 94  6 23 19 23 59.9880000  0  8  1  4  5  7 14 15 20 25
 -21361478.92300  19615010.88700 -16302955.12540  19615011.47340
  -7195247.64500  19943638.59800  -5324688.43940  19943638.66840
 -18764259.59000  19032840.00400 -14420786.67740  19032840.27440
 -27290073.28200  18310492.36300 -21059775.45540  18310492.62140
 -27557377.49600  17978939.66800 -21262422.48440  17978939.25840
  -9269294.42500  19703247.35600  -7096652.31340  19703248.53940
  -3119733.41100  20385832.39500  -2169176.05740  20385833.67240
  -2974298.43600  20609001.37900  -2123123.22340  20609001.52040
 94  6 23 19 24 14.9880000  0  8  1  4  5  7 14 15 20 25
 -21357764.49200  19615717.51200 -16300060.76740  19615718.19240
  -7276044.19900  19928263.31700  -5387646.79340  19928263.25840
 -18810169.53100  19024104.14500 -14456560.63440  19024104.23840
 -27295761.30300  18309410.14500 -21064207.68540  18309410.43840
 -27605767.77300  17969731.88700 -21300129.18240  17969731.34840
  -9248301.71400  19707242.18400  -7080294.37140  19707243.21540
  -3197583.22500  20371017.95700  -2229838.22240  20371019.80940
  -3052854.33700  20594052.55900  -2184335.59740  20594052.43040
 94  6 23 19 24 29.9880000  0  8  1  4  5  7 14 15 20 25
 -21353922.54900  19616448.53500 -16297067.09340  19616449.33240
  -7356757.21100  19912903.94900  -5450540.01540  19912904.23140
 -18855923.35000  19015397.34000 -14492212.95740  19015397.58640
 -27301312.44200  18308353.64500 -21068533.25040  18308354.14940
 -27654004.31800  17960552.48800 -21337716.09440  17960551.97340
  -9227229.26400  19711252.30100  -7063874.30740  19711252.87540
  -3275333.49100  20356223.23100  -2290422.81740  20356224.87140
  -3131327.65300  20579119.54300  -2245483.64040  20579119.60240
 94  6 23 19 24 44.9880000  0  8  1  4  5  7 14 15 20 25
 -21349952.07800  19617204.51200 -16293973.24240  19617205.05140
  -7437388.14600  19897560.80100  -5513369.31440  19897560.68440
 -18901516.28700  19006721.32400 -14527739.91040  19006721.60640
 -27306724.54300  18307323.90200 -21072750.47640  18307324.37140
 -27702087.21600  17951402.49600 -21375183.30340  17951402.03940
  -9206076.05500  19715277.91000  -7047391.30140  19715278.23840
  -3352982.35000  20341447.25400  -2350928.42040  20341447.38340
  -3209720.06000  20564202.19900  -2306568.60740  20564202.09440
 94  6 23 19 24 59.9880000  0  8  1  4  5  7 14 15 20 25
 -21345853.07800  19617984.49600 -16290779.23540  19617985.01240
  -7517942.50700  19882231.85600  -5576138.95740  19882231.21140
 -18946949.58100  18998075.42600 -14563142.47540  18998075.98840
 -27311997.63200  18306320.42600 -21076859.38540  18306320.70740
 -27750019.35000  17942281.70700 -21412533.02040  17942281.18040
  -9184844.49400  19719318.25400  -7030847.25840  19719318.21940
  -3430531.65900  20326689.54300  -2411356.41440  20326690.21140
  -3288031.67000  20549299.88700  -2367590.64140  20549300.01640
 94  6 23 19 25 14.9880000  0  8  1  4  5  7 14 15 20 25
 -21341627.67800  19618788.58200 -16287486.74040  19618789.01640
  -7598418.70400  19866917.84800  -5638847.65740  19866917.83640
 -18992223.29300  18989460.38700 -14598420.70440  18989460.85640
 -27317129.94100  18305343.70700 -21080858.59040  18305344.08240
 -27797802.80700  17933188.51200 -21449766.87440  17933188.12540
  -9163534.10600  19723373.38700  -7014241.76640  19723373.82040
  -3507980.25300  20311951.41000  -2471705.90940  20311952.94540
  -3366262.81900  20534413.06700  -2428549.97540  20534413.33640
 94  6 23 19 25 29.9880000  0  8  1  4  5  7 14 15 20 25
 -21337285.69200  19619614.68400 -16284103.38040  19619615.31740
  -7678817.80100  19851618.23100  -5701496.28140  19851618.14940
 -19037339.75400  18980874.77700 -14633576.37940  18980875.02440
 -27322125.53700  18304393.34000 -21084751.26240  18304393.82040
 -27845439.53400  17924123.64500 -21486886.40340  17924123.14140
  -9142146.68300  19727443.47300  -6997576.25540  19727444.08240
  -3585329.38100  20297232.79300  -2531977.93240  20297233.42640
  -3444414.47000  20519541.41800  -2489447.33540  20519541.13740
 94  6 23 19 25 44.9880000  0  8  1  4  5  7 14 15 20 25
 -21332831.60700  19620462.10600 -16280632.67440  19620462.86740
  -7759139.82800  19836333.69200  -5764084.90240  19836333.53940
 -19082301.53800  18972318.91800 -14668611.53440  18972319.15240
 -27326984.40500  18303468.29300 -21088537.39540  18303468.64540
 -27892929.54600  17915086.45700 -21523891.60440  17915086.05940
  -9120683.51000  19731527.34800  -6980851.72440  19731527.98140
  -3662579.62100  20282532.09000  -2592172.88940  20282533.32040
  -3522483.85100  20504684.64500  -2550280.61840  20504684.70340
 94  6 23 19 25 59.9880000  0  8  1  4  5  7 14 15 20 25
 -21328261.72100  19621331.74600 -16277071.76640  19621332.66040
  -7839381.70300  19821063.46500  -5826611.03240  19821062.83240
 -19127104.36200  18963793.21500 -14703522.81940  18963793.52040
 -27331699.29100  18302571.16800 -21092211.34040  18302571.35640
 -27940268.07500  17906078.34000 -21560778.77440  17906077.82440
  -9099142.41300  19735626.08200  -6964066.47540  19735627.27740
  -3739728.10000  20267851.46500  -2652288.54140  20267852.53140
  -3600468.00000  20489844.83200  -2611047.46440  20489844.69240
 94  6 23 19 26 14.9880000  0  8  1  4  5  7 14 15 20 25
 -21323577.40500  19622223.22300 -16273421.64740  19622223.93840
  -7919546.18600  19805808.71500  -5889076.84540  19805808.52740
 -19171749.43100  18955297.90200 -14738311.18340  18955298.12540
 -27336271.75700  18301701.14500 -21095774.30340  18301701.40240
 -27987457.78000  17897098.79300 -21597549.97240  17897098.27740
  -9077525.01500  19739740.05900  -6947221.77640  19739741.23140
  -3816775.65200  20253189.91800  -2712325.58740  20253190.34040
  -3678365.98100  20475021.41000  -2671747.17740  20475021.37540
 94  6 23 19 26 29.9880000  0  8  1  4  5  7 14 15 20 25
 -21318781.34100  19623135.89500 -16269684.48440  19623136.49240
  -7999636.77100  19790568.10600  -5951485.08540  19790568.29340
 -19216240.56100  18946831.19900 -14772979.60440  18946831.35240
 -27340704.18400  18300857.72300 -21099228.14940  18300858.19240
 -28034499.99600  17888146.49600 -21634206.24340  17888146.13340
  -9055833.81900  19743868.21500  -6930319.56740  19743869.22340
  -3893724.03500  20238547.02000  -2772285.32840  20238547.99240
  -3756177.28600  20460214.41800  -2732379.36340  20460214.64140
 94  6 23 19 26 44.9880000  0  8  1  4  5  7 14 15 20 25
 -21313873.24500  19624070.11300 -16265860.02140  19624071.00440
  -8079651.74900  19775342.25400  -6013834.43040  19775341.48140
 -19260571.59900  18938395.17600 -14807523.25940  18938395.50440
 -27344989.49300  18300042.34000 -21102567.36340  18300042.52740
 -28081391.98300  17879223.45700 -21670745.45840  17879223.14140
  -9034065.40400  19748010.02000  -6913357.19540  19748010.87540
  -3970569.26700  20223924.07400  -2832164.72040  20223924.56740
  -3833896.48000  20445424.76200  -2792939.74040  20445424.68040
 94  6 23 19 26 59.9880000  0  8  1  4  5  7 14 15 20 25
 -21308855.55200  19625024.59800 -16261950.12640  19625025.33640
  -8159591.79200  19760130.18400  -6076125.34340  19760129.68040
 -19304746.25900  18929989.47300 -14841945.05040  18929989.70740
 -27349131.82300  18299253.97300 -21105795.15740  18299253.97340
 -28128133.66000  17870328.84800 -21707167.54240  17870328.52040
  -9012222.66300  19752167.14500  -6896336.88640  19752167.98840
  -4047313.50100  20209320.09000  -2891965.41440  20209320.58240
  -3911523.32300  20430653.02700  -2853428.17040  20430652.64140
 94  6 23 19 27 14.9880000  0  8  1  4  5  7 14 15 20 25
 -21303730.58200  19625999.88700 -16257956.64640  19626000.84840
  -8239451.77800  19744933.52700  -6138353.90140  19744932.81340
 -19348768.33100  18921611.77000 -14876247.97040  18921612.02740
 -27353133.01900  18298492.46500 -21108912.96840  18298492.84040
 -28174721.27100  17861463.56700 -21743469.57440  17861463.07440
  -8990305.67000  19756337.92600  -6879258.72540  19756338.61740
  -4123956.17800  20194735.06700  -2951686.96140  20194735.98140
  -3989055.03900  20415899.03500  -2913842.47440  20415898.85940
 94  6 23 19 27 29.9880000  0  8  1  4  5  7 14 15 20 25
 -21298501.23200  19626995.18400 -16253881.86340  19626995.99240
  -8319232.60200  19729751.14500  -6200520.75140  19729750.73440
 -19392640.18000  18913263.62100 -14910433.80540  18913263.86740
 -27356996.19800  18297757.59000 -21111923.24640  18297757.77740
 -28221152.39800  17852628.40200 -21779649.67240  17852628.09840
  -8968315.83900  19760521.46500  -6862123.82740  19760522.75440
  -4200497.99300  20180169.92600  -3011329.94840  20180170.84040
  -4066496.09000  20401162.80100  -2974186.13440  20401162.64940
 94  6 23 19 27 44.9880000  0  8  1  4  5  7 14 15 20 25
 -21293163.99000  19628010.77700 -16249722.97640  19628011.64540
  -8398936.82300  19714584.18400  -6262627.93340  19714583.75040
 -19436359.61500  18904943.80100 -14944500.89240  18904943.94240
 -27360724.03300  18297048.05100 -21114828.05340  18297048.35640
 -28267423.39300  17843822.69900 -21815704.99140  17843822.40640
  -8946253.24100  19764720.12100  -6844932.20940  19764721.42240
  -4276938.24200  20165623.62900  -3070893.76440  20165624.23840
  -4143846.68000  20386443.63700  -3034459.29640  20386443.49640
 94  6 23 19 27 59.9880000  0  8  1  4  5  7 14 15 20 25
 -21287713.11300  19629048.51200 -16245475.52640  19629049.28540
  -8478564.18000  19699431.31700  -6324675.23540  19699431.21140
 -19479922.92700  18896654.30900 -14978446.32440  18896654.41440
 -27364313.12600  18296365.31700 -21117624.75140  18296365.30540
 -28313533.94800  17835048.28500 -21851635.29640  17835047.89940
  -8924116.48800  19768932.84000  -6827682.81040  19768933.67240
  -4353274.71700  20151097.19900  -3130376.71840  20151098.14940
  -4221109.23800  20371740.73800  -3094663.87240  20371740.55140
 94  6 23 19 28 14.9880000  0  8  1  4  5  7 14 15 20 25
 -21282149.85000  19630107.03500 -16241140.53040  19630107.65640
  -8558116.69800  19684293.12900  -6386664.18640  19684292.70740
 -19523331.90600  18888393.61300 -15012271.50540  18888393.64940
 -27367767.30700  18295707.84000 -21120316.33540  18295708.08640
 -28359489.28100  17826303.11300 -21887444.63940  17826302.79740
  -8901907.26200  19773159.49600  -6810376.94340  19773160.53940
  -4429508.64000  20136591.00400  -3189779.73440  20136591.85940
  -4298285.78800  20357054.77000  -3154801.42340  20357054.80540
 94  6 23 19 28 29.9880000  0  8  1  4  5  7 14 15 20 25
 -21276476.35500  19631186.66000 -16236719.63940  19631187.41040
  -8637595.39200  19669168.84000  -6448595.62240  19669168.51240
 -19566592.90000  18880161.11300 -15045981.37740  18880161.27740
 -27371091.13300  18295075.20700 -21122906.33740  18295075.55940
 -28405292.41400  17817587.35600 -21923135.39640  17817587.03940
  -8879628.00300  19777398.77000  -6793016.49840  19777399.98840
  -4505641.80500  20122102.52000  -3249104.25440  20122103.99640
  -4375376.84800  20342384.67600  -3214872.37540  20342384.33640
 94  6 23 19 28 44.9880000  0  8  1  4  5  7 14 15 20 25
 -21270690.08700  19632287.75400 -16232210.87540  19632288.53940
  -8716994.78300  19654059.53500  -6510465.27940  19654059.17240
 -19609698.38000  18871958.55900 -15079570.05140  18871958.61740
 -27374279.67500  18294468.73100 -21125390.92140  18294468.88340
 -28450938.31100  17808900.91000 -21958703.63340  17808900.54740
  -8857275.34500  19781652.91000  -6775598.87640  19781653.83640
  -4581670.19800  20107634.97300  -3308347.10340  20107636.49640
  -4452379.62800  20327731.25400  -3274874.51840  20327731.30140
 94  6 23 19 28 59.9880000  0  8  1  4  5  7 14 15 20 25
 -21264791.95600  19633410.39500 -16227614.94440  19633411.07440
  -8796315.60000  19638964.95700  -6572273.67040  19638965.30940
 -19652647.87800  18863785.79300 -15113037.19540  18863785.78140
 -27377336.27700  18293887.00400 -21127772.69540  18293886.92240
 -28496427.36900  17800244.69900 -21994149.66040  17800244.44240
  -8834850.65200  19785919.91000  -6758125.09840  19785920.95340
  -4657594.44600  20093187.26200  -3367508.82940  20093189.02040
  -4529297.59000  20313094.13700  -3334810.56040  20313094.44240
 94  6 23 19 29 14.9880000  0  8  1  4  5  7 14 15 20 25
 -21258781.36500  19634554.09000 -16222931.38640  19634554.51240
  -8875555.42600  19623886.61300  -6634018.99740  19623886.74240
 -19695442.55700  18855642.25400 -15146383.70940  18855642.24240
 -27380261.40600  18293330.37100 -21130052.02440  18293330.60640
 -28541759.08200  17791618.57400 -22029473.08440  17791618.21140
  -8812353.27200  19790201.14500  -6740594.69940  19790202.35240
  -4733413.35100  20078759.47300  -3426588.49440  20078760.24640
  -4606129.23800  20298473.44200  -3394679.36840  20298473.84040
 94  6 23 19 29 29.9880000  0  8  1  4  5  7 14 15 20 25
 -21252658.89200  19635719.08200 -16218160.63240  19635719.50440
  -8954714.58400  19608823.17600  -6695701.45940  19608823.75040
 -19738077.70400  18847529.07400 -15179605.90540  18847529.05140
 -27383054.60200  18292798.99600 -21132228.55340  18292799.34840
 -28586935.50900  17783021.65200 -22064675.50240  17783021.26640
  -8789782.16800  19794495.83200  -6723006.83540  19794496.84040
  -4809124.97600  20064352.08200  -3485584.57740  20064352.85640
  -4682873.21200  20283869.94900  -3454479.87640  20283869.94940
 94  6 23 19 29 44.9880000  0  8  1  4  5  7 14 15 20 25
 -21246425.71400  19636905.07400 -16213303.62740  19636905.44940
  -9033794.71600  19593774.07400  -6757322.35040  19593774.29740
 -19780551.46400  18839446.40200 -15212702.35440  18839446.81340
 -27385719.95100  18292291.92600 -21134305.45740  18292291.94940
 -28631963.18700  17774453.26200 -22099762.00740  17774452.94540
  -8767139.76200  19798804.48100  -6705363.41640  19798805.43040
  -4884731.00900  20049964.44200  -3544498.35040  20049965.90640
  -4759528.50800  20269282.93400  -3514211.28540  20269282.51240
 94  6 23 19 29 59.9880000  0  8  1  4  5  7 14 15 20 25
 -21240082.92100  19638112.17600 -16208361.20640  19638112.86740
  -9112791.33600  19578742.34800  -6818878.16340  19578742.81740
 -19822863.97500  18831394.62900 -15245673.16440  18831394.93440
 -27388253.06900  18291809.80900 -21136279.31340  18291810.10240
 -28676845.87600  17765912.26200 -22134735.53240  17765911.98140
  -8744425.52700  19803127.63700  -6687664.05140  19803128.53940
  -4960230.41000  20035597.10600  -3603329.03140  20035598.03140
  -4836089.28900  20254713.97300  -3573869.02040  20254713.36340
 94  6 23 19 30 14.9880000  0  8  1  4  5  7 14 15 20 25
 -21233632.08100  19639339.44900 -16203334.59940  19639339.97740
  -9191700.27200  19563725.57400  -6880365.65840  19563725.70340
 -19865019.31400  18823372.99600 -15278521.47340  18823373.17240
 -27390650.43300  18291353.25400 -21138147.40140  18291353.52440
 -28721584.53300  17757398.57400 -22169596.81640  17757398.27040
  -8721639.45000  19807463.11300  -6669908.68040  19807464.57840
  -5035622.53300  20021250.41800  -3662076.11540  20021251.22740
  -4912550.88800  20240164.12900  -3633449.50140  20240163.73140
 94  6 23 19 30 29.9880000  0  8  1  4  5  7 14 15 20 25
 -21227076.39700  19640587.16800 -16198226.31340  19640588.05940
  -9270522.92100  19548726.50400  -6941785.90940  19548726.59840
 -19907021.61900  18815379.97300 -15311250.54540  18815380.07840
 -27392915.74300  18290922.16000 -21139912.58240  18290922.30140
 -28766179.83300  17748912.47300 -22204346.40440  17748912.18040
  -8698783.94300  19811812.83200  -6652099.23840  19811813.65240
  -5110909.03000  20006924.77700  -3720740.91140  20006925.58640
  -4988913.27700  20225632.48100  -3692952.64640  20225631.41440
 94  6 23 19 30 44.9880000  0  8  1  4  5  7 14 15 20 25
 -21220414.21300  19641854.84800 -16193035.03740  19641855.42240
  -9349255.24000  19533744.51200  -7003135.71640  19533744.31340
 -19948866.12700  18807416.97300 -15343856.66240  18807417.09040
 -27395044.77000  18290516.98800 -21141571.56340  18290517.36340
 -28810627.48000  17740454.19900 -22238980.93140  17740453.88340
  -8675856.87700  19816175.03500  -6634234.00440  19816175.96140
  -5186087.04800  19992618.00400  -3779321.17540  19992618.78940
  -5065176.70900  20211120.22300  -3752378.66240  20211119.83640
 94  6 23 19 30 59.9880000  0  8  1  4  5  7 14 15 20 25
 -21213648.62300  19643142.62900 -16187763.17040  19643142.72340
  -9427899.07400  19518779.01200  -7064416.60840  19518778.82440
 -19990552.22400  18799484.73100 -15376339.31340  18799484.98840
 -27397040.30500  18290137.47300 -21143126.53640  18290137.66040
 -28854929.49100  17732024.08200 -22273501.97940  17732023.90640
  -8652859.70000  19820551.87900  -6616314.17540  19820553.40240
  -5261157.39400  19978333.00400  -3837817.51740  19978334.17640
  -5141343.86900  20196625.88700  -3811729.68740  20196625.34840
 94  6 23 19 31 14.9880000  0  8  1  4  5  7 14 15 20 25
 -21206781.31000  19644449.30900 -16182412.00340  19644449.76640
  -9506453.68400  19503830.73800  -7125628.01040  19503831.21940
 -20032084.87900  18791581.09000 -15408702.42240  18791581.23140
 -27398905.87600  18289782.30900 -21144580.23940  18289782.67240
 -28899086.78600  17723621.01200 -22307910.25740  17723620.85940
  -8629793.42000  19824940.59000  -6598340.44740  19824941.93840
  -5336120.36300  19964067.68400  -3896230.19140  19964069.06740
  -5217416.03700  20182149.86300  -3871006.64840  20182149.62940
 94  6 23 19 31 29.9880000  0  8  1  4  5  7 14 15 20 25
 -21199809.25400  19645775.83200 -16176979.23840  19645776.18440
  -9584917.63700  19488899.46500  -7186768.75440  19488899.78140
 -20073462.91700  18783706.96500 -15440945.06340  18783707.27040
 -27400642.01900  18289451.83200 -21145933.07540  18289452.12540
 -28943099.71800  17715245.58200 -22342206.04640  17715245.37140
  -8606657.63900  19829343.57400  -6580312.60340  19829345.01640
  -5410975.05300  19949822.82400  -3954558.50540  19949823.96140
  -5293392.31400  20167691.74600  -3930208.91540  20167691.59440
 94  6 23 19 31 44.9880000  0  8  1  4  5  7 14 15 20 25
 -21192729.91100  19647123.25400 -16171462.89240  19647123.65240
  -9663290.58200  19473985.05900  -7247838.57640  19473985.62140
 -20114686.05000  18775862.89500 -15473066.99640  18775863.09440
 -27402249.22300  18289146.18400 -21147185.44940  18289146.34840
 -28986965.34900  17706898.59000 -22376387.04740  17706898.41440
  -8583452.51600  19833759.41800  -6562230.70340  19833760.78940
  -5485720.95700  19935599.66800  -4012802.04140  19935601.20340
  -5369272.95900  20153252.08200  -3989336.65640  20153251.52040
 94  6 23 19 31 59.9880000  0  8  1  4  5  7 14 15 20 25
 -21185541.77400  19648491.16800 -16165861.74740  19648491.91840
  -9741572.70700  19459088.66800  -7308837.62940  19459088.97340
 -20155757.36300  18768047.31700 -15505070.61740  18768047.19940
 -27403721.57600  18288866.16800 -21148332.74240  18288866.35640
 -29030681.41400  17698579.37100 -22410451.50740  17698579.17240
  -8560178.14900  19838188.33200  -6544094.86640  19838189.44540
  -5560357.39600  19921396.93400  -4070960.28740  19921397.87140
  -5445060.77600  20138830.38700  -4048392.06640  20138829.87140
 94  6 23 19 32 14.9880000  0  8  1  4  5  7 14 15 20 25
 -21178245.19400  19649879.87900 -16160176.13040  19649880.30140
  -9819768.25600  19444208.66800  -7369769.21440  19444208.87940
 -20196680.26500  18760259.65200 -15536958.59040  18760259.69940
 -27405059.84500  18288611.62100 -21149375.55140  18288611.98440
 -29074243.52600  17690289.71500 -22444396.00340  17690289.55140
  -8536835.92900  19842631.07400  -6525906.15540  19842631.69540
  -5634885.06600  19907214.53500  -4129033.78040  19907214.91040
  -5520759.96000  20124424.98100  -4107378.41640  20124425.03940
 94  6 23 19 32 29.9880000  0  8  1  4  5  7 14 15 20 25
 -21170837.85000  19651288.73800 -16154404.17340  19651289.45340
  -9897879.23000  19429344.69200  -7430634.91240  19429345.43040
 -20237451.10200  18752501.28500 -15568728.07340  18752501.47340
 -27406266.54000  18288381.61300 -21150315.84840  18288381.95340
 -29117648.23600  17682030.11300 -22478217.83740  17682029.90240
  -8513425.76800  19847085.49600  -6507664.48340  19847086.56340
  -5709303.21900  19893052.75400  -4187021.93040  19893053.80940
  -5596374.41100  20110036.08200  -4166298.72440  20110036.03540
 94  6 23 19 32 44.9880000  0  8  1  4  5  7 14 15 20 25
 -21163318.47600  19652720.33200 -16148544.96540  19652721.15240
  -9975906.20700  19414497.40200  -7491435.15940  19414497.84840
 -20278064.44100  18744772.62900 -15600374.83840  18744772.79340
 -27407341.56900  18288177.04300 -21151153.54040  18288177.20740
 -29160892.93700  17673801.18400 -22511914.99640  17673801.06740
  -8489947.50500  19851552.90200  -6489369.77840  19851554.52040
  -5783611.08800  19878913.05900  -4244924.16540  19878913.94940
  -5671905.21600  20095662.70700  -4225153.88440  20095662.90640
 94  6 23 19 32 59.9880000  0  8  1  4  5  7 14 15 20 25
 -21155685.12600  19654172.50400 -16142596.90840  19654173.19540
 -10053849.57000  19399664.34800  -7552170.23140  19399664.82840
 -20318520.01800  18737074.62900 -15631898.65640  18737074.89940
 -27408284.27000  18287997.47300 -21151888.12140  18287997.83640
 -29203976.64000  17665602.52700 -22545486.71140  17665602.37540
  -8466400.55200  19856034.30100  -6471021.52440  19856035.96540
  -5857807.35600  19864794.30100  -4302739.43440  19864795.37940
  -5747348.06900  20081306.87100  -4283940.49440  20081306.50840
 94  6 23 19 33 14.9880000  0  8  1  4  5  7 14 15 20 25
 -21147938.16200  19655646.62900 -16136560.32840  19655647.63740
 -10131714.06100  19384847.19900  -7612843.84240  19384848.19540
 -20358822.43700  18729404.97300 -15663303.12540  18729405.09040
 -27409097.41300  18287842.86300 -21152521.74640  18287843.32040
 -29246900.27600  17657434.27000 -22578933.69040  17657434.10640
  -8442787.92200  19860527.60600  -6452622.11040  19860528.50840
  -5931894.35600  19850695.64500  -4360469.56240  19850697.41440
  -5822702.44200  20066967.59000  -4342658.13940  20066967.20340
 94  6 23 19 33 29.9880000  0  8  1  4  5  7 14 15 20 25
 -21140072.61600  19657143.37900 -16130431.33140  19657144.25840
 -10209497.19500  19370045.92600  -7673454.04640  19370046.79340
 -20398968.69200  18721765.80100 -15694585.90740  18721765.97740
 -27409774.56800  18287713.91000 -21153049.40740  18287714.29740
 -29289661.50400  17649297.46500 -22612254.11640  17649297.24240
  -8419107.33300  19865033.62900  -6434169.73640  19865034.62540
  -6005869.14200  19836618.27700  -4418112.24340  19836620.08240
  -5897961.30400  20052646.42600  -4401301.37240  20052645.80540
 94  6 23 19 33 44.9880000  0  8  1  4  5  7 14 15 20 25
 -21132093.07800  19658661.93400 -16124213.51540  19658662.52040
 -10287201.23900  19355258.80900  -7734002.63540  19355259.10240
 -20438960.24900  18714155.34800 -15725748.18440  18714155.39540
 -27410314.18700  18287611.80900 -21153469.89240  18287611.86740
 -29332262.47600  17641190.26200 -22645449.66740  17641190.13340
  -8395361.95800  19869552.16000  -6415666.87840  19869552.75840
  -6079734.17500  19822562.84800  -4475669.38540  19822564.58240
  -5973123.11800  20038343.41000  -4459868.96340  20038342.93040
 94  6 23 19 33 59.9880000  0  8  1  4  5  7 14 15 20 25
 -21124002.66700  19660201.47300 -16117909.32340  19660202.39940
 -10364826.18500  19340487.61300  -7794489.56540  19340488.75040
 -20478796.76900  18706574.57400 -15756789.62740  18706574.65640
 -27410714.00800  18287535.38700 -21153781.45040  18287535.37540
 -29374704.65600  17633113.91800 -22678521.49040  17633113.82440
  -8371552.29900  19874082.91800  -6397113.91940  19874084.17240
  -6153489.37800  19808527.55900  -4533140.95440  19808528.83640
  -6048188.36100  20024058.84000  -4518361.33440  20024058.39540
 94  6 23 19 34 14.9870000  0  8  1  4  5  7 14 15 20 25
 -21115799.88200  19661762.64800 -16111517.56240  19661763.28040
 -10442361.86300  19325732.59300  -7854906.95040  19325732.92140
 -20518471.06000  18699025.12400 -15787704.64140  18699025.24140
 -27410969.36400  18287486.55400 -21153980.43940  18287486.69440
 -29416982.14700  17625068.75700 -22711464.98540  17625068.60540
  -8347675.67400  19878627.10100  -6378508.80640  19878627.80440
  -6227124.76600  19794514.71800  -4590519.17540  19794515.84340
  -6123145.76600  20009795.02300  -4576769.70240  20009794.87040
 94  6 23 19 34 29.9870000  0  8  1  4  5  7 14 15 20 25
 -21107488.87300  19663344.07700 -16105041.47640  19663344.85140
 -10519819.04300  19310993.81200  -7915263.17340  19310993.64840
 -20557988.86700  18691504.92900 -15818497.74040  18691505.01140
 -27411087.34700  18287464.44400 -21154072.38840  18287464.56240
 -29459104.42800  17617053.08500 -22744287.53340  17617052.95640
  -8323732.55100  19883183.10900  -6359851.83340  19883184.67940
  -6300653.30600  19780522.37400  -4647814.12440  19780524.22640
  -6198006.60000  19995549.53800  -4635102.79240  19995549.03440
 94  6 23 19 34 44.9870000  0  8  1  4  5  7 14 15 20 25
 -21099071.15200  19664945.76500 -16098482.24240  19664946.60940
 -10597189.38800  19296269.86600  -7975551.73640  19296269.76140
 -20597344.27100  18684015.78000 -15849164.26340  18684015.83940
 -27411067.83900  18287468.25700 -21154057.20040  18287468.44440
 -29501071.57700  17609067.13200 -22776989.20040  17609067.02640
  -8299724.60700  19887751.45200  -6341144.39040  19887753.11640
  -6374069.32900  19766552.59300  -4705021.37740  19766554.15140
  -6272761.52500  19981323.89000  -4693353.36440  19981323.11640
 94  6 23 19 34 59.9870000  0  8  1  4  5  7 14 15 20 25
 -21090549.32400  19666567.71800 -16091841.85640  19666568.26940
 -10674469.68700  19281564.11600  -8035770.13940  19281563.53040
 -20636539.61200  18676557.26500 -15879706.09940  18676557.58140
 -27410911.07500  18287497.74100 -21153935.05740  18287497.87040
 -29542884.81100  17601110.10100 -22809570.93240  17601110.07740
  -8275650.94600  19892333.03000  -6322385.70440  19892334.28440
  -6447371.48400  19752603.78000  -4762139.91840  19752604.28440
  -6347406.03700  19967119.94400  -4751517.89740  19967119.61640
 94  6 23 19 35 14.9870000  0  8  1  4  5  7 14 15 20 25
 -21081923.99400  19668208.73400 -16085120.85440  19668209.43740
 -10751657.83100  19266876.03800  -8095916.74140  19266875.59340
 -20675572.69000  18669129.54600 -15910121.47640  18669129.61640
 -27410617.41300  18287553.78800 -21153706.23440  18287554.02340
 -29584544.54100  17593182.87400 -22842033.05640  17593182.79240
  -8251510.79600  19896926.63200  -6303575.22540  19896927.60540
  -6520558.21600  19738676.89800  -4819168.55240  19738677.33140
  -6421938.88700  19952936.60900  -4809595.41940  19952935.98740
 94  6 23 19 35 29.9870000  0  8  1  4  5  7 14 15 20 25
 -21073201.52700  19669868.61600 -16078324.15140  19669869.16740
 -10828753.04500  19252204.85100  -8155990.90640  19252204.96840
 -20714444.61300  18661732.33500 -15940411.28340  18661732.32340
 -27410190.82900  18287634.94400 -21153373.83840  18287635.08540
 -29626052.72100  17585284.06200 -22874377.08540  17585283.98040
  -8227307.08500  19901532.41300  -6284715.22740  19901533.01140
  -6593631.80500  19724770.69400  -4876108.99940  19724771.43340
  -6496364.48200  19938774.03000  -4867589.38140  19938773.36240
 94  6 23 19 35 44.9870000  0  8  1  4  5  7 14 15 20 25
 -21064382.26300  19671546.96800 -16071451.99940  19671547.34340
 -10905750.65400  19237552.62400  -8215989.03040  19237552.84740
 -20753150.50200  18654367.19400 -15970571.71540  18654367.21840
 -27409630.45000  18287741.50700 -21152937.18740  18287741.75340
 -29667409.14000  17577414.17100 -22906602.86540  17577414.05440
  -8203037.35800  19906150.89000  -6265803.76740  19906151.55840
  -6666589.14400  19710887.69400  -4932958.83940  19710888.91340
  -6570681.23300  19924631.69400  -4925498.52240  19924630.81640
 94  6 23 19 35 59.9870000  0  8  1  4  5  7 14 15 20 25
 -21055469.79700  19673243.42100 -16064507.21040  19673244.08940
 -10982653.32800  19222919.00700  -8275913.15740  19222918.67940
 -20791693.45400  18647032.73400 -16000605.19140  18647032.71040
 -27408943.00600  18287872.06200 -21152401.53540  18287872.37840
 -29708615.53500  17569572.96800 -22938711.73940  17569572.85140
  -8178704.34400  19910781.35100  -6246842.99640  19910782.33540
  -6739432.17100  19697026.14800  -4989719.62640  19697027.01540
  -6644895.11100  19910509.18700  -4983327.50340  19910508.46040
 94  6 23 19 36 14.9870000  0  8  1  4  5  7 14 15 20 25
 -21046460.08500  19674957.29600 -16057486.65740  19674958.19840
 -11059460.28400  19208303.28000  -8335762.73140  19208302.71840
 -20830071.08600  18639729.42900 -16030509.84840  18639729.21840
 -27408130.42700  18288027.07700 -21151768.35840  18288027.53440
 -29749669.98800  17561760.37400 -22970702.22040  17561760.25740
  -8154306.57900  19915424.47600  -6227831.76140  19915425.39040
  -6812158.91100  19683186.20200  -5046389.78440  19683187.04640
  -6719006.69800  19896405.91300  -5041076.76840  19896404.94140
 94  6 23 19 36 29.9870000  0  8  1  4  5  7 14 15 20 25
 -21037354.70900  19676690.24100 -16050391.58440  19676691.24940
 -11136173.11200  19193705.03000  -8395538.94540  19193704.70240
 -20868283.10300  18632457.63200 -16060285.44440  18632457.53840
 -27407196.76800  18288204.99100 -21151040.84640  18288205.37840
 -29790572.52100  17553976.74100 -23002574.32740  17553976.64840
  -8129844.95800  19920078.54600  -6208770.78140  19920079.42540
  -6884769.50000  19669368.89000  -5102969.45540  19669370.34340
  -6793014.24300  19882322.81900  -5098744.96240  19882322.71440
 94  6 23 19 36 44.9870000  0  8  1  4  5  7 14 15 20 25
 -21028154.24400  19678441.02300 -16043222.45140  19678442.25340
 -11212792.81600  19179124.31900  -8455242.59440  19179124.08540
 -20906330.12600  18625217.85900 -16089932.47340  18625218.04640
 -27406143.84500  18288405.05400 -21150220.40840  18288405.69840
 -29831325.04800  17546221.76500 -23034329.54440  17546221.65940
  -8105320.86200  19924745.51500  -6189661.12840  19924746.87440
  -6957264.71400  19655574.00700  -5159459.18740  19655575.08540
  -6866918.66200  19868259.32700  -5156332.80940  19868258.95240
 94  6 23 19 36 59.9870000  0  8  1  4  5  7 14 15 20 25
 -21018855.82300  19680210.64800 -16035976.96740  19680211.46840
 -11289319.10200  19164562.27300  -8514873.45740  19164561.92140
 -20944213.57200  18618008.75700 -16119452.02940  18618008.86240
 -27404970.48600  18288628.22600 -21149306.11840  18288628.71840
 -29871928.71200  17538495.24900 -23065968.76940  17538495.08540
  -8080733.80700  19929424.03000  -6170502.41840  19929425.31940
  -7029643.30200  19641801.00700  -5215858.07340  19641801.93340
  -6940721.93400  19854215.21000  -5213841.82540  19854215.06940
 94  6 23 19 37 14.9870000  0  8  1  4  5  7 14 15 20 25
 -21009458.59000  19681998.43700 -16028654.45340  19681998.98740
 -11365754.11200  19150017.10100  -8574433.18740  19150016.66740
 -20981936.31500  18610830.56200 -16148846.37340  18610830.57340
 -27403676.10300  18288875.02300 -21148297.51440  18288875.25740
 -29912382.56000  17530796.89000 -23097491.25240  17530796.78440
  -8056084.73000  19934115.03800  -6151295.36440  19934116.51540
  -7101905.67600  19628049.92900  -5272166.42040  19628050.78440
  -7014426.24000  19840189.51500  -5271273.72840  19840189.31640
 94  6 23 19 37 29.9870000  0  8  1  4  5  7 14 15 20 25
 -20999962.71900  19683805.74100 -16021255.08140  19683806.64440
 -11442098.21500  19135489.50700  -8633922.07640  19135489.37840
 -21019498.79200  18603682.71800 -16178115.82440  18603682.77640
 -27402259.95700  18289144.52300 -21147194.02940  18289145.01540
 -29952684.50800  17523127.86600 -23128895.37140  17523127.86640
  -8031374.10400  19938817.06200  -6132040.35640  19938818.12840
  -7174051.67700  19614320.79600  -5328384.07140  19614321.68740
  -7088035.22500  19826182.30400  -5328631.37340  19826181.69440
 94  6 23 19 37 44.9870000  0  8  1  4  5  7 14 15 20 25
 -20990366.44400  19685631.74100 -16013777.49640  19685632.39840
 -11518351.59400  19120978.83500  -8693340.27140  19120978.70640
 -21056903.06400  18596564.69400 -16207262.01540  18596564.73040
 -27400720.57900  18289437.00700 -21145994.53440  18289437.54640
 -29992833.26200  17515487.88200 -23160180.10840  17515487.90540
  -8006602.53800  19943530.42100  -6112737.84940  19943531.69840
  -7246081.11100  19600613.87400  -5384510.88940  19600614.85940
  -7161547.47700  19812193.42100  -5385913.59740  19812192.41340
 94  6 23 19 37 59.9870000  0  8  1  4  5  7 14 15 20 25
 -20980666.70800  19687477.98400 -16006219.27540  19687478.71040
 -11594516.48100  19106484.79600  -8752689.51340  19106484.43340
 -21094152.12600  18589476.46000 -16236287.28640  18589476.51940
 -27399057.58400  18289753.79600 -21144698.71240  18289754.31240
 -30032830.83200  17507876.47600 -23191347.04540  17507876.47640
  -7981771.77700  19948256.55400  -6093389.26540  19948258.17140
  -7317995.11200  19586928.78800  -5440547.75240  19586929.52640
  -7234962.65600  19798223.06900  -5443120.20040  19798222.55440
 94  6 23 19 38 14.9870000  0  8  1  4  5  7 14 15 20 25
 -20970860.49200  19689343.99900 -15998578.09640  19689344.60940
 -11670588.14200  19092009.17100  -8811966.12340  19092009.05440
 -21131244.01300  18582417.78800 -16265190.07240  18582417.53040
 -27397266.44700  18290094.41300 -21143303.02540  18290094.65940
 -30072671.18300  17500295.49100 -23222391.47040  17500295.45640
  -7956879.57100  19952993.45200  -6073992.74540  19952994.33140
  -7389790.90800  19573266.89000  -5496492.50640  19573267.80440
  -7308277.40300  19784271.31200  -5500248.56440  19784270.79640
 94  6 23 19 38 29.9870000  0  8  1  4  5  7 14 15 20 25
 -20960946.13900  19691230.37400 -15990852.66840  19691231.13640
 -11746564.20300  19077551.35100  -8871168.23940  19077551.24540
 -21168176.07700  18575390.10100 -16293968.32540  18575390.04240
 -27395343.63200  18290460.71000 -21141804.73940  18290461.22640
 -30112351.08100  17492744.60100 -23253310.86740  17492744.55440
  -7931924.97900  19957741.94400  -6054547.62240  19957742.57740
  -7461466.77200  19559627.90500  -5552343.81140  19559628.46840
  -7381487.66800  19770340.10100  -5557295.50740  19770340.08940
 94  6 23 19 38 44.9870000  0  8  1  4  5  7 14 15 20 25
 -20950929.54600  19693136.71800 -15983047.56940  19693137.18740
 -11822444.50300  19063111.59300  -8930295.73440  19063111.14840
 -21204953.06100  18568391.42900 -16322625.69340  18568391.48740
 -27393290.83400  18290850.89800 -21140205.17340  18290851.30840
 -30151872.12800  17485224.02300 -23284106.49340  17485224.06940
  -7906910.87900  19962501.78000  -6035056.12040  19962502.80040
  -7533025.04100  19546010.60900  -5608103.47140  19546010.97240
  -7454595.64600  19756427.98400  -5614262.73440  19756427.59740
 94  6 23 19 38 59.9870000  0  8  1  4  5  7 14 15 20 25
 -20940810.83400  19695062.08500 -15975162.88440  19695062.83540
 -11898229.26500  19048690.31200  -8989348.78040  19048690.14840
 -21241576.07000  18561422.49900 -16351163.10940  18561422.58140
 -27391106.54600  18291266.54600 -21138503.14740  18291266.94440
 -30191233.62200  17477733.64800 -23314777.78640  17477733.58940
  -7881838.11000  19967272.73400  -6015518.94140  19967273.62440
  -7604465.76200  19532415.14800  -5663771.55540  19532416.01540
  -7527601.39200  19742535.84300  -5671150.29140  19742535.40940
 94  6 23 19 39 14.9870000  0  8  1  4  5  7 14 15 20 25
 -20930592.65800  19697007.02300 -15967200.70840  19697007.73740
 -11973918.52600  19034287.14800  -9048327.40940  19034287.04240
 -21278045.66800  18554482.39800 -16379580.96040  18554482.63240
 -27388792.15600  18291707.10900 -21136699.74340  18291707.82340
 -30230432.94400  17470274.46000 -23345322.71940  17470274.43740
  -7856707.45400  19972054.98400  -5995936.65740  19972055.04240
  -7675789.12600  19518843.03800  -5719348.17740  19518844.05840
  -7600503.58400  19728662.68700  -5727957.19140  19728662.00740
 94  6 23 19 39 29.9870000  0  8  1  4  5  7 14 15 20 25
 -20920277.39000  19698969.74100 -15959162.83140  19698970.05840
 -12049512.95100  19019902.24100  -9107232.14940  19019902.35940
 -21314361.60800  18547572.06900 -16407879.08040  18547572.19840
 -27386350.91700  18292171.58500 -21134797.49040  18292171.93740
 -30269469.84500  17462846.02300 -23375741.08640  17462845.99940
  -7831520.15400  19976848.59300  -5976310.25140  19976849.65940
  -7746995.69400  19505292.86600  -5774833.79140  19505293.42940
  -7673299.17200  19714810.44400  -5784681.01140  19714809.68340
 94  6 23 19 39 44.9870000  0  8  1  4  5  7 14 15 20 25
 -20909862.73900  19700951.77300 -15951047.52440  19700952.47640
 -12125009.27300  19005535.38200  -9166060.42740  19005535.40540
 -21350520.27600  18540690.87400 -16436054.67440  18540690.90940
 -27383781.02900  18292660.62400 -21132794.98740  18292660.84740
 -30308342.17300  17455448.67100 -23406031.21640  17455448.60140
  -7806273.65800  19981653.05400  -5956637.67040  19981653.51140
  -7818082.23400  19491765.98400  -5830225.86640  19491766.56940
  -7745983.09600  19700978.81900  -5841317.81140  19700978.42140
 94  6 23 19 39 59.9870000  0  8  1  4  5  7 14 15 20 25
 -20899348.07900  19702952.39000 -15942854.30040  19702953.11640
 -12200409.04700  18991187.62400  -9224813.48540  18991187.73040
 -21386521.72100  18533839.78800 -16464107.75440  18533839.91740
 -27381083.69600  18293174.14800 -21130693.16740  18293174.69840
 -30347053.42400  17448082.81200 -23436195.83140  17448082.68340
  -7780969.08900  19986468.18700  -5936919.81240  19986469.25340
  -7889049.21200  19478261.02300  -5885524.81040  19478261.51540
  -7818554.76100  19687169.03000  -5897867.13640  19687168.66740
